<?xml version="1.0" encoding="utf-8"?>
<gpx xmlns:xsi="http://www.w3.org/2001/XMLSchema-instance" xmlns:xsd="http://www.w3.org/2001/XMLSchema" version="1.1" creator="Shapelink.com" xmlns="http://www.topografix.com/GPX/1/1" xmlns:gpxtpx="http://www.garmin.com/xmlschemas/TrackPointExtension/v1">
  <metadata>
    <name>Cykling 23.83 km, 2016-04-08</name>
    <desc></desc>
    <author><name>Alexander Engvall</name></author> 
    <time>2016-04-08T07:23:06Z</time>
  </metadata>
  <trk>
    <name>Cykling 23.83 km, 2016-04-08</name>
    <trkseg>
      <trkpt lat="59.219605252282" lon="17.906745490444">
        <ele>110.4</ele>
        <time>2016-04-08T07:23:06Z</time>
      </trkpt>
      <trkpt lat="59.219586560645" lon="17.906744903711">
        <ele>110.4</ele>
        <time>2016-04-08T07:23:07Z</time>
      </trkpt>
      <trkpt lat="59.219473153538" lon="17.906761499873">
        <ele>110.4</ele>
        <time>2016-04-08T07:23:10Z</time>
      </trkpt>
      <trkpt lat="59.219315322361" lon="17.906913966634">
        <ele>110.4</ele>
        <time>2016-04-08T07:23:13Z</time>
      </trkpt>
      <trkpt lat="59.21926679116" lon="17.90698470987">
        <ele>110.4</ele>
        <time>2016-04-08T07:23:14Z</time>
      </trkpt>
      <trkpt lat="59.219087586138" lon="17.907254858507">
        <ele>110.4</ele>
        <time>2016-04-08T07:23:18Z</time>
      </trkpt>
      <trkpt lat="59.2190035995" lon="17.907433225339">
        <ele>110</ele>
        <time>2016-04-08T07:23:20Z</time>
      </trkpt>
      <trkpt lat="59.218974765764" lon="17.90754713536">
        <ele>109.6</ele>
        <time>2016-04-08T07:23:21Z</time>
      </trkpt>
      <trkpt lat="59.218948865693" lon="17.907672780041">
        <ele>109.2</ele>
        <time>2016-04-08T07:23:22Z</time>
      </trkpt>
      <trkpt lat="59.218939729422" lon="17.907780319818">
        <ele>108.8</ele>
        <time>2016-04-08T07:23:23Z</time>
      </trkpt>
      <trkpt lat="59.218978118524" lon="17.907884339197">
        <ele>108.4</ele>
        <time>2016-04-08T07:23:24Z</time>
      </trkpt>
      <trkpt lat="59.219021872042" lon="17.907986849834">
        <ele>108.4</ele>
        <time>2016-04-08T07:23:25Z</time>
      </trkpt>
      <trkpt lat="59.219059590592" lon="17.908083912236">
        <ele>108.4</ele>
        <time>2016-04-08T07:23:26Z</time>
      </trkpt>
      <trkpt lat="59.219143409592" lon="17.908293292098">
        <ele>108.4</ele>
        <time>2016-04-08T07:23:29Z</time>
      </trkpt>
      <trkpt lat="59.219309790307" lon="17.908693527823">
        <ele>110.6</ele>
        <time>2016-04-08T07:23:45Z</time>
      </trkpt>
      <trkpt lat="59.219329403953" lon="17.908760666842">
        <ele>110.6</ele>
        <time>2016-04-08T07:23:46Z</time>
      </trkpt>
      <trkpt lat="59.219349939608" lon="17.90883291882">
        <ele>110.6</ele>
        <time>2016-04-08T07:23:47Z</time>
      </trkpt>
      <trkpt lat="59.219439625938" lon="17.909077502662">
        <ele>110.6</ele>
        <time>2016-04-08T07:23:50Z</time>
      </trkpt>
      <trkpt lat="59.219499053609" lon="17.9092453083">
        <ele>110.6</ele>
        <time>2016-04-08T07:23:52Z</time>
      </trkpt>
      <trkpt lat="59.219608605042" lon="17.90948922159">
        <ele>110.6</ele>
        <time>2016-04-08T07:23:57Z</time>
      </trkpt>
      <trkpt lat="59.219639366615" lon="17.909534400031">
        <ele>110.6</ele>
        <time>2016-04-08T07:23:59Z</time>
      </trkpt>
      <trkpt lat="59.219715558086" lon="17.909578824101">
        <ele>110.6</ele>
        <time>2016-04-08T07:24:01Z</time>
      </trkpt>
      <trkpt lat="59.219804741502" lon="17.909646633672">
        <ele>110.6</ele>
        <time>2016-04-08T07:24:03Z</time>
      </trkpt>
      <trkpt lat="59.219874562729" lon="17.909798681338">
        <ele>110.6</ele>
        <time>2016-04-08T07:24:05Z</time>
      </trkpt>
      <trkpt lat="59.220080506012" lon="17.910326238124">
        <ele>110.6</ele>
        <time>2016-04-08T07:24:10Z</time>
      </trkpt>
      <trkpt lat="59.220417709849" lon="17.91119410005">
        <ele>110.6</ele>
        <time>2016-04-08T07:24:18Z</time>
      </trkpt>
      <trkpt lat="59.220785339983" lon="17.912113259204">
        <ele>110.6</ele>
        <time>2016-04-08T07:24:26Z</time>
      </trkpt>
      <trkpt lat="59.22115439504" lon="17.91302135425">
        <ele>110.6</ele>
        <time>2016-04-08T07:24:34Z</time>
      </trkpt>
      <trkpt lat="59.221322703592" lon="17.913470875547">
        <ele>110.6</ele>
        <time>2016-04-08T07:24:38Z</time>
      </trkpt>
      <trkpt lat="59.221349106577" lon="17.913571793623">
        <ele>110.6</ele>
        <time>2016-04-08T07:24:39Z</time>
      </trkpt>
      <trkpt lat="59.221362182341" lon="17.91364999675">
        <ele>110.6</ele>
        <time>2016-04-08T07:24:40Z</time>
      </trkpt>
      <trkpt lat="59.22137148625" lon="17.913714956475">
        <ele>111</ele>
        <time>2016-04-08T07:24:41Z</time>
      </trkpt>
      <trkpt lat="59.221375761019" lon="17.913777820725">
        <ele>111.4</ele>
        <time>2016-04-08T07:24:42Z</time>
      </trkpt>
      <trkpt lat="59.221380622521" lon="17.913844037735">
        <ele>111.8</ele>
        <time>2016-04-08T07:24:43Z</time>
      </trkpt>
      <trkpt lat="59.22139327919" lon="17.913910506202">
        <ele>112.2</ele>
        <time>2016-04-08T07:24:44Z</time>
      </trkpt>
      <trkpt lat="59.221413814845" lon="17.913967167846">
        <ele>112.6</ele>
        <time>2016-04-08T07:24:45Z</time>
      </trkpt>
      <trkpt lat="59.221560330457" lon="17.914093231622">
        <ele>112.6</ele>
        <time>2016-04-08T07:24:49Z</time>
      </trkpt>
      <trkpt lat="59.221605089803" lon="17.914134135294">
        <ele>112.6</ele>
        <time>2016-04-08T07:24:50Z</time>
      </trkpt>
      <trkpt lat="59.221749342302" lon="17.914357680567">
        <ele>112.6</ele>
        <time>2016-04-08T07:24:53Z</time>
      </trkpt>
      <trkpt lat="59.221799046969" lon="17.914452312218">
        <ele>112.6</ele>
        <time>2016-04-08T07:24:54Z</time>
      </trkpt>
      <trkpt lat="59.222062825362" lon="17.914967715249">
        <ele>112.6</ele>
        <time>2016-04-08T07:24:59Z</time>
      </trkpt>
      <trkpt lat="59.222441184328" lon="17.915668274451">
        <ele>113</ele>
        <time>2016-04-08T07:25:06Z</time>
      </trkpt>
      <trkpt lat="59.222489296434" lon="17.915757457867">
        <ele>113.6</ele>
        <time>2016-04-08T07:25:07Z</time>
      </trkpt>
      <trkpt lat="59.222536821807" lon="17.915847395654">
        <ele>114</ele>
        <time>2016-04-08T07:25:08Z</time>
      </trkpt>
      <trkpt lat="59.222578647488" lon="17.915932974853">
        <ele>114.4</ele>
        <time>2016-04-08T07:25:09Z</time>
      </trkpt>
      <trkpt lat="59.222620808445" lon="17.916019476061">
        <ele>114.8</ele>
        <time>2016-04-08T07:25:10Z</time>
      </trkpt>
      <trkpt lat="59.222706136187" lon="17.916185689138">
        <ele>115.4</ele>
        <time>2016-04-08T07:25:12Z</time>
      </trkpt>
      <trkpt lat="59.222744609108" lon="17.916276632753">
        <ele>115.8</ele>
        <time>2016-04-08T07:25:13Z</time>
      </trkpt>
      <trkpt lat="59.22277796907" lon="17.916371012947">
        <ele>116.4</ele>
        <time>2016-04-08T07:25:14Z</time>
      </trkpt>
      <trkpt lat="59.222809904109" lon="17.916470673738">
        <ele>116.8</ele>
        <time>2016-04-08T07:25:15Z</time>
      </trkpt>
      <trkpt lat="59.222841336234" lon="17.91658030899">
        <ele>117.4</ele>
        <time>2016-04-08T07:25:16Z</time>
      </trkpt>
      <trkpt lat="59.222964969259" lon="17.917032680133">
        <ele>117.4</ele>
        <time>2016-04-08T07:25:20Z</time>
      </trkpt>
      <trkpt lat="59.223052141019" lon="17.917404501217">
        <ele>117.4</ele>
        <time>2016-04-08T07:25:23Z</time>
      </trkpt>
      <trkpt lat="59.223167559782" lon="17.917927531777">
        <ele>117.4</ele>
        <time>2016-04-08T07:25:27Z</time>
      </trkpt>
      <trkpt lat="59.22331441067" lon="17.9187168553">
        <ele>117.4</ele>
        <time>2016-04-08T07:25:33Z</time>
      </trkpt>
      <trkpt lat="59.223439803894" lon="17.919415319027">
        <ele>117.8</ele>
        <time>2016-04-08T07:25:39Z</time>
      </trkpt>
      <trkpt lat="59.223457238246" lon="17.919523361718">
        <ele>118.2</ele>
        <time>2016-04-08T07:25:40Z</time>
      </trkpt>
      <trkpt lat="59.223477690082" lon="17.919626039993">
        <ele>119</ele>
        <time>2016-04-08T07:25:41Z</time>
      </trkpt>
      <trkpt lat="59.223496130262" lon="17.919726958069">
        <ele>119.6</ele>
        <time>2016-04-08T07:25:42Z</time>
      </trkpt>
      <trkpt lat="59.223569304249" lon="17.920137754988">
        <ele>120</ele>
        <time>2016-04-08T07:25:46Z</time>
      </trkpt>
      <trkpt lat="59.223590091361" lon="17.920249401896">
        <ele>120.4</ele>
        <time>2016-04-08T07:25:47Z</time>
      </trkpt>
      <trkpt lat="59.223610040283" lon="17.920354846198">
        <ele>120.8</ele>
        <time>2016-04-08T07:25:48Z</time>
      </trkpt>
      <trkpt lat="59.223630827395" lon="17.920462888889">
        <ele>121.2</ele>
        <time>2016-04-08T07:25:49Z</time>
      </trkpt>
      <trkpt lat="59.223654380534" lon="17.920572524141">
        <ele>121.6</ele>
        <time>2016-04-08T07:25:50Z</time>
      </trkpt>
      <trkpt lat="59.2237896644" lon="17.921144924092">
        <ele>121.6</ele>
        <time>2016-04-08T07:25:55Z</time>
      </trkpt>
      <trkpt lat="59.224013628768" lon="17.922004655575">
        <ele>121.6</ele>
        <time>2016-04-08T07:26:02Z</time>
      </trkpt>
      <trkpt lat="59.224195515998" lon="17.92266053925">
        <ele>121.6</ele>
        <time>2016-04-08T07:26:07Z</time>
      </trkpt>
      <trkpt lat="59.224230300883" lon="17.922802360998">
        <ele>121.2</ele>
        <time>2016-04-08T07:26:08Z</time>
      </trkpt>
      <trkpt lat="59.224265085768" lon="17.922938650692">
        <ele>120.8</ele>
        <time>2016-04-08T07:26:09Z</time>
      </trkpt>
      <trkpt lat="59.22430263668" lon="17.923076616766">
        <ele>120.4</ele>
        <time>2016-04-08T07:26:10Z</time>
      </trkpt>
      <trkpt lat="59.224341780153" lon="17.923217767962">
        <ele>120</ele>
        <time>2016-04-08T07:26:11Z</time>
      </trkpt>
      <trkpt lat="59.224382348549" lon="17.923361852823">
        <ele>119.6</ele>
        <time>2016-04-08T07:26:12Z</time>
      </trkpt>
      <trkpt lat="59.224621903251" lon="17.924362651683">
        <ele>119.6</ele>
        <time>2016-04-08T07:26:19Z</time>
      </trkpt>
      <trkpt lat="59.224886268377" lon="17.925306537442">
        <ele>119.6</ele>
        <time>2016-04-08T07:26:26Z</time>
      </trkpt>
      <trkpt lat="59.225186172759" lon="17.926140285035">
        <ele>119.6</ele>
        <time>2016-04-08T07:26:33Z</time>
      </trkpt>
      <trkpt lat="59.225261190764" lon="17.926339187522">
        <ele>120</ele>
        <time>2016-04-08T07:26:35Z</time>
      </trkpt>
      <trkpt lat="59.225295388916" lon="17.92643239425">
        <ele>120.4</ele>
        <time>2016-04-08T07:26:36Z</time>
      </trkpt>
      <trkpt lat="59.225326569584" lon="17.92652291877">
        <ele>121</ele>
        <time>2016-04-08T07:26:37Z</time>
      </trkpt>
      <trkpt lat="59.225357414976" lon="17.926604642295">
        <ele>121.4</ele>
        <time>2016-04-08T07:26:38Z</time>
      </trkpt>
      <trkpt lat="59.225387422178" lon="17.926685108535">
        <ele>122</ele>
        <time>2016-04-08T07:26:39Z</time>
      </trkpt>
      <trkpt lat="59.225417597018" lon="17.926763814576">
        <ele>122.4</ele>
        <time>2016-04-08T07:26:40Z</time>
      </trkpt>
      <trkpt lat="59.22544760422" lon="17.926845538101">
        <ele>122.8</ele>
        <time>2016-04-08T07:26:41Z</time>
      </trkpt>
      <trkpt lat="59.225478784888" lon="17.926924830875">
        <ele>123.2</ele>
        <time>2016-04-08T07:26:42Z</time>
      </trkpt>
      <trkpt lat="59.22551046847" lon="17.927002447269">
        <ele>123.6</ele>
        <time>2016-04-08T07:26:43Z</time>
      </trkpt>
      <trkpt lat="59.225536955274" lon="17.927085930993">
        <ele>124</ele>
        <time>2016-04-08T07:26:44Z</time>
      </trkpt>
      <trkpt lat="59.225560173137" lon="17.927173940943">
        <ele>124</ele>
        <time>2016-04-08T07:26:45Z</time>
      </trkpt>
      <trkpt lat="59.225584564466" lon="17.927257508486">
        <ele>124</ele>
        <time>2016-04-08T07:26:46Z</time>
      </trkpt>
      <trkpt lat="59.22561272765" lon="17.927341327486">
        <ele>124.4</ele>
        <time>2016-04-08T07:26:47Z</time>
      </trkpt>
      <trkpt lat="59.225644075956" lon="17.927427241961">
        <ele>125</ele>
        <time>2016-04-08T07:26:48Z</time>
      </trkpt>
      <trkpt lat="59.225676346271" lon="17.927521454517">
        <ele>125.4</ele>
        <time>2016-04-08T07:26:49Z</time>
      </trkpt>
      <trkpt lat="59.225705012369" lon="17.927626898819">
        <ele>125.8</ele>
        <time>2016-04-08T07:26:50Z</time>
      </trkpt>
      <trkpt lat="59.225729906612" lon="17.927744496876">
        <ele>126.2</ele>
        <time>2016-04-08T07:26:51Z</time>
      </trkpt>
      <trkpt lat="59.225814144707" lon="17.928299630113">
        <ele>126.2</ele>
        <time>2016-04-08T07:26:55Z</time>
      </trkpt>
      <trkpt lat="59.225823783892" lon="17.928440865128">
        <ele>125.8</ele>
        <time>2016-04-08T07:26:56Z</time>
      </trkpt>
      <trkpt lat="59.225829483584" lon="17.928577909193">
        <ele>125.2</ele>
        <time>2016-04-08T07:26:57Z</time>
      </trkpt>
      <trkpt lat="59.225827807204" lon="17.928721742597">
        <ele>124.8</ele>
        <time>2016-04-08T07:26:58Z</time>
      </trkpt>
      <trkpt lat="59.225822358969" lon="17.928863229069">
        <ele>124.4</ele>
        <time>2016-04-08T07:26:59Z</time>
      </trkpt>
      <trkpt lat="59.225815904906" lon="17.929005553731">
        <ele>124</ele>
        <time>2016-04-08T07:27:00Z</time>
      </trkpt>
      <trkpt lat="59.22581054049" lon="17.929149303316">
        <ele>124</ele>
        <time>2016-04-08T07:27:01Z</time>
      </trkpt>
      <trkpt lat="59.225767289886" lon="17.930208943114">
        <ele>124</ele>
        <time>2016-04-08T07:27:08Z</time>
      </trkpt>
      <trkpt lat="59.225770055913" lon="17.930700541549">
        <ele>124</ele>
        <time>2016-04-08T07:27:11Z</time>
      </trkpt>
      <trkpt lat="59.225800230753" lon="17.931033302979">
        <ele>124</ele>
        <time>2016-04-08T07:27:13Z</time>
      </trkpt>
      <trkpt lat="59.225822694245" lon="17.931199096961">
        <ele>123.6</ele>
        <time>2016-04-08T07:27:14Z</time>
      </trkpt>
      <trkpt lat="59.225843565176" lon="17.931355503215">
        <ele>123</ele>
        <time>2016-04-08T07:27:15Z</time>
      </trkpt>
      <trkpt lat="59.225866783039" lon="17.931516687152">
        <ele>122.6</ele>
        <time>2016-04-08T07:27:16Z</time>
      </trkpt>
      <trkpt lat="59.225887989246" lon="17.931690611577">
        <ele>122.2</ele>
        <time>2016-04-08T07:27:17Z</time>
      </trkpt>
      <trkpt lat="59.225908943996" lon="17.931871241522">
        <ele>121.8</ele>
        <time>2016-04-08T07:27:18Z</time>
      </trkpt>
      <trkpt lat="59.225932329497" lon="17.932043321929">
        <ele>121.2</ele>
        <time>2016-04-08T07:27:19Z</time>
      </trkpt>
      <trkpt lat="59.225954960627" lon="17.932217833087">
        <ele>120.8</ele>
        <time>2016-04-08T07:27:20Z</time>
      </trkpt>
      <trkpt lat="59.22597817849" lon="17.932390667865">
        <ele>120.2</ele>
        <time>2016-04-08T07:27:21Z</time>
      </trkpt>
      <trkpt lat="59.226002318362" lon="17.932567861231">
        <ele>119.8</ele>
        <time>2016-04-08T07:27:22Z</time>
      </trkpt>
      <trkpt lat="59.2260276317" lon="17.932746982434">
        <ele>119.4</ele>
        <time>2016-04-08T07:27:23Z</time>
      </trkpt>
      <trkpt lat="59.226055208151" lon="17.932928115293">
        <ele>119</ele>
        <time>2016-04-08T07:27:24Z</time>
      </trkpt>
      <trkpt lat="59.226086388819" lon="17.933122994468">
        <ele>118.4</ele>
        <time>2016-04-08T07:27:25Z</time>
      </trkpt>
      <trkpt lat="59.226115809288" lon="17.933312341589">
        <ele>118</ele>
        <time>2016-04-08T07:27:26Z</time>
      </trkpt>
      <trkpt lat="59.226147325232" lon="17.93350420328">
        <ele>117.6</ele>
        <time>2016-04-08T07:27:27Z</time>
      </trkpt>
      <trkpt lat="59.226181188108" lon="17.933691790202">
        <ele>117.2</ele>
        <time>2016-04-08T07:27:28Z</time>
      </trkpt>
      <trkpt lat="59.226219912486" lon="17.933886166463">
        <ele>116.6</ele>
        <time>2016-04-08T07:27:29Z</time>
      </trkpt>
      <trkpt lat="59.22625981033" lon="17.934083560208">
        <ele>116.2</ele>
        <time>2016-04-08T07:27:30Z</time>
      </trkpt>
      <trkpt lat="59.226302390382" lon="17.934280031944">
        <ele>115.8</ele>
        <time>2016-04-08T07:27:31Z</time>
      </trkpt>
      <trkpt lat="59.226352262687" lon="17.934484634123">
        <ele>115.2</ele>
        <time>2016-04-08T07:27:32Z</time>
      </trkpt>
      <trkpt lat="59.226403895191" lon="17.934677250185">
        <ele>114.6</ele>
        <time>2016-04-08T07:27:33Z</time>
      </trkpt>
      <trkpt lat="59.226462903767" lon="17.93487129117">
        <ele>114.2</ele>
        <time>2016-04-08T07:27:34Z</time>
      </trkpt>
      <trkpt lat="59.226526103293" lon="17.935054268047">
        <ele>113.4</ele>
        <time>2016-04-08T07:27:35Z</time>
      </trkpt>
      <trkpt lat="59.226594415778" lon="17.935231964327">
        <ele>112.8</ele>
        <time>2016-04-08T07:27:36Z</time>
      </trkpt>
      <trkpt lat="59.226668930869" lon="17.935399267051">
        <ele>112.2</ele>
        <time>2016-04-08T07:27:37Z</time>
      </trkpt>
      <trkpt lat="59.226752749869" lon="17.9355644743">
        <ele>111.4</ele>
        <time>2016-04-08T07:27:38Z</time>
      </trkpt>
      <trkpt lat="59.226842520018" lon="17.935722389296">
        <ele>110.6</ele>
        <time>2016-04-08T07:27:39Z</time>
      </trkpt>
      <trkpt lat="59.226941007343" lon="17.93588131012">
        <ele>109.8</ele>
        <time>2016-04-08T07:27:40Z</time>
      </trkpt>
      <trkpt lat="59.227041757781" lon="17.936023215687">
        <ele>109</ele>
        <time>2016-04-08T07:27:41Z</time>
      </trkpt>
      <trkpt lat="59.227146531531" lon="17.936153470413">
        <ele>108</ele>
        <time>2016-04-08T07:27:42Z</time>
      </trkpt>
      <trkpt lat="59.227254406584" lon="17.936275678515">
        <ele>107.6</ele>
        <time>2016-04-08T07:27:43Z</time>
      </trkpt>
      <trkpt lat="59.22736203018" lon="17.936387409242">
        <ele>106.6</ele>
        <time>2016-04-08T07:27:44Z</time>
      </trkpt>
      <trkpt lat="59.227471246337" lon="17.93648815968">
        <ele>106</ele>
        <time>2016-04-08T07:27:45Z</time>
      </trkpt>
      <trkpt lat="59.227585072539" lon="17.936578768019">
        <ele>105.6</ele>
        <time>2016-04-08T07:27:46Z</time>
      </trkpt>
      <trkpt lat="59.227703508786" lon="17.93666753234">
        <ele>105.2</ele>
        <time>2016-04-08T07:27:47Z</time>
      </trkpt>
      <trkpt lat="59.227820603929" lon="17.936739281404">
        <ele>104.6</ele>
        <time>2016-04-08T07:27:48Z</time>
      </trkpt>
      <trkpt lat="59.227938537262" lon="17.936807845346">
        <ele>104.2</ele>
        <time>2016-04-08T07:27:49Z</time>
      </trkpt>
      <trkpt lat="59.22805940426" lon="17.936872721252">
        <ele>103.8</ele>
        <time>2016-04-08T07:27:50Z</time>
      </trkpt>
      <trkpt lat="59.228180690353" lon="17.936936842787">
        <ele>103.4</ele>
        <time>2016-04-08T07:27:51Z</time>
      </trkpt>
      <trkpt lat="59.228302395541" lon="17.93700280834">
        <ele>103</ele>
        <time>2016-04-08T07:27:52Z</time>
      </trkpt>
      <trkpt lat="59.228429968059" lon="17.937065421133">
        <ele>102.4</ele>
        <time>2016-04-08T07:27:53Z</time>
      </trkpt>
      <trkpt lat="59.228557372939" lon="17.937120657854">
        <ele>102</ele>
        <time>2016-04-08T07:27:54Z</time>
      </trkpt>
      <trkpt lat="59.22869642866" lon="17.937173715281">
        <ele>101.2</ele>
        <time>2016-04-08T07:27:55Z</time>
      </trkpt>
      <trkpt lat="59.228831293431" lon="17.937220067188">
        <ele>100.6</ele>
        <time>2016-04-08T07:27:56Z</time>
      </trkpt>
      <trkpt lat="59.228966912573" lon="17.937269520398">
        <ele>99.6</ele>
        <time>2016-04-08T07:27:57Z</time>
      </trkpt>
      <trkpt lat="59.229101022973" lon="17.937318638332">
        <ele>98.8</ele>
        <time>2016-04-08T07:27:58Z</time>
      </trkpt>
      <trkpt lat="59.229233792269" lon="17.937369600284">
        <ele>97.8</ele>
        <time>2016-04-08T07:27:59Z</time>
      </trkpt>
      <trkpt lat="59.229366813022" lon="17.937422154797">
        <ele>96.8</ele>
        <time>2016-04-08T07:28:00Z</time>
      </trkpt>
      <trkpt lat="59.229490865142" lon="17.937472530016">
        <ele>95.8</ele>
        <time>2016-04-08T07:28:01Z</time>
      </trkpt>
      <trkpt lat="59.229619443488" lon="17.937522989054">
        <ele>94.8</ele>
        <time>2016-04-08T07:28:02Z</time>
      </trkpt>
      <trkpt lat="59.229740981038" lon="17.937559953233">
        <ele>94</ele>
        <time>2016-04-08T07:28:03Z</time>
      </trkpt>
      <trkpt lat="59.229859920199" lon="17.937594821937">
        <ele>93.2</ele>
        <time>2016-04-08T07:28:04Z</time>
      </trkpt>
      <trkpt lat="59.229976428609" lon="17.937631953754">
        <ele>92.4</ele>
        <time>2016-04-08T07:28:05Z</time>
      </trkpt>
      <trkpt lat="59.23008782406" lon="17.937673025064">
        <ele>91.6</ele>
        <time>2016-04-08T07:28:06Z</time>
      </trkpt>
      <trkpt lat="59.230297790655" lon="17.937765142145">
        <ele>91.6</ele>
        <time>2016-04-08T07:28:08Z</time>
      </trkpt>
      <trkpt lat="59.230561066134" lon="17.937896989432">
        <ele>92</ele>
        <time>2016-04-08T07:28:11Z</time>
      </trkpt>
      <trkpt lat="59.230622086366" lon="17.937926074625">
        <ele>92.4</ele>
        <time>2016-04-08T07:28:12Z</time>
      </trkpt>
      <trkpt lat="59.230668270635" lon="17.937949292488">
        <ele>92.8</ele>
        <time>2016-04-08T07:28:13Z</time>
      </trkpt>
      <trkpt lat="59.230828867839" lon="17.938330836576">
        <ele>96.6</ele>
        <time>2016-04-08T07:28:32Z</time>
      </trkpt>
      <trkpt lat="59.23082459307" lon="17.938523871733">
        <ele>96.6</ele>
        <time>2016-04-08T07:28:34Z</time>
      </trkpt>
      <trkpt lat="59.230827526735" lon="17.938740879124">
        <ele>96.6</ele>
        <time>2016-04-08T07:28:36Z</time>
      </trkpt>
      <trkpt lat="59.230826437088" lon="17.93884766453">
        <ele>96.6</ele>
        <time>2016-04-08T07:28:37Z</time>
      </trkpt>
      <trkpt lat="59.230832807332" lon="17.938960149628">
        <ele>96.6</ele>
        <time>2016-04-08T07:28:38Z</time>
      </trkpt>
      <trkpt lat="59.230887373501" lon="17.939171122051">
        <ele>96.6</ele>
        <time>2016-04-08T07:28:40Z</time>
      </trkpt>
      <trkpt lat="59.230999271866" lon="17.939245134228">
        <ele>96.6</ele>
        <time>2016-04-08T07:28:42Z</time>
      </trkpt>
      <trkpt lat="59.231164143839" lon="17.93915360388">
        <ele>96.6</ele>
        <time>2016-04-08T07:28:45Z</time>
      </trkpt>
      <trkpt lat="59.231215692524" lon="17.939126111248">
        <ele>97</ele>
        <time>2016-04-08T07:28:46Z</time>
      </trkpt>
      <trkpt lat="59.23126464282" lon="17.939100127358">
        <ele>97.6</ele>
        <time>2016-04-08T07:28:47Z</time>
      </trkpt>
      <trkpt lat="59.231312587288" lon="17.939079088789">
        <ele>98</ele>
        <time>2016-04-08T07:28:48Z</time>
      </trkpt>
      <trkpt lat="59.231357262815" lon="17.939057798763">
        <ele>98.4</ele>
        <time>2016-04-08T07:28:49Z</time>
      </trkpt>
      <trkpt lat="59.231402189799" lon="17.939034329443">
        <ele>99</ele>
        <time>2016-04-08T07:28:50Z</time>
      </trkpt>
      <trkpt lat="59.231449966629" lon="17.939012452684">
        <ele>99.6</ele>
        <time>2016-04-08T07:28:51Z</time>
      </trkpt>
      <trkpt lat="59.231496067079" lon="17.93898512769">
        <ele>100.2</ele>
        <time>2016-04-08T07:28:52Z</time>
      </trkpt>
      <trkpt lat="59.231537725122" lon="17.938956713049">
        <ele>100.8</ele>
        <time>2016-04-08T07:28:53Z</time>
      </trkpt>
      <trkpt lat="59.231584999038" lon="17.938926957304">
        <ele>101.4</ele>
        <time>2016-04-08T07:28:54Z</time>
      </trkpt>
      <trkpt lat="59.231715840497" lon="17.938842132476">
        <ele>102</ele>
        <time>2016-04-08T07:28:57Z</time>
      </trkpt>
      <trkpt lat="59.231756325074" lon="17.938813550197">
        <ele>102.4</ele>
        <time>2016-04-08T07:28:58Z</time>
      </trkpt>
      <trkpt lat="59.231800162411" lon="17.938784884099">
        <ele>103</ele>
        <time>2016-04-08T07:28:59Z</time>
      </trkpt>
      <trkpt lat="59.23183964116" lon="17.938753619612">
        <ele>103.6</ele>
        <time>2016-04-08T07:29:00Z</time>
      </trkpt>
      <trkpt lat="59.231881634479" lon="17.938723780048">
        <ele>104</ele>
        <time>2016-04-08T07:29:01Z</time>
      </trkpt>
      <trkpt lat="59.231921699961" lon="17.93869343757">
        <ele>104.4</ele>
        <time>2016-04-08T07:29:02Z</time>
      </trkpt>
      <trkpt lat="59.231963777099" lon="17.938660161427">
        <ele>104.8</ele>
        <time>2016-04-08T07:29:03Z</time>
      </trkpt>
      <trkpt lat="59.232007614436" lon="17.938624538352">
        <ele>105.2</ele>
        <time>2016-04-08T07:29:04Z</time>
      </trkpt>
      <trkpt lat="59.232051032678" lon="17.938595704616">
        <ele>105.8</ele>
        <time>2016-04-08T07:29:05Z</time>
      </trkpt>
      <trkpt lat="59.232097971318" lon="17.938564021034">
        <ele>106.2</ele>
        <time>2016-04-08T07:29:06Z</time>
      </trkpt>
      <trkpt lat="59.232199392308" lon="17.938488667753">
        <ele>106.2</ele>
        <time>2016-04-08T07:29:08Z</time>
      </trkpt>
      <trkpt lat="59.232420590649" lon="17.938341649227">
        <ele>106.2</ele>
        <time>2016-04-08T07:29:12Z</time>
      </trkpt>
      <trkpt lat="59.232477000836" lon="17.93830200284">
        <ele>106.2</ele>
        <time>2016-04-08T07:29:13Z</time>
      </trkpt>
      <trkpt lat="59.232747233292" lon="17.938138891066">
        <ele>106.2</ele>
        <time>2016-04-08T07:29:18Z</time>
      </trkpt>
      <trkpt lat="59.232826274609" lon="17.938261602082">
        <ele>106.2</ele>
        <time>2016-04-08T07:29:20Z</time>
      </trkpt>
      <trkpt lat="59.232885367004" lon="17.938627052922">
        <ele>106.2</ele>
        <time>2016-04-08T07:29:23Z</time>
      </trkpt>
      <trkpt lat="59.232898023673" lon="17.938886053632">
        <ele>106.2</ele>
        <time>2016-04-08T07:29:25Z</time>
      </trkpt>
      <trkpt lat="59.232873883801" lon="17.939130805112">
        <ele>106.2</ele>
        <time>2016-04-08T07:29:27Z</time>
      </trkpt>
      <trkpt lat="59.232832561034" lon="17.939345046476">
        <ele>106.2</ele>
        <time>2016-04-08T07:29:29Z</time>
      </trkpt>
      <trkpt lat="59.232800709814" lon="17.939562556781">
        <ele>106.6</ele>
        <time>2016-04-08T07:29:31Z</time>
      </trkpt>
      <trkpt lat="59.232787382593" lon="17.939667246712">
        <ele>107.2</ele>
        <time>2016-04-08T07:29:32Z</time>
      </trkpt>
      <trkpt lat="59.232769612965" lon="17.939772942471">
        <ele>107.8</ele>
        <time>2016-04-08T07:29:33Z</time>
      </trkpt>
      <trkpt lat="59.232746059826" lon="17.939881823352">
        <ele>108.4</ele>
        <time>2016-04-08T07:29:34Z</time>
      </trkpt>
      <trkpt lat="59.232730720949" lon="17.939988692577">
        <ele>109</ele>
        <time>2016-04-08T07:29:35Z</time>
      </trkpt>
      <trkpt lat="59.23273566627" lon="17.940092795775">
        <ele>109</ele>
        <time>2016-04-08T07:29:36Z</time>
      </trkpt>
      <trkpt lat="59.232822167478" lon="17.940242747966">
        <ele>109</ele>
        <time>2016-04-08T07:29:38Z</time>
      </trkpt>
      <trkpt lat="59.232974298963" lon="17.940273677177">
        <ele>108.6</ele>
        <time>2016-04-08T07:29:40Z</time>
      </trkpt>
      <trkpt lat="59.233060632533" lon="17.940267390752">
        <ele>108</ele>
        <time>2016-04-08T07:29:41Z</time>
      </trkpt>
      <trkpt lat="59.233147552836" lon="17.940254901721">
        <ele>107.2</ele>
        <time>2016-04-08T07:29:42Z</time>
      </trkpt>
      <trkpt lat="59.233228019076" lon="17.940250878409">
        <ele>106.4</ele>
        <time>2016-04-08T07:29:43Z</time>
      </trkpt>
      <trkpt lat="59.233296918294" lon="17.940270492055">
        <ele>105.4</ele>
        <time>2016-04-08T07:29:44Z</time>
      </trkpt>
      <trkpt lat="59.233351065368" lon="17.940312233917">
        <ele>104.6</ele>
        <time>2016-04-08T07:29:45Z</time>
      </trkpt>
      <trkpt lat="59.233384676787" lon="17.940400243867">
        <ele>102.6</ele>
        <time>2016-04-08T07:29:46Z</time>
      </trkpt>
      <trkpt lat="59.23340118913" lon="17.940517422829">
        <ele>101.6</ele>
        <time>2016-04-08T07:29:47Z</time>
      </trkpt>
      <trkpt lat="59.233384090054" lon="17.9409037446">
        <ele>101.6</ele>
        <time>2016-04-08T07:29:50Z</time>
      </trkpt>
      <trkpt lat="59.233394735067" lon="17.941743191885">
        <ele>101.6</ele>
        <time>2016-04-08T07:29:56Z</time>
      </trkpt>
      <trkpt lat="59.23340873284" lon="17.942213919389">
        <ele>101.2</ele>
        <time>2016-04-08T07:29:59Z</time>
      </trkpt>
      <trkpt lat="59.233419294034" lon="17.942367894892">
        <ele>100.8</ele>
        <time>2016-04-08T07:30:00Z</time>
      </trkpt>
      <trkpt lat="59.233429771409" lon="17.942517176531">
        <ele>100.4</ele>
        <time>2016-04-08T07:30:01Z</time>
      </trkpt>
      <trkpt lat="59.233444523553" lon="17.942669224197">
        <ele>100</ele>
        <time>2016-04-08T07:30:02Z</time>
      </trkpt>
      <trkpt lat="59.233472938194" lon="17.942795623249">
        <ele>99.6</ele>
        <time>2016-04-08T07:30:03Z</time>
      </trkpt>
      <trkpt lat="59.233529096924" lon="17.94303861453">
        <ele>99.6</ele>
        <time>2016-04-08T07:30:05Z</time>
      </trkpt>
      <trkpt lat="59.233510489106" lon="17.943387469208">
        <ele>99.6</ele>
        <time>2016-04-08T07:30:08Z</time>
      </trkpt>
      <trkpt lat="59.233370846652" lon="17.943610427748">
        <ele>99.6</ele>
        <time>2016-04-08T07:30:11Z</time>
      </trkpt>
      <trkpt lat="59.233087622251" lon="17.943988954352">
        <ele>99.6</ele>
        <time>2016-04-08T07:30:16Z</time>
      </trkpt>
      <trkpt lat="59.233041186525" lon="17.944055087543">
        <ele>99.6</ele>
        <time>2016-04-08T07:30:17Z</time>
      </trkpt>
      <trkpt lat="59.23295527205" lon="17.944175786903">
        <ele>100.2</ele>
        <time>2016-04-08T07:30:19Z</time>
      </trkpt>
      <trkpt lat="59.232917804957" lon="17.944236304221">
        <ele>100.6</ele>
        <time>2016-04-08T07:30:20Z</time>
      </trkpt>
      <trkpt lat="59.232886959565" lon="17.944302437412">
        <ele>101.2</ele>
        <time>2016-04-08T07:30:21Z</time>
      </trkpt>
      <trkpt lat="59.23285552744" lon="17.944367900051">
        <ele>101.6</ele>
        <time>2016-04-08T07:30:22Z</time>
      </trkpt>
      <trkpt lat="59.232833483043" lon="17.944443169513">
        <ele>102.2</ele>
        <time>2016-04-08T07:30:23Z</time>
      </trkpt>
      <trkpt lat="59.232832225758" lon="17.944510057075">
        <ele>102.8</ele>
        <time>2016-04-08T07:30:24Z</time>
      </trkpt>
      <trkpt lat="59.232830549378" lon="17.944586332365">
        <ele>103.4</ele>
        <time>2016-04-08T07:30:25Z</time>
      </trkpt>
      <trkpt lat="59.232843373685" lon="17.944625643476">
        <ele>103.8</ele>
        <time>2016-04-08T07:30:26Z</time>
      </trkpt>
      <trkpt lat="59.232860975675" lon="17.944676018695">
        <ele>104.4</ele>
        <time>2016-04-08T07:30:27Z</time>
      </trkpt>
      <trkpt lat="59.23287396762" lon="17.944727148285">
        <ele>104.4</ele>
        <time>2016-04-08T07:30:28Z</time>
      </trkpt>
      <trkpt lat="59.232888133031" lon="17.944771656174">
        <ele>105</ele>
        <time>2016-04-08T07:30:29Z</time>
      </trkpt>
      <trkpt lat="59.232902382261" lon="17.94481557733">
        <ele>105.4</ele>
        <time>2016-04-08T07:30:30Z</time>
      </trkpt>
      <trkpt lat="59.232919984251" lon="17.944864611445">
        <ele>106</ele>
        <time>2016-04-08T07:30:31Z</time>
      </trkpt>
      <trkpt lat="59.232933562929" lon="17.944925464039">
        <ele>106.6</ele>
        <time>2016-04-08T07:30:32Z</time>
      </trkpt>
      <trkpt lat="59.232949153263" lon="17.945000062949">
        <ele>107.2</ele>
        <time>2016-04-08T07:30:33Z</time>
      </trkpt>
      <trkpt lat="59.232972706402" lon="17.945080948284">
        <ele>107.8</ele>
        <time>2016-04-08T07:30:34Z</time>
      </trkpt>
      <trkpt lat="59.233000366672" lon="17.945164180551">
        <ele>108.4</ele>
        <time>2016-04-08T07:30:35Z</time>
      </trkpt>
      <trkpt lat="59.233030290055" lon="17.945241210212">
        <ele>109</ele>
        <time>2016-04-08T07:30:36Z</time>
      </trkpt>
      <trkpt lat="59.233045126018" lon="17.945329806895">
        <ele>109</ele>
        <time>2016-04-08T07:30:37Z</time>
      </trkpt>
      <trkpt lat="59.233013274798" lon="17.945504904786">
        <ele>109</ele>
        <time>2016-04-08T07:30:39Z</time>
      </trkpt>
      <trkpt lat="59.232931299816" lon="17.945648151457">
        <ele>109</ele>
        <time>2016-04-08T07:30:41Z</time>
      </trkpt>
      <trkpt lat="59.232887294841" lon="17.945718559417">
        <ele>109</ele>
        <time>2016-04-08T07:30:42Z</time>
      </trkpt>
      <trkpt lat="59.232695600788" lon="17.946073281425">
        <ele>109</ele>
        <time>2016-04-08T07:30:46Z</time>
      </trkpt>
      <trkpt lat="59.232637346583" lon="17.946190795663">
        <ele>108.4</ele>
        <time>2016-04-08T07:30:47Z</time>
      </trkpt>
      <trkpt lat="59.232584372975" lon="17.946306801159">
        <ele>108</ele>
        <time>2016-04-08T07:30:48Z</time>
      </trkpt>
      <trkpt lat="59.232526705503" lon="17.946426494691">
        <ele>107</ele>
        <time>2016-04-08T07:30:49Z</time>
      </trkpt>
      <trkpt lat="59.232463589796" lon="17.946555827408">
        <ele>106</ele>
        <time>2016-04-08T07:30:50Z</time>
      </trkpt>
      <trkpt lat="59.232392511284" lon="17.946686333591">
        <ele>105</ele>
        <time>2016-04-08T07:30:51Z</time>
      </trkpt>
      <trkpt lat="59.232326545731" lon="17.946811223901">
        <ele>103.8</ele>
        <time>2016-04-08T07:30:52Z</time>
      </trkpt>
      <trkpt lat="59.232255131943" lon="17.946947429776">
        <ele>102.6</ele>
        <time>2016-04-08T07:30:53Z</time>
      </trkpt>
      <trkpt lat="59.232186735639" lon="17.947076846312">
        <ele>101.4</ele>
        <time>2016-04-08T07:30:54Z</time>
      </trkpt>
      <trkpt lat="59.232111885272" lon="17.947197880948">
        <ele>100.4</ele>
        <time>2016-04-08T07:30:55Z</time>
      </trkpt>
      <trkpt lat="59.232041058217" lon="17.947312126245">
        <ele>99.2</ele>
        <time>2016-04-08T07:30:56Z</time>
      </trkpt>
      <trkpt lat="59.231974338293" lon="17.947420420393">
        <ele>98</ele>
        <time>2016-04-08T07:30:57Z</time>
      </trkpt>
      <trkpt lat="59.231910971129" lon="17.947526535247">
        <ele>97.4</ele>
        <time>2016-04-08T07:30:58Z</time>
      </trkpt>
      <trkpt lat="59.231852968381" lon="17.947626782771">
        <ele>97</ele>
        <time>2016-04-08T07:30:59Z</time>
      </trkpt>
      <trkpt lat="59.231804604818" lon="17.947720408594">
        <ele>96.2</ele>
        <time>2016-04-08T07:31:00Z</time>
      </trkpt>
      <trkpt lat="59.231758839644" lon="17.947808334725">
        <ele>95.6</ele>
        <time>2016-04-08T07:31:01Z</time>
      </trkpt>
      <trkpt lat="59.231735202686" lon="17.947920149271">
        <ele>95.6</ele>
        <time>2016-04-08T07:31:02Z</time>
      </trkpt>
      <trkpt lat="59.231738806903" lon="17.94803841788">
        <ele>95.6</ele>
        <time>2016-04-08T07:31:03Z</time>
      </trkpt>
      <trkpt lat="59.231807706121" lon="17.948445023849">
        <ele>95.6</ele>
        <time>2016-04-08T07:31:06Z</time>
      </trkpt>
      <trkpt lat="59.231854058028" lon="17.948651889141">
        <ele>95.6</ele>
        <time>2016-04-08T07:31:08Z</time>
      </trkpt>
      <trkpt lat="59.231871576199" lon="17.948689440053">
        <ele>95.6</ele>
        <time>2016-04-08T07:31:09Z</time>
      </trkpt>
      <trkpt lat="59.231891106026" lon="17.948705198025">
        <ele>95.6</ele>
        <time>2016-04-08T07:31:11Z</time>
      </trkpt>
      <trkpt lat="59.232016918345" lon="17.948785664265">
        <ele>95.6</ele>
        <time>2016-04-08T07:31:21Z</time>
      </trkpt>
      <trkpt lat="59.232052876696" lon="17.948834027828">
        <ele>95.6</ele>
        <time>2016-04-08T07:31:22Z</time>
      </trkpt>
      <trkpt lat="59.232139126447" lon="17.94879362707">
        <ele>95.6</ele>
        <time>2016-04-08T07:31:24Z</time>
      </trkpt>
      <trkpt lat="59.232362084987" lon="17.94863437097">
        <ele>95.6</ele>
        <time>2016-04-08T07:31:28Z</time>
      </trkpt>
      <trkpt lat="59.232653439831" lon="17.948423063271">
        <ele>95.6</ele>
        <time>2016-04-08T07:31:33Z</time>
      </trkpt>
      <trkpt lat="59.23311452815" lon="17.948218209635">
        <ele>95.6</ele>
        <time>2016-04-08T07:31:40Z</time>
      </trkpt>
      <trkpt lat="59.233525576526" lon="17.948137659576">
        <ele>95.6</ele>
        <time>2016-04-08T07:31:46Z</time>
      </trkpt>
      <trkpt lat="59.233734537293" lon="17.948096839723">
        <ele>95.6</ele>
        <time>2016-04-08T07:31:49Z</time>
      </trkpt>
      <trkpt lat="59.233870659349" lon="17.948088793099">
        <ele>95.6</ele>
        <time>2016-04-08T07:31:51Z</time>
      </trkpt>
      <trkpt lat="59.234350439305" lon="17.948121817785">
        <ele>95.6</ele>
        <time>2016-04-08T07:31:58Z</time>
      </trkpt>
      <trkpt lat="59.234689990074" lon="17.948058115345">
        <ele>95.6</ele>
        <time>2016-04-08T07:32:03Z</time>
      </trkpt>
      <trkpt lat="59.234824771026" lon="17.948017882225">
        <ele>95.6</ele>
        <time>2016-04-08T07:32:05Z</time>
      </trkpt>
      <trkpt lat="59.235016716536" lon="17.947895506485">
        <ele>95.6</ele>
        <time>2016-04-08T07:32:08Z</time>
      </trkpt>
      <trkpt lat="59.235079664605" lon="17.947872791536">
        <ele>95.6</ele>
        <time>2016-04-08T07:32:09Z</time>
      </trkpt>
      <trkpt lat="59.235207907675" lon="17.947847981112">
        <ele>96.2</ele>
        <time>2016-04-08T07:32:11Z</time>
      </trkpt>
      <trkpt lat="59.235264988414" lon="17.947830379122">
        <ele>96.6</ele>
        <time>2016-04-08T07:32:12Z</time>
      </trkpt>
      <trkpt lat="59.235323661714" lon="17.947808334725">
        <ele>97.6</ele>
        <time>2016-04-08T07:32:13Z</time>
      </trkpt>
      <trkpt lat="59.235385855412" lon="17.94777857898">
        <ele>98</ele>
        <time>2016-04-08T07:32:14Z</time>
      </trkpt>
      <trkpt lat="59.235443439065" lon="17.947743542638">
        <ele>98</ele>
        <time>2016-04-08T07:32:15Z</time>
      </trkpt>
      <trkpt lat="59.23549582594" lon="17.947707751925">
        <ele>98.4</ele>
        <time>2016-04-08T07:32:16Z</time>
      </trkpt>
      <trkpt lat="59.23555198467" lon="17.94766709971">
        <ele>98.8</ele>
        <time>2016-04-08T07:32:17Z</time>
      </trkpt>
      <trkpt lat="59.235604958278" lon="17.947615215749">
        <ele>99.2</ele>
        <time>2016-04-08T07:32:18Z</time>
      </trkpt>
      <trkpt lat="59.235656842239" lon="17.9475505913">
        <ele>99.6</ele>
        <time>2016-04-08T07:32:19Z</time>
      </trkpt>
      <trkpt lat="59.235705792535" lon="17.947490157801">
        <ele>100</ele>
        <time>2016-04-08T07:32:20Z</time>
      </trkpt>
      <trkpt lat="59.235954483508" lon="17.947148092462">
        <ele>100</ele>
        <time>2016-04-08T07:32:25Z</time>
      </trkpt>
      <trkpt lat="59.236069650814" lon="17.947053796087">
        <ele>100.6</ele>
        <time>2016-04-08T07:32:27Z</time>
      </trkpt>
      <trkpt lat="59.236130168132" lon="17.947017670098">
        <ele>101</ele>
        <time>2016-04-08T07:32:28Z</time>
      </trkpt>
      <trkpt lat="59.236190350174" lon="17.946987830534">
        <ele>101.4</ele>
        <time>2016-04-08T07:32:29Z</time>
      </trkpt>
      <trkpt lat="59.23625019694" lon="17.946970312363">
        <ele>101.8</ele>
        <time>2016-04-08T07:32:30Z</time>
      </trkpt>
      <trkpt lat="59.236312558276" lon="17.946959332074">
        <ele>102.2</ele>
        <time>2016-04-08T07:32:31Z</time>
      </trkpt>
      <trkpt lat="59.23650333032" lon="17.946984729231">
        <ele>102.2</ele>
        <time>2016-04-08T07:32:34Z</time>
      </trkpt>
      <trkpt lat="59.236571642805" lon="17.947012389501">
        <ele>102.2</ele>
        <time>2016-04-08T07:32:35Z</time>
      </trkpt>
      <trkpt lat="59.236827961307" lon="17.947225038304">
        <ele>102.2</ele>
        <time>2016-04-08T07:32:39Z</time>
      </trkpt>
      <trkpt lat="59.236886802245" lon="17.947307013286">
        <ele>102.2</ele>
        <time>2016-04-08T07:32:40Z</time>
      </trkpt>
      <trkpt lat="59.237149407172" lon="17.947760306438">
        <ele>102.2</ele>
        <time>2016-04-08T07:32:46Z</time>
      </trkpt>
      <trkpt lat="59.237184862609" lon="17.947822751593">
        <ele>102.8</ele>
        <time>2016-04-08T07:32:47Z</time>
      </trkpt>
      <trkpt lat="59.237237668579" lon="17.947842365239">
        <ele>103.2</ele>
        <time>2016-04-08T07:32:48Z</time>
      </trkpt>
      <trkpt lat="59.237288798169" lon="17.947802299757">
        <ele>103.6</ele>
        <time>2016-04-08T07:32:49Z</time>
      </trkpt>
      <trkpt lat="59.237325259434" lon="17.947711104685">
        <ele>104</ele>
        <time>2016-04-08T07:32:50Z</time>
      </trkpt>
      <trkpt lat="59.237349147849" lon="17.947600715062">
        <ele>104.6</ele>
        <time>2016-04-08T07:32:51Z</time>
      </trkpt>
      <trkpt lat="59.237410084262" lon="17.947405249154">
        <ele>104.6</ele>
        <time>2016-04-08T07:32:53Z</time>
      </trkpt>
      <trkpt lat="59.23744042674" lon="17.94729242878">
        <ele>104.6</ele>
        <time>2016-04-08T07:32:54Z</time>
      </trkpt>
      <trkpt lat="59.237476804186" lon="17.947170136859">
        <ele>104.6</ele>
        <time>2016-04-08T07:32:55Z</time>
      </trkpt>
      <trkpt lat="59.237552492743" lon="17.946939466971">
        <ele>104.2</ele>
        <time>2016-04-08T07:32:57Z</time>
      </trkpt>
      <trkpt lat="59.237590295112" lon="17.94682890971">
        <ele>103.8</ele>
        <time>2016-04-08T07:32:58Z</time>
      </trkpt>
      <trkpt lat="59.237633294259" lon="17.946718436268">
        <ele>103.2</ele>
        <time>2016-04-08T07:32:59Z</time>
      </trkpt>
      <trkpt lat="59.237674700845" lon="17.946611650862">
        <ele>102.8</ele>
        <time>2016-04-08T07:33:00Z</time>
      </trkpt>
      <trkpt lat="59.237716526526" lon="17.946512157709">
        <ele>102.4</ele>
        <time>2016-04-08T07:33:01Z</time>
      </trkpt>
      <trkpt lat="59.237842422664" lon="17.946249049868">
        <ele>102.4</ele>
        <time>2016-04-08T07:33:04Z</time>
      </trkpt>
      <trkpt lat="59.237899084308" lon="17.94621451644">
        <ele>102.4</ele>
        <time>2016-04-08T07:33:05Z</time>
      </trkpt>
      <trkpt lat="59.238001008212" lon="17.946309148091">
        <ele>102.4</ele>
        <time>2016-04-08T07:33:07Z</time>
      </trkpt>
      <trkpt lat="59.238094047302" lon="17.946475528806">
        <ele>102.4</ele>
        <time>2016-04-08T07:33:09Z</time>
      </trkpt>
      <trkpt lat="59.238228409159" lon="17.946767051288">
        <ele>102.4</ele>
        <time>2016-04-08T07:33:12Z</time>
      </trkpt>
      <trkpt lat="59.238565529177" lon="17.947645893503">
        <ele>102.4</ele>
        <time>2016-04-08T07:33:20Z</time>
      </trkpt>
      <trkpt lat="59.238593357085" lon="17.947778662799">
        <ele>102.4</ele>
        <time>2016-04-08T07:33:21Z</time>
      </trkpt>
      <trkpt lat="59.238656808068" lon="17.948176048678">
        <ele>102.4</ele>
        <time>2016-04-08T07:33:24Z</time>
      </trkpt>
      <trkpt lat="59.238679355379" lon="17.948458183432">
        <ele>102.4</ele>
        <time>2016-04-08T07:33:26Z</time>
      </trkpt>
      <trkpt lat="59.238698801387" lon="17.94858324138">
        <ele>102.4</ele>
        <time>2016-04-08T07:33:27Z</time>
      </trkpt>
      <trkpt lat="59.238744566561" lon="17.948823131358">
        <ele>102.4</ele>
        <time>2016-04-08T07:33:29Z</time>
      </trkpt>
      <trkpt lat="59.238832157416" lon="17.949176176986">
        <ele>102.4</ele>
        <time>2016-04-08T07:33:32Z</time>
      </trkpt>
      <trkpt lat="59.238892088001" lon="17.949417994801">
        <ele>102.8</ele>
        <time>2016-04-08T07:33:34Z</time>
      </trkpt>
      <trkpt lat="59.238913294208" lon="17.94954213074">
        <ele>103.4</ele>
        <time>2016-04-08T07:33:35Z</time>
      </trkpt>
      <trkpt lat="59.238928130171" lon="17.949660734625">
        <ele>103.8</ele>
        <time>2016-04-08T07:33:36Z</time>
      </trkpt>
      <trkpt lat="59.2389357577" lon="17.949773303542">
        <ele>104.2</ele>
        <time>2016-04-08T07:33:37Z</time>
      </trkpt>
      <trkpt lat="59.238939697193" lon="17.949873131971">
        <ele>104.6</ele>
        <time>2016-04-08T07:33:38Z</time>
      </trkpt>
      <trkpt lat="59.238942714677" lon="17.950075722494">
        <ele>105</ele>
        <time>2016-04-08T07:33:40Z</time>
      </trkpt>
      <trkpt lat="59.238946570351" lon="17.950173874543">
        <ele>105.4</ele>
        <time>2016-04-08T07:33:41Z</time>
      </trkpt>
      <trkpt lat="59.23895503607" lon="17.950277139551">
        <ele>105.8</ele>
        <time>2016-04-08T07:33:42Z</time>
      </trkpt>
      <trkpt lat="59.238966686911" lon="17.95038954083">
        <ele>106.4</ele>
        <time>2016-04-08T07:33:43Z</time>
      </trkpt>
      <trkpt lat="59.238982863978" lon="17.950503953765">
        <ele>106.8</ele>
        <time>2016-04-08T07:33:44Z</time>
      </trkpt>
      <trkpt lat="59.238999879235" lon="17.950624569306">
        <ele>106.8</ele>
        <time>2016-04-08T07:33:45Z</time>
      </trkpt>
      <trkpt lat="59.239126110649" lon="17.951490503395">
        <ele>106.8</ele>
        <time>2016-04-08T07:33:52Z</time>
      </trkpt>
      <trkpt lat="59.239235662082" lon="17.952101711543">
        <ele>106.8</ele>
        <time>2016-04-08T07:33:57Z</time>
      </trkpt>
      <trkpt lat="59.2392794156" lon="17.952201539972">
        <ele>106.8</ele>
        <time>2016-04-08T07:33:58Z</time>
      </trkpt>
      <trkpt lat="59.239479826829" lon="17.952303631514">
        <ele>106.8</ele>
        <time>2016-04-08T07:34:01Z</time>
      </trkpt>
      <trkpt lat="59.23962391169" lon="17.952263566032">
        <ele>106.8</ele>
        <time>2016-04-08T07:34:03Z</time>
      </trkpt>
      <trkpt lat="59.239754920787" lon="17.95227295376">
        <ele>106.8</ele>
        <time>2016-04-08T07:34:05Z</time>
      </trkpt>
      <trkpt lat="59.239889115006" lon="17.952546371338">
        <ele>106.8</ele>
        <time>2016-04-08T07:34:08Z</time>
      </trkpt>
      <trkpt lat="59.239996403326" lon="17.95292506558">
        <ele>106.8</ele>
        <time>2016-04-08T07:34:11Z</time>
      </trkpt>
      <trkpt lat="59.240073097711" lon="17.953182641367">
        <ele>106.8</ele>
        <time>2016-04-08T07:34:13Z</time>
      </trkpt>
      <trkpt lat="59.240240651892" lon="17.953700307511">
        <ele>106.8</ele>
        <time>2016-04-08T07:34:17Z</time>
      </trkpt>
      <trkpt lat="59.240271916379" lon="17.953849505331">
        <ele>106.8</ele>
        <time>2016-04-08T07:34:18Z</time>
      </trkpt>
      <trkpt lat="59.240306785083" lon="17.953979424781">
        <ele>106.8</ele>
        <time>2016-04-08T07:34:19Z</time>
      </trkpt>
      <trkpt lat="59.240419521638" lon="17.954357951385">
        <ele>106.8</ele>
        <time>2016-04-08T07:34:22Z</time>
      </trkpt>
      <trkpt lat="59.240670727181" lon="17.955199997059">
        <ele>106.8</ele>
        <time>2016-04-08T07:34:29Z</time>
      </trkpt>
      <trkpt lat="59.240725628626" lon="17.955428236196">
        <ele>106.8</ele>
        <time>2016-04-08T07:34:31Z</time>
      </trkpt>
      <trkpt lat="59.240770387972" lon="17.955657984075">
        <ele>106.8</ele>
        <time>2016-04-08T07:34:33Z</time>
      </trkpt>
      <trkpt lat="59.240775836207" lon="17.955770050078">
        <ele>106.8</ele>
        <time>2016-04-08T07:34:34Z</time>
      </trkpt>
      <trkpt lat="59.240827049616" lon="17.956116809281">
        <ele>107.2</ele>
        <time>2016-04-08T07:34:38Z</time>
      </trkpt>
      <trkpt lat="59.240855967171" lon="17.956144218094">
        <ele>107.6</ele>
        <time>2016-04-08T07:34:39Z</time>
      </trkpt>
      <trkpt lat="59.240899720689" lon="17.956159976066">
        <ele>108</ele>
        <time>2016-04-08T07:34:40Z</time>
      </trkpt>
      <trkpt lat="59.240949592994" lon="17.956156036573">
        <ele>108.4</ele>
        <time>2016-04-08T07:34:41Z</time>
      </trkpt>
      <trkpt lat="59.241000722584" lon="17.956157629134">
        <ele>109</ele>
        <time>2016-04-08T07:34:42Z</time>
      </trkpt>
      <trkpt lat="59.24105470202" lon="17.956186211413">
        <ele>109</ele>
        <time>2016-04-08T07:34:43Z</time>
      </trkpt>
      <trkpt lat="59.241143298703" lon="17.956341947115">
        <ele>109</ele>
        <time>2016-04-08T07:34:45Z</time>
      </trkpt>
      <trkpt lat="59.241299202043" lon="17.956584854577">
        <ele>109</ele>
        <time>2016-04-08T07:34:48Z</time>
      </trkpt>
      <trkpt lat="59.241362401569" lon="17.956610419372">
        <ele>109</ele>
        <time>2016-04-08T07:34:49Z</time>
      </trkpt>
      <trkpt lat="59.24148217892" lon="17.956521990327">
        <ele>109</ele>
        <time>2016-04-08T07:34:51Z</time>
      </trkpt>
      <trkpt lat="59.241610002895" lon="17.956300708167">
        <ele>109</ele>
        <time>2016-04-08T07:34:54Z</time>
      </trkpt>
      <trkpt lat="59.24171435755" lon="17.956143212266">
        <ele>109</ele>
        <time>2016-04-08T07:34:56Z</time>
      </trkpt>
      <trkpt lat="59.241852826538" lon="17.955920924278">
        <ele>109</ele>
        <time>2016-04-08T07:34:59Z</time>
      </trkpt>
      <trkpt lat="59.242021638004" lon="17.955697295186">
        <ele>109</ele>
        <time>2016-04-08T07:35:03Z</time>
      </trkpt>
      <trkpt lat="59.242068409006" lon="17.955647339062">
        <ele>109.4</ele>
        <time>2016-04-08T07:35:04Z</time>
      </trkpt>
      <trkpt lat="59.242111827248" lon="17.955595874196">
        <ele>109.8</ele>
        <time>2016-04-08T07:35:05Z</time>
      </trkpt>
      <trkpt lat="59.242150383988" lon="17.955539128733">
        <ele>110.8</ele>
        <time>2016-04-08T07:35:06Z</time>
      </trkpt>
      <trkpt lat="59.242193299316" lon="17.955486322763">
        <ele>111.2</ele>
        <time>2016-04-08T07:35:07Z</time>
      </trkpt>
      <trkpt lat="59.2422885177" lon="17.955443575073">
        <ele>111.2</ele>
        <time>2016-04-08T07:35:09Z</time>
      </trkpt>
      <trkpt lat="59.242391363613" lon="17.955613476186">
        <ele>111.2</ele>
        <time>2016-04-08T07:35:12Z</time>
      </trkpt>
      <trkpt lat="59.242421203177" lon="17.955686650173">
        <ele>111.2</ele>
        <time>2016-04-08T07:35:13Z</time>
      </trkpt>
      <trkpt lat="59.242448444352" lon="17.955764434205">
        <ele>111.8</ele>
        <time>2016-04-08T07:35:14Z</time>
      </trkpt>
      <trkpt lat="59.24247794864" lon="17.955842972608">
        <ele>112.2</ele>
        <time>2016-04-08T07:35:15Z</time>
      </trkpt>
      <trkpt lat="59.242509967498" lon="17.955913380568">
        <ele>112.6</ele>
        <time>2016-04-08T07:35:16Z</time>
      </trkpt>
      <trkpt lat="59.242539471786" lon="17.955984123804">
        <ele>113</ele>
        <time>2016-04-08T07:35:17Z</time>
      </trkpt>
      <trkpt lat="59.242570568635" lon="17.956060902008">
        <ele>113.4</ele>
        <time>2016-04-08T07:35:18Z</time>
      </trkpt>
      <trkpt lat="59.242598228905" lon="17.956143631361">
        <ele>113.8</ele>
        <time>2016-04-08T07:35:19Z</time>
      </trkpt>
      <trkpt lat="59.242627397917" lon="17.956227450361">
        <ele>114.2</ele>
        <time>2016-04-08T07:35:20Z</time>
      </trkpt>
      <trkpt lat="59.242664110639" lon="17.956304228565">
        <ele>114.6</ele>
        <time>2016-04-08T07:35:21Z</time>
      </trkpt>
      <trkpt lat="59.242692273823" lon="17.956391065049">
        <ele>115</ele>
        <time>2016-04-08T07:35:22Z</time>
      </trkpt>
      <trkpt lat="59.242720017912" lon="17.956485193786">
        <ele>115.4</ele>
        <time>2016-04-08T07:35:23Z</time>
      </trkpt>
      <trkpt lat="59.242747426725" lon="17.956580663627">
        <ele>115.4</ele>
        <time>2016-04-08T07:35:24Z</time>
      </trkpt>
      <trkpt lat="59.242787492207" lon="17.956790378765">
        <ele>115.4</ele>
        <time>2016-04-08T07:35:26Z</time>
      </trkpt>
      <trkpt lat="59.242836861598" lon="17.957116769951">
        <ele>115.4</ele>
        <time>2016-04-08T07:35:29Z</time>
      </trkpt>
      <trkpt lat="59.242992178205" lon="17.958153443343">
        <ele>115.4</ele>
        <time>2016-04-08T07:35:38Z</time>
      </trkpt>
      <trkpt lat="59.243130982469" lon="17.959008900057">
        <ele>115.4</ele>
        <time>2016-04-08T07:35:45Z</time>
      </trkpt>
      <trkpt lat="59.243274899692" lon="17.959676015478">
        <ele>115.8</ele>
        <time>2016-04-08T07:35:51Z</time>
      </trkpt>
      <trkpt lat="59.243306164179" lon="17.959775760088">
        <ele>116.2</ele>
        <time>2016-04-08T07:35:52Z</time>
      </trkpt>
      <trkpt lat="59.243336925752" lon="17.959876007612">
        <ele>116.6</ele>
        <time>2016-04-08T07:35:53Z</time>
      </trkpt>
      <trkpt lat="59.243365759488" lon="17.959978518249">
        <ele>117</ele>
        <time>2016-04-08T07:35:54Z</time>
      </trkpt>
      <trkpt lat="59.243396269604" lon="17.960082705266">
        <ele>117.4</ele>
        <time>2016-04-08T07:35:55Z</time>
      </trkpt>
      <trkpt lat="59.243547981994" lon="17.960628618413">
        <ele>117.4</ele>
        <time>2016-04-08T07:36:00Z</time>
      </trkpt>
      <trkpt lat="59.243565500165" lon="17.960744707728">
        <ele>117.4</ele>
        <time>2016-04-08T07:36:01Z</time>
      </trkpt>
      <trkpt lat="59.243575055531" lon="17.961101776668">
        <ele>117.4</ele>
        <time>2016-04-08T07:36:04Z</time>
      </trkpt>
      <trkpt lat="59.243543707225" lon="17.961345438501">
        <ele>117.4</ele>
        <time>2016-04-08T07:36:06Z</time>
      </trkpt>
      <trkpt lat="59.243498109689" lon="17.961730167711">
        <ele>117.4</ele>
        <time>2016-04-08T07:36:09Z</time>
      </trkpt>
      <trkpt lat="59.243529541814" lon="17.962284630396">
        <ele>117</ele>
        <time>2016-04-08T07:36:13Z</time>
      </trkpt>
      <trkpt lat="59.243562231224" lon="17.962413711656">
        <ele>116.6</ele>
        <time>2016-04-08T07:36:14Z</time>
      </trkpt>
      <trkpt lat="59.243595591186" lon="17.962542290002">
        <ele>116.2</ele>
        <time>2016-04-08T07:36:15Z</time>
      </trkpt>
      <trkpt lat="59.243624173465" lon="17.962665755389">
        <ele>115.8</ele>
        <time>2016-04-08T07:36:16Z</time>
      </trkpt>
      <trkpt lat="59.243654851219" lon="17.962793160269">
        <ele>115.4</ele>
        <time>2016-04-08T07:36:17Z</time>
      </trkpt>
      <trkpt lat="59.243858112294" lon="17.963570832951">
        <ele>115.4</ele>
        <time>2016-04-08T07:36:23Z</time>
      </trkpt>
      <trkpt lat="59.244115352805" lon="17.964270218687">
        <ele>115.4</ele>
        <time>2016-04-08T07:36:29Z</time>
      </trkpt>
      <trkpt lat="59.244425147829" lon="17.964998521978">
        <ele>115</ele>
        <time>2016-04-08T07:36:36Z</time>
      </trkpt>
      <trkpt lat="59.244473427573" lon="17.965101284072">
        <ele>114.6</ele>
        <time>2016-04-08T07:36:37Z</time>
      </trkpt>
      <trkpt lat="59.244519108928" lon="17.965210584048">
        <ele>114.2</ele>
        <time>2016-04-08T07:36:38Z</time>
      </trkpt>
      <trkpt lat="59.244555905469" lon="17.965305467156">
        <ele>113.8</ele>
        <time>2016-04-08T07:36:39Z</time>
      </trkpt>
      <trkpt lat="59.244583398101" lon="17.965372270899">
        <ele>113.4</ele>
        <time>2016-04-08T07:36:40Z</time>
      </trkpt>
      <trkpt lat="59.244617260977" lon="17.965398338608">
        <ele>113.4</ele>
        <time>2016-04-08T07:36:41Z</time>
      </trkpt>
      <trkpt lat="59.244661014495" lon="17.965412504019">
        <ele>113.4</ele>
        <time>2016-04-08T07:36:43Z</time>
      </trkpt>
      <trkpt lat="59.24476704553" lon="17.965230616789">
        <ele>113.4</ele>
        <time>2016-04-08T07:36:49Z</time>
      </trkpt>
      <trkpt lat="59.24487936299" lon="17.965132883835">
        <ele>113.4</ele>
        <time>2016-04-08T07:36:52Z</time>
      </trkpt>
      <trkpt lat="59.244960499782" lon="17.965039174193">
        <ele>113.4</ele>
        <time>2016-04-08T07:36:54Z</time>
      </trkpt>
      <trkpt lat="59.245032667941" lon="17.964900956662">
        <ele>113.4</ele>
        <time>2016-04-08T07:36:56Z</time>
      </trkpt>
      <trkpt lat="59.245141465003" lon="17.964648326196">
        <ele>113.4</ele>
        <time>2016-04-08T07:36:59Z</time>
      </trkpt>
      <trkpt lat="59.245185469978" lon="17.964559310418">
        <ele>113.8</ele>
        <time>2016-04-08T07:37:00Z</time>
      </trkpt>
      <trkpt lat="59.245224529632" lon="17.964475072323">
        <ele>114.2</ele>
        <time>2016-04-08T07:37:01Z</time>
      </trkpt>
      <trkpt lat="59.245267109684" lon="17.964395360454">
        <ele>114.6</ele>
        <time>2016-04-08T07:37:02Z</time>
      </trkpt>
      <trkpt lat="59.245311198478" lon="17.964311457635">
        <ele>115</ele>
        <time>2016-04-08T07:37:03Z</time>
      </trkpt>
      <trkpt lat="59.245361238421" lon="17.964235266164">
        <ele>115.6</ele>
        <time>2016-04-08T07:37:04Z</time>
      </trkpt>
      <trkpt lat="59.245411948916" lon="17.964173156285">
        <ele>115.6</ele>
        <time>2016-04-08T07:37:05Z</time>
      </trkpt>
      <trkpt lat="59.245778908498" lon="17.96376705323">
        <ele>115</ele>
        <time>2016-04-08T07:37:11Z</time>
      </trkpt>
      <trkpt lat="59.245852417761" lon="17.963692286682">
        <ele>114.4</ele>
        <time>2016-04-08T07:37:12Z</time>
      </trkpt>
      <trkpt lat="59.245929279784" lon="17.963608886777">
        <ele>113.8</ele>
        <time>2016-04-08T07:37:13Z</time>
      </trkpt>
      <trkpt lat="59.24601091949" lon="17.963525486872">
        <ele>113.4</ele>
        <time>2016-04-08T07:37:14Z</time>
      </trkpt>
      <trkpt lat="59.246093648843" lon="17.963443092795">
        <ele>112.8</ele>
        <time>2016-04-08T07:37:15Z</time>
      </trkpt>
      <trkpt lat="59.246173276893" lon="17.963359189976">
        <ele>112.2</ele>
        <time>2016-04-08T07:37:16Z</time>
      </trkpt>
      <trkpt lat="59.246252402029" lon="17.96326916837">
        <ele>111.6</ele>
        <time>2016-04-08T07:37:17Z</time>
      </trkpt>
      <trkpt lat="59.246334377011" lon="17.963162885878">
        <ele>111</ele>
        <time>2016-04-08T07:37:18Z</time>
      </trkpt>
      <trkpt lat="59.246409395016" lon="17.963058950318">
        <ele>110.6</ele>
        <time>2016-04-08T07:37:19Z</time>
      </trkpt>
      <trkpt lat="59.246484748297" lon="17.962947638686">
        <ele>110</ele>
        <time>2016-04-08T07:37:20Z</time>
      </trkpt>
      <trkpt lat="59.246554653343" lon="17.962825430584">
        <ele>109.4</ele>
        <time>2016-04-08T07:37:21Z</time>
      </trkpt>
      <trkpt lat="59.246621876181" lon="17.962695427315">
        <ele>109</ele>
        <time>2016-04-08T07:37:22Z</time>
      </trkpt>
      <trkpt lat="59.246691948865" lon="17.962565256408">
        <ele>108.4</ele>
        <time>2016-04-08T07:37:23Z</time>
      </trkpt>
      <trkpt lat="59.246760931902" lon="17.962434498768">
        <ele>107.8</ele>
        <time>2016-04-08T07:37:24Z</time>
      </trkpt>
      <trkpt lat="59.247127220932" lon="17.961833600357">
        <ele>107.4</ele>
        <time>2016-04-08T07:37:29Z</time>
      </trkpt>
      <trkpt lat="59.247212381036" lon="17.961736454136">
        <ele>107</ele>
        <time>2016-04-08T07:37:30Z</time>
      </trkpt>
      <trkpt lat="59.247307012687" lon="17.96165229986">
        <ele>106.6</ele>
        <time>2016-04-08T07:37:31Z</time>
      </trkpt>
      <trkpt lat="59.247400303234" lon="17.96158273009">
        <ele>106.2</ele>
        <time>2016-04-08T07:37:32Z</time>
      </trkpt>
      <trkpt lat="59.24749703036" lon="17.961530678491">
        <ele>105.8</ele>
        <time>2016-04-08T07:37:33Z</time>
      </trkpt>
      <trkpt lat="59.24759677497" lon="17.961488098439">
        <ele>105.2</ele>
        <time>2016-04-08T07:37:34Z</time>
      </trkpt>
      <trkpt lat="59.247698112141" lon="17.961467814241">
        <ele>104.8</ele>
        <time>2016-04-08T07:37:35Z</time>
      </trkpt>
      <trkpt lat="59.247801209511" lon="17.961460773445">
        <ele>104.4</ele>
        <time>2016-04-08T07:37:36Z</time>
      </trkpt>
      <trkpt lat="59.247902965777" lon="17.961467311327">
        <ele>103.8</ele>
        <time>2016-04-08T07:37:37Z</time>
      </trkpt>
      <trkpt lat="59.248010337916" lon="17.961486422059">
        <ele>103.4</ele>
        <time>2016-04-08T07:37:38Z</time>
      </trkpt>
      <trkpt lat="59.248116955684" lon="17.961513663234">
        <ele>103.4</ele>
        <time>2016-04-08T07:37:39Z</time>
      </trkpt>
      <trkpt lat="59.248331532324" lon="17.961617179699">
        <ele>103</ele>
        <time>2016-04-08T07:37:41Z</time>
      </trkpt>
      <trkpt lat="59.24842574488" lon="17.961682558519">
        <ele>102.4</ele>
        <time>2016-04-08T07:37:42Z</time>
      </trkpt>
      <trkpt lat="59.248518867789" lon="17.961748440253">
        <ele>102</ele>
        <time>2016-04-08T07:37:43Z</time>
      </trkpt>
      <trkpt lat="59.248614924363" lon="17.961820692231">
        <ele>101.4</ele>
        <time>2016-04-08T07:37:44Z</time>
      </trkpt>
      <trkpt lat="59.248711986765" lon="17.961892776571">
        <ele>101</ele>
        <time>2016-04-08T07:37:45Z</time>
      </trkpt>
      <trkpt lat="59.248904686646" lon="17.962065443711">
        <ele>100.6</ele>
        <time>2016-04-08T07:37:47Z</time>
      </trkpt>
      <trkpt lat="59.249002922514" lon="17.962173067307">
        <ele>100</ele>
        <time>2016-04-08T07:37:48Z</time>
      </trkpt>
      <trkpt lat="59.249098727631" lon="17.962271638451">
        <ele>99.4</ele>
        <time>2016-04-08T07:37:49Z</time>
      </trkpt>
      <trkpt lat="59.249197885508" lon="17.962373646174">
        <ele>99</ele>
        <time>2016-04-08T07:37:50Z</time>
      </trkpt>
      <trkpt lat="59.249307185484" lon="17.962480012485">
        <ele>98.2</ele>
        <time>2016-04-08T07:37:51Z</time>
      </trkpt>
      <trkpt lat="59.249413719433" lon="17.962585121511">
        <ele>97.6</ele>
        <time>2016-04-08T07:37:52Z</time>
      </trkpt>
      <trkpt lat="59.249524192875" lon="17.962677992963">
        <ele>96.6</ele>
        <time>2016-04-08T07:37:53Z</time>
      </trkpt>
      <trkpt lat="59.249631145919" lon="17.962765080904">
        <ele>95.8</ele>
        <time>2016-04-08T07:37:54Z</time>
      </trkpt>
      <trkpt lat="59.249740110619" lon="17.962851246836">
        <ele>94.8</ele>
        <time>2016-04-08T07:37:55Z</time>
      </trkpt>
      <trkpt lat="59.249842118342" lon="17.962931293981">
        <ele>93.8</ele>
        <time>2016-04-08T07:37:56Z</time>
      </trkpt>
      <trkpt lat="59.249940270391" lon="17.963031876781">
        <ele>92.8</ele>
        <time>2016-04-08T07:37:57Z</time>
      </trkpt>
      <trkpt lat="59.250039428268" lon="17.963126759889">
        <ele>91.8</ele>
        <time>2016-04-08T07:37:58Z</time>
      </trkpt>
      <trkpt lat="59.250138250869" lon="17.963227929422">
        <ele>90.8</ele>
        <time>2016-04-08T07:37:59Z</time>
      </trkpt>
      <trkpt lat="59.250321060108" lon="17.963437141646">
        <ele>91.4</ele>
        <time>2016-04-08T07:38:01Z</time>
      </trkpt>
      <trkpt lat="59.250403705642" lon="17.9635432565">
        <ele>91.8</ele>
        <time>2016-04-08T07:38:02Z</time>
      </trkpt>
      <trkpt lat="59.250490625945" lon="17.963635960314">
        <ele>92.6</ele>
        <time>2016-04-08T07:38:03Z</time>
      </trkpt>
      <trkpt lat="59.250568326158" lon="17.963718689667">
        <ele>93.4</ele>
        <time>2016-04-08T07:38:04Z</time>
      </trkpt>
      <trkpt lat="59.25063940467" lon="17.963809884739">
        <ele>94.2</ele>
        <time>2016-04-08T07:38:05Z</time>
      </trkpt>
      <trkpt lat="59.250700341083" lon="17.963918095068">
        <ele>95.2</ele>
        <time>2016-04-08T07:38:06Z</time>
      </trkpt>
      <trkpt lat="59.250740574203" lon="17.964052959839">
        <ele>96</ele>
        <time>2016-04-08T07:38:07Z</time>
      </trkpt>
      <trkpt lat="59.250756835089" lon="17.964215233423">
        <ele>97</ele>
        <time>2016-04-08T07:38:08Z</time>
      </trkpt>
      <trkpt lat="59.250738227271" lon="17.964376249722">
        <ele>97.8</ele>
        <time>2016-04-08T07:38:09Z</time>
      </trkpt>
      <trkpt lat="59.25058995146" lon="17.964801631147">
        <ele>98.2</ele>
        <time>2016-04-08T07:38:12Z</time>
      </trkpt>
      <trkpt lat="59.250533457454" lon="17.964945967465">
        <ele>98.6</ele>
        <time>2016-04-08T07:38:13Z</time>
      </trkpt>
      <trkpt lat="59.250477298724" lon="17.965087705394">
        <ele>99</ele>
        <time>2016-04-08T07:38:14Z</time>
      </trkpt>
      <trkpt lat="59.250398927959" lon="17.965408145431">
        <ele>99.8</ele>
        <time>2016-04-08T07:38:15Z</time>
      </trkpt>
      <trkpt lat="59.250398927959" lon="17.965408145431">
        <ele>99.8</ele>
        <time>2016-04-08T07:38:16Z</time>
      </trkpt>
      <trkpt lat="59.250393731181" lon="17.965569077911">
        <ele>99.8</ele>
        <time>2016-04-08T07:38:17Z</time>
      </trkpt>
      <trkpt lat="59.25041979889" lon="17.965721879948">
        <ele>99.8</ele>
        <time>2016-04-08T07:38:18Z</time>
      </trkpt>
      <trkpt lat="59.250614091332" lon="17.966109123728">
        <ele>99.8</ele>
        <time>2016-04-08T07:38:21Z</time>
      </trkpt>
      <trkpt lat="59.250686762405" lon="17.96619696604">
        <ele>100.4</ele>
        <time>2016-04-08T07:38:22Z</time>
      </trkpt>
      <trkpt lat="59.250755493985" lon="17.966282377601">
        <ele>101.4</ele>
        <time>2016-04-08T07:38:23Z</time>
      </trkpt>
      <trkpt lat="59.25082464466" lon="17.966367705343">
        <ele>102.2</ele>
        <time>2016-04-08T07:38:24Z</time>
      </trkpt>
      <trkpt lat="59.250902428692" lon="17.966447836307">
        <ele>102.8</ele>
        <time>2016-04-08T07:38:25Z</time>
      </trkpt>
      <trkpt lat="59.250971914643" lon="17.966530481841">
        <ele>103.6</ele>
        <time>2016-04-08T07:38:26Z</time>
      </trkpt>
      <trkpt lat="59.251040227128" lon="17.966603823466">
        <ele>104.2</ele>
        <time>2016-04-08T07:38:27Z</time>
      </trkpt>
      <trkpt lat="59.251108539613" lon="17.966681272222">
        <ele>105</ele>
        <time>2016-04-08T07:38:28Z</time>
      </trkpt>
      <trkpt lat="59.251176181546" lon="17.966766264688">
        <ele>105.6</ele>
        <time>2016-04-08T07:38:29Z</time>
      </trkpt>
      <trkpt lat="59.251245751316" lon="17.966852262982">
        <ele>106.4</ele>
        <time>2016-04-08T07:38:30Z</time>
      </trkpt>
      <trkpt lat="59.251314399077" lon="17.966940272932">
        <ele>107</ele>
        <time>2016-04-08T07:38:31Z</time>
      </trkpt>
      <trkpt lat="59.251379694078" lon="17.967034485488">
        <ele>107.8</ele>
        <time>2016-04-08T07:38:32Z</time>
      </trkpt>
      <trkpt lat="59.251449850581" lon="17.967133978641">
        <ele>108.4</ele>
        <time>2016-04-08T07:38:33Z</time>
      </trkpt>
      <trkpt lat="59.251512966288" lon="17.967233220337">
        <ele>109.2</ele>
        <time>2016-04-08T07:38:34Z</time>
      </trkpt>
      <trkpt lat="59.25168630398" lon="17.967527592665">
        <ele>109.6</ele>
        <time>2016-04-08T07:38:37Z</time>
      </trkpt>
      <trkpt lat="59.251739612864" lon="17.967623397782">
        <ele>110</ele>
        <time>2016-04-08T07:38:38Z</time>
      </trkpt>
      <trkpt lat="59.251793927576" lon="17.967715598682">
        <ele>110.4</ele>
        <time>2016-04-08T07:38:39Z</time>
      </trkpt>
      <trkpt lat="59.251850002487" lon="17.967814169826">
        <ele>110.8</ele>
        <time>2016-04-08T07:38:40Z</time>
      </trkpt>
      <trkpt lat="59.251905993579" lon="17.967894216971">
        <ele>111.4</ele>
        <time>2016-04-08T07:38:41Z</time>
      </trkpt>
      <trkpt lat="59.25196039211" lon="17.967964457293">
        <ele>111.8</ele>
        <time>2016-04-08T07:38:42Z</time>
      </trkpt>
      <trkpt lat="59.252012527528" lon="17.96803930766">
        <ele>112.4</ele>
        <time>2016-04-08T07:38:43Z</time>
      </trkpt>
      <trkpt lat="59.252063405661" lon="17.968115834407">
        <ele>112.8</ele>
        <time>2016-04-08T07:38:44Z</time>
      </trkpt>
      <trkpt lat="59.252117552735" lon="17.968193115525">
        <ele>113.4</ele>
        <time>2016-04-08T07:38:45Z</time>
      </trkpt>
      <trkpt lat="59.252170442524" lon="17.968269055539">
        <ele>113.8</ele>
        <time>2016-04-08T07:38:46Z</time>
      </trkpt>
      <trkpt lat="59.252480321367" lon="17.968656634595">
        <ele>113.8</ele>
        <time>2016-04-08T07:38:51Z</time>
      </trkpt>
      <trkpt lat="59.252619796183" lon="17.968807676433">
        <ele>113.4</ele>
        <time>2016-04-08T07:38:53Z</time>
      </trkpt>
      <trkpt lat="59.252693892179" lon="17.968890405786">
        <ele>112.8</ele>
        <time>2016-04-08T07:38:54Z</time>
      </trkpt>
      <trkpt lat="59.252778968464" lon="17.968985791808">
        <ele>112.4</ele>
        <time>2016-04-08T07:38:55Z</time>
      </trkpt>
      <trkpt lat="59.252863877111" lon="17.969075478138">
        <ele>111.8</ele>
        <time>2016-04-08T07:38:56Z</time>
      </trkpt>
      <trkpt lat="59.252951803242" lon="17.969170193608">
        <ele>111.2</ele>
        <time>2016-04-08T07:38:57Z</time>
      </trkpt>
      <trkpt lat="59.253041154296" lon="17.969257868282">
        <ele>110.6</ele>
        <time>2016-04-08T07:38:58Z</time>
      </trkpt>
      <trkpt lat="59.253129583341" lon="17.969366246249">
        <ele>109.6</ele>
        <time>2016-04-08T07:38:59Z</time>
      </trkpt>
      <trkpt lat="59.253223041526" lon="17.9694692598">
        <ele>108.8</ele>
        <time>2016-04-08T07:39:00Z</time>
      </trkpt>
      <trkpt lat="59.253320355385" lon="17.969572189532">
        <ele>107.8</ele>
        <time>2016-04-08T07:39:01Z</time>
      </trkpt>
      <trkpt lat="59.253416160502" lon="17.969684926087">
        <ele>107</ele>
        <time>2016-04-08T07:39:02Z</time>
      </trkpt>
      <trkpt lat="59.253521856261" lon="17.969800428669">
        <ele>106</ele>
        <time>2016-04-08T07:39:03Z</time>
      </trkpt>
      <trkpt lat="59.253620678862" lon="17.969917439993">
        <ele>105</ele>
        <time>2016-04-08T07:39:04Z</time>
      </trkpt>
      <trkpt lat="59.253713634133" lon="17.970029338358">
        <ele>104.2</ele>
        <time>2016-04-08T07:39:05Z</time>
      </trkpt>
      <trkpt lat="59.253810361259" lon="17.970131262262">
        <ele>103.2</ele>
        <time>2016-04-08T07:39:06Z</time>
      </trkpt>
      <trkpt lat="59.253902143064" lon="17.970244753188">
        <ele>102.4</ele>
        <time>2016-04-08T07:39:07Z</time>
      </trkpt>
      <trkpt lat="59.253993421955" lon="17.970346174178">
        <ele>101.6</ele>
        <time>2016-04-08T07:39:08Z</time>
      </trkpt>
      <trkpt lat="59.254087802149" lon="17.970429154988">
        <ele>100.6</ele>
        <time>2016-04-08T07:39:09Z</time>
      </trkpt>
      <trkpt lat="59.254192156804" lon="17.970502999527">
        <ele>99.8</ele>
        <time>2016-04-08T07:39:10Z</time>
      </trkpt>
      <trkpt lat="59.254285950265" lon="17.970571647288">
        <ele>99</ele>
        <time>2016-04-08T07:39:11Z</time>
      </trkpt>
      <trkpt lat="59.254383012667" lon="17.970623363611">
        <ele>99</ele>
        <time>2016-04-08T07:39:12Z</time>
      </trkpt>
      <trkpt lat="59.254768747705" lon="17.970697711064">
        <ele>99</ele>
        <time>2016-04-08T07:39:16Z</time>
      </trkpt>
      <trkpt lat="59.255233021146" lon="17.970608108553">
        <ele>99</ele>
        <time>2016-04-08T07:39:21Z</time>
      </trkpt>
      <trkpt lat="59.255480706291" lon="17.970600229567">
        <ele>99.4</ele>
        <time>2016-04-08T07:39:24Z</time>
      </trkpt>
      <trkpt lat="59.255561759264" lon="17.970625375267">
        <ele>99.8</ele>
        <time>2016-04-08T07:39:25Z</time>
      </trkpt>
      <trkpt lat="59.255637028726" lon="17.970661249799">
        <ele>100.4</ele>
        <time>2016-04-08T07:39:26Z</time>
      </trkpt>
      <trkpt lat="59.255709951256" lon="17.970705673869">
        <ele>100.8</ele>
        <time>2016-04-08T07:39:27Z</time>
      </trkpt>
      <trkpt lat="59.255778096103" lon="17.970746828998">
        <ele>101.2</ele>
        <time>2016-04-08T07:39:28Z</time>
      </trkpt>
      <trkpt lat="59.255852192099" lon="17.970781949159">
        <ele>101.6</ele>
        <time>2016-04-08T07:39:29Z</time>
      </trkpt>
      <trkpt lat="59.255921091317" lon="17.970820002985">
        <ele>102.2</ele>
        <time>2016-04-08T07:39:30Z</time>
      </trkpt>
      <trkpt lat="59.255996947512" lon="17.970858224449">
        <ele>102.6</ele>
        <time>2016-04-08T07:39:31Z</time>
      </trkpt>
      <trkpt lat="59.256065679092" lon="17.970898457569">
        <ele>103</ele>
        <time>2016-04-08T07:39:32Z</time>
      </trkpt>
      <trkpt lat="59.256132399016" lon="17.970943552191">
        <ele>103.4</ele>
        <time>2016-04-08T07:39:33Z</time>
      </trkpt>
      <trkpt lat="59.256344209629" lon="17.971028712295">
        <ele>103.4</ele>
        <time>2016-04-08T07:39:36Z</time>
      </trkpt>
      <trkpt lat="59.256486869567" lon="17.971087050319">
        <ele>104</ele>
        <time>2016-04-08T07:39:38Z</time>
      </trkpt>
      <trkpt lat="59.256552751301" lon="17.97113055238">
        <ele>104.4</ele>
        <time>2016-04-08T07:39:39Z</time>
      </trkpt>
      <trkpt lat="59.256620896148" lon="17.971184867092">
        <ele>104.8</ele>
        <time>2016-04-08T07:39:40Z</time>
      </trkpt>
      <trkpt lat="59.256685352959" lon="17.971243624211">
        <ele>105.4</ele>
        <time>2016-04-08T07:39:41Z</time>
      </trkpt>
      <trkpt lat="59.256748803942" lon="17.971297938923">
        <ele>105.8</ele>
        <time>2016-04-08T07:39:42Z</time>
      </trkpt>
      <trkpt lat="59.256812338744" lon="17.971358875336">
        <ele>105.8</ele>
        <time>2016-04-08T07:39:43Z</time>
      </trkpt>
      <trkpt lat="59.257098664448" lon="17.971722063063">
        <ele>105.8</ele>
        <time>2016-04-08T07:39:48Z</time>
      </trkpt>
      <trkpt lat="59.257146860373" lon="17.971824154605">
        <ele>105.8</ele>
        <time>2016-04-08T07:39:49Z</time>
      </trkpt>
      <trkpt lat="59.257316593848" lon="17.972139984597">
        <ele>105.8</ele>
        <time>2016-04-08T07:39:52Z</time>
      </trkpt>
      <trkpt lat="59.257509293729" lon="17.972492024397">
        <ele>105.4</ele>
        <time>2016-04-08T07:39:55Z</time>
      </trkpt>
      <trkpt lat="59.257581461888" lon="17.972618926363">
        <ele>105</ele>
        <time>2016-04-08T07:39:56Z</time>
      </trkpt>
      <trkpt lat="59.257653127133" lon="17.972736105325">
        <ele>104.6</ele>
        <time>2016-04-08T07:39:57Z</time>
      </trkpt>
      <trkpt lat="59.25773300664" lon="17.972842471636">
        <ele>104.2</ele>
        <time>2016-04-08T07:39:58Z</time>
      </trkpt>
      <trkpt lat="59.257814730165" lon="17.972940958961">
        <ele>103.6</ele>
        <time>2016-04-08T07:39:59Z</time>
      </trkpt>
      <trkpt lat="59.257897962432" lon="17.973033076042">
        <ele>103</ele>
        <time>2016-04-08T07:40:00Z</time>
      </trkpt>
      <trkpt lat="59.257988235495" lon="17.973131731005">
        <ele>102.6</ele>
        <time>2016-04-08T07:40:01Z</time>
      </trkpt>
      <trkpt lat="59.258075742531" lon="17.973209515037">
        <ele>100.8</ele>
        <time>2016-04-08T07:40:02Z</time>
      </trkpt>
      <trkpt lat="59.258163417205" lon="17.973285455051">
        <ele>100</ele>
        <time>2016-04-08T07:40:03Z</time>
      </trkpt>
      <trkpt lat="59.258252265345" lon="17.973351085328">
        <ele>99</ele>
        <time>2016-04-08T07:40:04Z</time>
      </trkpt>
      <trkpt lat="59.258342538408" lon="17.973416883243">
        <ele>98.2</ele>
        <time>2016-04-08T07:40:05Z</time>
      </trkpt>
      <trkpt lat="59.258431973281" lon="17.973479496036">
        <ele>98.2</ele>
        <time>2016-04-08T07:40:06Z</time>
      </trkpt>
      <trkpt lat="59.258957099316" lon="17.97386808092">
        <ele>98.2</ele>
        <time>2016-04-08T07:40:12Z</time>
      </trkpt>
      <trkpt lat="59.259263960675" lon="17.974208302241">
        <ele>98.6</ele>
        <time>2016-04-08T07:40:16Z</time>
      </trkpt>
      <trkpt lat="59.259335290644" lon="17.974312573077">
        <ele>99</ele>
        <time>2016-04-08T07:40:17Z</time>
      </trkpt>
      <trkpt lat="59.259397316704" lon="17.974418268836">
        <ele>99.4</ele>
        <time>2016-04-08T07:40:18Z</time>
      </trkpt>
      <trkpt lat="59.259456157642" lon="17.974529664287">
        <ele>99.8</ele>
        <time>2016-04-08T07:40:19Z</time>
      </trkpt>
      <trkpt lat="59.259509215069" lon="17.974644412498">
        <ele>100.2</ele>
        <time>2016-04-08T07:40:20Z</time>
      </trkpt>
      <trkpt lat="59.259555902252" lon="17.97475069499">
        <ele>100.2</ele>
        <time>2016-04-08T07:40:21Z</time>
      </trkpt>
      <trkpt lat="59.259667968255" lon="17.975085216619">
        <ele>100.2</ele>
        <time>2016-04-08T07:40:24Z</time>
      </trkpt>
      <trkpt lat="59.259691437575" lon="17.975205245427">
        <ele>100.2</ele>
        <time>2016-04-08T07:40:25Z</time>
      </trkpt>
      <trkpt lat="59.259743153898" lon="17.97540029224">
        <ele>100.2</ele>
        <time>2016-04-08T07:40:27Z</time>
      </trkpt>
      <trkpt lat="59.259826972898" lon="17.975468520906">
        <ele>100.2</ele>
        <time>2016-04-08T07:40:29Z</time>
      </trkpt>
      <trkpt lat="59.259913557925" lon="17.975343127682">
        <ele>100.2</ele>
        <time>2016-04-08T07:40:31Z</time>
      </trkpt>
      <trkpt lat="59.260060744089" lon="17.975117989848">
        <ele>100.2</ele>
        <time>2016-04-08T07:40:34Z</time>
      </trkpt>
      <trkpt lat="59.260111370765" lon="17.975026878595">
        <ele>100.2</ele>
        <time>2016-04-08T07:40:35Z</time>
      </trkpt>
      <trkpt lat="59.260324103387" lon="17.974657991176">
        <ele>100.2</ele>
        <time>2016-04-08T07:40:39Z</time>
      </trkpt>
      <trkpt lat="59.26038755437" lon="17.97458976251">
        <ele>100.2</ele>
        <time>2016-04-08T07:40:40Z</time>
      </trkpt>
      <trkpt lat="59.260579248423" lon="17.974220036901">
        <ele>100.2</ele>
        <time>2016-04-08T07:40:44Z</time>
      </trkpt>
      <trkpt lat="59.260625097416" lon="17.974114676418">
        <ele>100.2</ele>
        <time>2016-04-08T07:40:45Z</time>
      </trkpt>
      <trkpt lat="59.260677400472" lon="17.974022224061">
        <ele>100.2</ele>
        <time>2016-04-08T07:40:46Z</time>
      </trkpt>
      <trkpt lat="59.260831627432" lon="17.973742855334">
        <ele>100.2</ele>
        <time>2016-04-08T07:40:49Z</time>
      </trkpt>
      <trkpt lat="59.261086353373" lon="17.973280342092">
        <ele>100.2</ele>
        <time>2016-04-08T07:40:54Z</time>
      </trkpt>
      <trkpt lat="59.261149804356" lon="17.973200546404">
        <ele>100.2</ele>
        <time>2016-04-08T07:40:55Z</time>
      </trkpt>
      <trkpt lat="59.261334792889" lon="17.972957052209">
        <ele>100.6</ele>
        <time>2016-04-08T07:40:58Z</time>
      </trkpt>
      <trkpt lat="59.261396316035" lon="17.972880022548">
        <ele>101</ele>
        <time>2016-04-08T07:40:59Z</time>
      </trkpt>
      <trkpt lat="59.261453899688" lon="17.972807016199">
        <ele>101.6</ele>
        <time>2016-04-08T07:41:00Z</time>
      </trkpt>
      <trkpt lat="59.26151156716" lon="17.972732249651">
        <ele>102</ele>
        <time>2016-04-08T07:41:01Z</time>
      </trkpt>
      <trkpt lat="59.261569318451" lon="17.972647508642">
        <ele>102.4</ele>
        <time>2016-04-08T07:41:02Z</time>
      </trkpt>
      <trkpt lat="59.261958992982" lon="17.972155491112">
        <ele>102.4</ele>
        <time>2016-04-08T07:41:09Z</time>
      </trkpt>
      <trkpt lat="59.262320252872" lon="17.971672442215">
        <ele>103.2</ele>
        <time>2016-04-08T07:41:16Z</time>
      </trkpt>
      <trkpt lat="59.262375489593" lon="17.971592981803">
        <ele>103.6</ele>
        <time>2016-04-08T07:41:17Z</time>
      </trkpt>
      <trkpt lat="59.262431396866" lon="17.971525842784">
        <ele>104</ele>
        <time>2016-04-08T07:41:18Z</time>
      </trkpt>
      <trkpt lat="59.262482694094" lon="17.971460463964">
        <ele>104.4</ele>
        <time>2016-04-08T07:41:19Z</time>
      </trkpt>
      <trkpt lat="59.262638345977" lon="17.971255526509">
        <ele>104.4</ele>
        <time>2016-04-08T07:41:22Z</time>
      </trkpt>
      <trkpt lat="59.262790980376" lon="17.971064167732">
        <ele>104.8</ele>
        <time>2016-04-08T07:41:25Z</time>
      </trkpt>
      <trkpt lat="59.262841523233" lon="17.970996944894">
        <ele>105.2</ele>
        <time>2016-04-08T07:41:26Z</time>
      </trkpt>
      <trkpt lat="59.262890138253" lon="17.970932823359">
        <ele>105.6</ele>
        <time>2016-04-08T07:41:27Z</time>
      </trkpt>
      <trkpt lat="59.262944955879" lon="17.970873144231">
        <ele>106</ele>
        <time>2016-04-08T07:41:28Z</time>
      </trkpt>
      <trkpt lat="59.262995498736" lon="17.970804580289">
        <ele>106.4</ele>
        <time>2016-04-08T07:41:29Z</time>
      </trkpt>
      <trkpt lat="59.263358267368" lon="17.970334774794">
        <ele>106.4</ele>
        <time>2016-04-08T07:41:36Z</time>
      </trkpt>
      <trkpt lat="59.263836538582" lon="17.969717028764">
        <ele>106.4</ele>
        <time>2016-04-08T07:41:45Z</time>
      </trkpt>
      <trkpt lat="59.263986155497" lon="17.969557772664">
        <ele>106.4</ele>
        <time>2016-04-08T07:41:48Z</time>
      </trkpt>
      <trkpt lat="59.264078524035" lon="17.969418465486">
        <ele>106.4</ele>
        <time>2016-04-08T07:41:50Z</time>
      </trkpt>
      <trkpt lat="59.264170557297" lon="17.96913649837">
        <ele>106.4</ele>
        <time>2016-04-08T07:41:53Z</time>
      </trkpt>
      <trkpt lat="59.264210622779" lon="17.969061815641">
        <ele>106.8</ele>
        <time>2016-04-08T07:41:54Z</time>
      </trkpt>
      <trkpt lat="59.264248844243" lon="17.968990820948">
        <ele>107.2</ele>
        <time>2016-04-08T07:41:55Z</time>
      </trkpt>
      <trkpt lat="59.264291089019" lon="17.968913204554">
        <ele>107.6</ele>
        <time>2016-04-08T07:41:56Z</time>
      </trkpt>
      <trkpt lat="59.264335010175" lon="17.968850340304">
        <ele>108</ele>
        <time>2016-04-08T07:41:57Z</time>
      </trkpt>
      <trkpt lat="59.264376165304" lon="17.968792924289">
        <ele>108.4</ele>
        <time>2016-04-08T07:41:58Z</time>
      </trkpt>
      <trkpt lat="59.264414135311" lon="17.968711703678">
        <ele>108.4</ele>
        <time>2016-04-08T07:41:59Z</time>
      </trkpt>
      <trkpt lat="59.264482280158" lon="17.968431832037">
        <ele>108.4</ele>
        <time>2016-04-08T07:42:02Z</time>
      </trkpt>
      <trkpt lat="59.264572720859" lon="17.968140309555">
        <ele>109.4</ele>
        <time>2016-04-08T07:42:05Z</time>
      </trkpt>
      <trkpt lat="59.264594932894" lon="17.968033607968">
        <ele>109.8</ele>
        <time>2016-04-08T07:42:06Z</time>
      </trkpt>
      <trkpt lat="59.264617731662" lon="17.96790771183">
        <ele>110.2</ele>
        <time>2016-04-08T07:42:07Z</time>
      </trkpt>
      <trkpt lat="59.264639776059" lon="17.967795310551">
        <ele>110.6</ele>
        <time>2016-04-08T07:42:08Z</time>
      </trkpt>
      <trkpt lat="59.264674644763" lon="17.967571932916">
        <ele>110.6</ele>
        <time>2016-04-08T07:42:10Z</time>
      </trkpt>
      <trkpt lat="59.264803474566" lon="17.966872463361">
        <ele>110.6</ele>
        <time>2016-04-08T07:42:16Z</time>
      </trkpt>
      <trkpt lat="59.264957952983" lon="17.966039973053">
        <ele>110.6</ele>
        <time>2016-04-08T07:42:23Z</time>
      </trkpt>
      <trkpt lat="59.265087872433" lon="17.965539657442">
        <ele>110.6</ele>
        <time>2016-04-08T07:42:27Z</time>
      </trkpt>
      <trkpt lat="59.265137996195" lon="17.965417197883">
        <ele>110.6</ele>
        <time>2016-04-08T07:42:28Z</time>
      </trkpt>
      <trkpt lat="59.265196334219" lon="17.965292056116">
        <ele>110.2</ele>
        <time>2016-04-08T07:42:29Z</time>
      </trkpt>
      <trkpt lat="59.265255426614" lon="17.96516347777">
        <ele>109.6</ele>
        <time>2016-04-08T07:42:30Z</time>
      </trkpt>
      <trkpt lat="59.265314016095" lon="17.965027104257">
        <ele>109.2</ele>
        <time>2016-04-08T07:42:31Z</time>
      </trkpt>
      <trkpt lat="59.265378640544" lon="17.964893161495">
        <ele>108.6</ele>
        <time>2016-04-08T07:42:32Z</time>
      </trkpt>
      <trkpt lat="59.265439493138" lon="17.964741197648">
        <ele>108</ele>
        <time>2016-04-08T07:42:33Z</time>
      </trkpt>
      <trkpt lat="59.265507051252" lon="17.964595352588">
        <ele>107.4</ele>
        <time>2016-04-08T07:42:34Z</time>
      </trkpt>
      <trkpt lat="59.265574190271" lon="17.964447495872">
        <ele>106.8</ele>
        <time>2016-04-08T07:42:35Z</time>
      </trkpt>
      <trkpt lat="59.265644933507" lon="17.964302740459">
        <ele>106</ele>
        <time>2016-04-08T07:42:36Z</time>
      </trkpt>
      <trkpt lat="59.265716179657" lon="17.964156727761">
        <ele>105.4</ele>
        <time>2016-04-08T07:42:37Z</time>
      </trkpt>
      <trkpt lat="59.26579304168" lon="17.96400677557">
        <ele>104.6</ele>
        <time>2016-04-08T07:42:38Z</time>
      </trkpt>
      <trkpt lat="59.265863533459" lon="17.963861852519">
        <ele>104</ele>
        <time>2016-04-08T07:42:39Z</time>
      </trkpt>
      <trkpt lat="59.265923547863" lon="17.963710475405">
        <ele>103.4</ele>
        <time>2016-04-08T07:42:40Z</time>
      </trkpt>
      <trkpt lat="59.265977192023" lon="17.963556751359">
        <ele>102.8</ele>
        <time>2016-04-08T07:42:41Z</time>
      </trkpt>
      <trkpt lat="59.266027651061" lon="17.963396321793">
        <ele>102.4</ele>
        <time>2016-04-08T07:42:42Z</time>
      </trkpt>
      <trkpt lat="59.266078948289" lon="17.963234634942">
        <ele>101.8</ele>
        <time>2016-04-08T07:42:43Z</time>
      </trkpt>
      <trkpt lat="59.26613083225" lon="17.963076803765">
        <ele>101.2</ele>
        <time>2016-04-08T07:42:44Z</time>
      </trkpt>
      <trkpt lat="59.266438196523" lon="17.962169798366">
        <ele>101.2</ele>
        <time>2016-04-08T07:42:50Z</time>
      </trkpt>
      <trkpt lat="59.266534672192" lon="17.961885149042">
        <ele>101.2</ele>
        <time>2016-04-08T07:42:52Z</time>
      </trkpt>
      <trkpt lat="59.266879000644" lon="17.960900778706">
        <ele>101.2</ele>
        <time>2016-04-08T07:42:59Z</time>
      </trkpt>
      <trkpt lat="59.266920742506" lon="17.960771445989">
        <ele>101.2</ele>
        <time>2016-04-08T07:43:00Z</time>
      </trkpt>
      <trkpt lat="59.267189047125" lon="17.959938536586">
        <ele>101.2</ele>
        <time>2016-04-08T07:43:06Z</time>
      </trkpt>
      <trkpt lat="59.267317876928" lon="17.959513574256">
        <ele>101.2</ele>
        <time>2016-04-08T07:43:09Z</time>
      </trkpt>
      <trkpt lat="59.267363055369" lon="17.959377368381">
        <ele>101.2</ele>
        <time>2016-04-08T07:43:10Z</time>
      </trkpt>
      <trkpt lat="59.267639322793" lon="17.95876054436">
        <ele>101.2</ele>
        <time>2016-04-08T07:43:15Z</time>
      </trkpt>
      <trkpt lat="59.267975017888" lon="17.958235418325">
        <ele>101.2</ele>
        <time>2016-04-08T07:43:20Z</time>
      </trkpt>
      <trkpt lat="59.26820367612" lon="17.957977507262">
        <ele>100.8</ele>
        <time>2016-04-08T07:43:23Z</time>
      </trkpt>
      <trkpt lat="59.268280621962" lon="17.957895616099">
        <ele>100.4</ele>
        <time>2016-04-08T07:43:24Z</time>
      </trkpt>
      <trkpt lat="59.268359328003" lon="17.957818083524">
        <ele>100</ele>
        <time>2016-04-08T07:43:25Z</time>
      </trkpt>
      <trkpt lat="59.268439961881" lon="17.957732839601">
        <ele>99.6</ele>
        <time>2016-04-08T07:43:26Z</time>
      </trkpt>
      <trkpt lat="59.268511794764" lon="17.95764826623">
        <ele>99.2</ele>
        <time>2016-04-08T07:43:27Z</time>
      </trkpt>
      <trkpt lat="59.268834497914" lon="17.957236966397">
        <ele>99.2</ele>
        <time>2016-04-08T07:43:32Z</time>
      </trkpt>
      <trkpt lat="59.269143119472" lon="17.95692407007">
        <ele>99.6</ele>
        <time>2016-04-08T07:43:37Z</time>
      </trkpt>
      <trkpt lat="59.269204391161" lon="17.956852907739">
        <ele>100</ele>
        <time>2016-04-08T07:43:38Z</time>
      </trkpt>
      <trkpt lat="59.269257783864" lon="17.956770513662">
        <ele>100.4</ele>
        <time>2016-04-08T07:43:39Z</time>
      </trkpt>
      <trkpt lat="59.269318971734" lon="17.956705134842">
        <ele>100.8</ele>
        <time>2016-04-08T07:43:40Z</time>
      </trkpt>
      <trkpt lat="59.269380327242" lon="17.95663740909">
        <ele>101.2</ele>
        <time>2016-04-08T07:43:41Z</time>
      </trkpt>
      <trkpt lat="59.269633209165" lon="17.956392825248">
        <ele>101.2</ele>
        <time>2016-04-08T07:43:45Z</time>
      </trkpt>
      <trkpt lat="59.270163951073" lon="17.955892006723">
        <ele>101.2</ele>
        <time>2016-04-08T07:43:53Z</time>
      </trkpt>
      <trkpt lat="59.270229162255" lon="17.955820676754">
        <ele>101.2</ele>
        <time>2016-04-08T07:43:54Z</time>
      </trkpt>
      <trkpt lat="59.270721934156" lon="17.955345674481">
        <ele>101.2</ele>
        <time>2016-04-08T07:44:01Z</time>
      </trkpt>
      <trkpt lat="59.27121864555" lon="17.954881149583">
        <ele>101.2</ele>
        <time>2016-04-08T07:44:08Z</time>
      </trkpt>
      <trkpt lat="59.271283269999" lon="17.954804958112">
        <ele>101.2</ele>
        <time>2016-04-08T07:44:09Z</time>
      </trkpt>
      <trkpt lat="59.271574373386" lon="17.954332638047">
        <ele>101.2</ele>
        <time>2016-04-08T07:44:14Z</time>
      </trkpt>
      <trkpt lat="59.271767743819" lon="17.953885547501">
        <ele>101.2</ele>
        <time>2016-04-08T07:44:18Z</time>
      </trkpt>
      <trkpt lat="59.272064798355" lon="17.953221198107">
        <ele>101.2</ele>
        <time>2016-04-08T07:44:24Z</time>
      </trkpt>
      <trkpt lat="59.272363696909" lon="17.952568331916">
        <ele>101.2</ele>
        <time>2016-04-08T07:44:30Z</time>
      </trkpt>
      <trkpt lat="59.272521360448" lon="17.952289633741">
        <ele>101.2</ele>
        <time>2016-04-08T07:44:33Z</time>
      </trkpt>
      <trkpt lat="59.272641389256" lon="17.952154936608">
        <ele>101.2</ele>
        <time>2016-04-08T07:44:35Z</time>
      </trkpt>
      <trkpt lat="59.273069955803" lon="17.951833323105">
        <ele>101.2</ele>
        <time>2016-04-08T07:44:41Z</time>
      </trkpt>
      <trkpt lat="59.273361143009" lon="17.951571807825">
        <ele>101.2</ele>
        <time>2016-04-08T07:44:45Z</time>
      </trkpt>
      <trkpt lat="59.273420151585" lon="17.951464854781">
        <ele>101.2</ele>
        <time>2016-04-08T07:44:46Z</time>
      </trkpt>
      <trkpt lat="59.273836396739" lon="17.950880384894">
        <ele>101.2</ele>
        <time>2016-04-08T07:44:52Z</time>
      </trkpt>
      <trkpt lat="59.274315087048" lon="17.950205725763">
        <ele>101.2</ele>
        <time>2016-04-08T07:44:59Z</time>
      </trkpt>
      <trkpt lat="59.274463446678" lon="17.950014786081">
        <ele>101.2</ele>
        <time>2016-04-08T07:45:01Z</time>
      </trkpt>
      <trkpt lat="59.274878518366" lon="17.949429226547">
        <ele>101.2</ele>
        <time>2016-04-08T07:45:07Z</time>
      </trkpt>
      <trkpt lat="59.275255536228" lon="17.948758758366">
        <ele>101.2</ele>
        <time>2016-04-08T07:45:13Z</time>
      </trkpt>
      <trkpt lat="59.275584693441" lon="17.947974296345">
        <ele>101.2</ele>
        <time>2016-04-08T07:45:19Z</time>
      </trkpt>
      <trkpt lat="59.275952994127" lon="17.947082378366">
        <ele>101.2</ele>
        <time>2016-04-08T07:45:26Z</time>
      </trkpt>
      <trkpt lat="59.276335208767" lon="17.94621870739">
        <ele>101.2</ele>
        <time>2016-04-08T07:45:33Z</time>
      </trkpt>
      <trkpt lat="59.276696384838" lon="17.945534325255">
        <ele>101.2</ele>
        <time>2016-04-08T07:45:39Z</time>
      </trkpt>
      <trkpt lat="59.277153617483" lon="17.944796047503">
        <ele>101.2</ele>
        <time>2016-04-08T07:45:46Z</time>
      </trkpt>
      <trkpt lat="59.277291918833" lon="17.944598318482">
        <ele>101.2</ele>
        <time>2016-04-08T07:45:48Z</time>
      </trkpt>
      <trkpt lat="59.277740015207" lon="17.944112503558">
        <ele>101.2</ele>
        <time>2016-04-08T07:45:54Z</time>
      </trkpt>
      <trkpt lat="59.2782468687" lon="17.943740263379">
        <ele>101.2</ele>
        <time>2016-04-08T07:46:01Z</time>
      </trkpt>
      <trkpt lat="59.278723379715" lon="17.943404735922">
        <ele>101.6</ele>
        <time>2016-04-08T07:46:08Z</time>
      </trkpt>
      <trkpt lat="59.27879001582" lon="17.943361652956">
        <ele>102</ele>
        <time>2016-04-08T07:46:09Z</time>
      </trkpt>
      <trkpt lat="59.278853969717" lon="17.943324185863">
        <ele>102.4</ele>
        <time>2016-04-08T07:46:10Z</time>
      </trkpt>
      <trkpt lat="59.27891658251" lon="17.943289987711">
        <ele>102.8</ele>
        <time>2016-04-08T07:46:11Z</time>
      </trkpt>
      <trkpt lat="59.278980033493" lon="17.943246569469">
        <ele>103.2</ele>
        <time>2016-04-08T07:46:12Z</time>
      </trkpt>
      <trkpt lat="59.279159070877" lon="17.943132910905">
        <ele>103.2</ele>
        <time>2016-04-08T07:46:15Z</time>
      </trkpt>
      <trkpt lat="59.279463417666" lon="17.942976504651">
        <ele>103.2</ele>
        <time>2016-04-08T07:46:20Z</time>
      </trkpt>
      <trkpt lat="59.279594510582" lon="17.943099886219">
        <ele>103.2</ele>
        <time>2016-04-08T07:46:21Z</time>
      </trkpt>
      <trkpt lat="59.279647819466" lon="17.943177502613">
        <ele>103.2</ele>
        <time>2016-04-08T07:46:23Z</time>
      </trkpt>
      <trkpt lat="59.279758544365" lon="17.94346106229">
        <ele>103.2</ele>
        <time>2016-04-08T07:46:26Z</time>
      </trkpt>
      <trkpt lat="59.279789054481" lon="17.943559633434">
        <ele>103.2</ele>
        <time>2016-04-08T07:46:27Z</time>
      </trkpt>
      <trkpt lat="59.279820067511" lon="17.9436530078">
        <ele>103.6</ele>
        <time>2016-04-08T07:46:28Z</time>
      </trkpt>
      <trkpt lat="59.27985032617" lon="17.943745543976">
        <ele>104</ele>
        <time>2016-04-08T07:46:29Z</time>
      </trkpt>
      <trkpt lat="59.279877399707" lon="17.943835481763">
        <ele>104.4</ele>
        <time>2016-04-08T07:46:30Z</time>
      </trkpt>
      <trkpt lat="59.279898354457" lon="17.943924329903">
        <ele>104.8</ele>
        <time>2016-04-08T07:46:31Z</time>
      </trkpt>
      <trkpt lat="59.279922745786" lon="17.944007143075">
        <ele>105.2</ele>
        <time>2016-04-08T07:46:32Z</time>
      </trkpt>
      <trkpt lat="59.279947388572" lon="17.944085262383">
        <ele>105.2</ele>
        <time>2016-04-08T07:46:33Z</time>
      </trkpt>
      <trkpt lat="59.280012767392" lon="17.944319536488">
        <ele>106.2</ele>
        <time>2016-04-08T07:46:36Z</time>
      </trkpt>
      <trkpt lat="59.280048222829" lon="17.944384160937">
        <ele>106.6</ele>
        <time>2016-04-08T07:46:37Z</time>
      </trkpt>
      <trkpt lat="59.280071105416" lon="17.944458759847">
        <ele>107</ele>
        <time>2016-04-08T07:46:38Z</time>
      </trkpt>
      <trkpt lat="59.280089629415" lon="17.944534532223">
        <ele>107.4</ele>
        <time>2016-04-08T07:46:39Z</time>
      </trkpt>
      <trkpt lat="59.28012189973" lon="17.944684652052">
        <ele>107.8</ele>
        <time>2016-04-08T07:46:41Z</time>
      </trkpt>
      <trkpt lat="59.280133969666" lon="17.944750449967">
        <ele>108.2</ele>
        <time>2016-04-08T07:46:42Z</time>
      </trkpt>
      <trkpt lat="59.280153834769" lon="17.944828485456">
        <ele>108.6</ele>
        <time>2016-04-08T07:46:43Z</time>
      </trkpt>
      <trkpt lat="59.280184093428" lon="17.94490945461">
        <ele>109</ele>
        <time>2016-04-08T07:46:44Z</time>
      </trkpt>
      <trkpt lat="59.280215441734" lon="17.944982712416">
        <ele>109.4</ele>
        <time>2016-04-08T07:46:45Z</time>
      </trkpt>
      <trkpt lat="59.280400514086" lon="17.9455305534">
        <ele>109.4</ele>
        <time>2016-04-08T07:46:51Z</time>
      </trkpt>
      <trkpt lat="59.280575863434" lon="17.946132541458">
        <ele>109.4</ele>
        <time>2016-04-08T07:46:56Z</time>
      </trkpt>
      <trkpt lat="59.280612408518" lon="17.946267657686">
        <ele>109</ele>
        <time>2016-04-08T07:46:57Z</time>
      </trkpt>
      <trkpt lat="59.280643673005" lon="17.946402354819">
        <ele>108.4</ele>
        <time>2016-04-08T07:46:58Z</time>
      </trkpt>
      <trkpt lat="59.2806776197" lon="17.946552558467">
        <ele>108</ele>
        <time>2016-04-08T07:46:59Z</time>
      </trkpt>
      <trkpt lat="59.280701005201" lon="17.946699576993">
        <ele>107.2</ele>
        <time>2016-04-08T07:47:00Z</time>
      </trkpt>
      <trkpt lat="59.280724390702" lon="17.946850283555">
        <ele>106</ele>
        <time>2016-04-08T07:47:01Z</time>
      </trkpt>
      <trkpt lat="59.280743082339" lon="17.947009455836">
        <ele>105.4</ele>
        <time>2016-04-08T07:47:02Z</time>
      </trkpt>
      <trkpt lat="59.280751548058" lon="17.947174076352">
        <ele>104.8</ele>
        <time>2016-04-08T07:47:03Z</time>
      </trkpt>
      <trkpt lat="59.28075054223" lon="17.94751371094">
        <ele>104.8</ele>
        <time>2016-04-08T07:47:05Z</time>
      </trkpt>
      <trkpt lat="59.280743082339" lon="17.947703309518">
        <ele>104.2</ele>
        <time>2016-04-08T07:47:06Z</time>
      </trkpt>
      <trkpt lat="59.280732353507" lon="17.947881257255">
        <ele>103.8</ele>
        <time>2016-04-08T07:47:07Z</time>
      </trkpt>
      <trkpt lat="59.280718439553" lon="17.948053756757">
        <ele>103.4</ele>
        <time>2016-04-08T07:47:08Z</time>
      </trkpt>
      <trkpt lat="59.280706201979" lon="17.948229776657">
        <ele>103</ele>
        <time>2016-04-08T07:47:09Z</time>
      </trkpt>
      <trkpt lat="59.280692623301" lon="17.948397582295">
        <ele>102.6</ele>
        <time>2016-04-08T07:47:10Z</time>
      </trkpt>
      <trkpt lat="59.28068264884" lon="17.948568573055">
        <ele>102.6</ele>
        <time>2016-04-08T07:47:11Z</time>
      </trkpt>
      <trkpt lat="59.280662448461" lon="17.948901669761">
        <ele>102.2</ele>
        <time>2016-04-08T07:47:13Z</time>
      </trkpt>
      <trkpt lat="59.280651049077" lon="17.949077522023">
        <ele>101.8</ele>
        <time>2016-04-08T07:47:14Z</time>
      </trkpt>
      <trkpt lat="59.280634369096" lon="17.949248093688">
        <ele>101.4</ele>
        <time>2016-04-08T07:47:15Z</time>
      </trkpt>
      <trkpt lat="59.280618275848" lon="17.949406008684">
        <ele>101</ele>
        <time>2016-04-08T07:47:16Z</time>
      </trkpt>
      <trkpt lat="59.280599835668" lon="17.949560403282">
        <ele>100.6</ele>
        <time>2016-04-08T07:47:17Z</time>
      </trkpt>
      <trkpt lat="59.280581563126" lon="17.949712031853">
        <ele>100.6</ele>
        <time>2016-04-08T07:47:18Z</time>
      </trkpt>
      <trkpt lat="59.28051165808" lon="17.950513760588">
        <ele>100.6</ele>
        <time>2016-04-08T07:47:24Z</time>
      </trkpt>
      <trkpt lat="59.280501515981" lon="17.950628592618">
        <ele>101.4</ele>
        <time>2016-04-08T07:47:25Z</time>
      </trkpt>
      <trkpt lat="59.280489278407" lon="17.950738730784">
        <ele>101.8</ele>
        <time>2016-04-08T07:47:26Z</time>
      </trkpt>
      <trkpt lat="59.280478214299" lon="17.950845180914">
        <ele>102.4</ele>
        <time>2016-04-08T07:47:27Z</time>
      </trkpt>
      <trkpt lat="59.280464551802" lon="17.950955486718">
        <ele>102.8</ele>
        <time>2016-04-08T07:47:28Z</time>
      </trkpt>
      <trkpt lat="59.28045801392" lon="17.951057242984">
        <ele>103.4</ele>
        <time>2016-04-08T07:47:29Z</time>
      </trkpt>
      <trkpt lat="59.280444854337" lon="17.951153886291">
        <ele>104</ele>
        <time>2016-04-08T07:47:30Z</time>
      </trkpt>
      <trkpt lat="59.280431694754" lon="17.951244410811">
        <ele>104.6</ele>
        <time>2016-04-08T07:47:31Z</time>
      </trkpt>
      <trkpt lat="59.280426078881" lon="17.951335102969">
        <ele>105.2</ele>
        <time>2016-04-08T07:47:32Z</time>
      </trkpt>
      <trkpt lat="59.28041107528" lon="17.951505506996">
        <ele>105.6</ele>
        <time>2016-04-08T07:47:34Z</time>
      </trkpt>
      <trkpt lat="59.280395484946" lon="17.951582452838">
        <ele>106</ele>
        <time>2016-04-08T07:47:35Z</time>
      </trkpt>
      <trkpt lat="59.280393724747" lon="17.951674737557">
        <ele>106.6</ele>
        <time>2016-04-08T07:47:36Z</time>
      </trkpt>
      <trkpt lat="59.28039179691" lon="17.951765513534">
        <ele>107</ele>
        <time>2016-04-08T07:47:37Z</time>
      </trkpt>
      <trkpt lat="59.280392048367" lon="17.951860899556">
        <ele>107.4</ele>
        <time>2016-04-08T07:47:38Z</time>
      </trkpt>
      <trkpt lat="59.280398837706" lon="17.951955112112">
        <ele>107.4</ele>
        <time>2016-04-08T07:47:39Z</time>
      </trkpt>
      <trkpt lat="59.280412081108" lon="17.952132640754">
        <ele>107.8</ele>
        <time>2016-04-08T07:47:41Z</time>
      </trkpt>
      <trkpt lat="59.280426078881" lon="17.952225428387">
        <ele>108.4</ele>
        <time>2016-04-08T07:47:42Z</time>
      </trkpt>
      <trkpt lat="59.280442423586" lon="17.95231402507">
        <ele>108.8</ele>
        <time>2016-04-08T07:47:43Z</time>
      </trkpt>
      <trkpt lat="59.280465138535" lon="17.9524037114">
        <ele>109.2</ele>
        <time>2016-04-08T07:47:44Z</time>
      </trkpt>
      <trkpt lat="59.280481734697" lon="17.952493230092">
        <ele>109.6</ele>
        <time>2016-04-08T07:47:45Z</time>
      </trkpt>
      <trkpt lat="59.280535546495" lon="17.952681403747">
        <ele>110</ele>
        <time>2016-04-08T07:47:47Z</time>
      </trkpt>
      <trkpt lat="59.280560692195" lon="17.952770335706">
        <ele>110.4</ele>
        <time>2016-04-08T07:47:48Z</time>
      </trkpt>
      <trkpt lat="59.280590531759" lon="17.952854154706">
        <ele>111</ele>
        <time>2016-04-08T07:47:49Z</time>
      </trkpt>
      <trkpt lat="59.280624729911" lon="17.952945433597">
        <ele>111.8</ele>
        <time>2016-04-08T07:47:50Z</time>
      </trkpt>
      <trkpt lat="59.280725647987" lon="17.95319831552">
        <ele>111.8</ele>
        <time>2016-04-08T07:47:53Z</time>
      </trkpt>
      <trkpt lat="59.280995042253" lon="17.953857551955">
        <ele>111.8</ele>
        <time>2016-04-08T07:48:00Z</time>
      </trkpt>
      <trkpt lat="59.281296287739" lon="17.954553165836">
        <ele>111.8</ele>
        <time>2016-04-08T07:48:07Z</time>
      </trkpt>
      <trkpt lat="59.281603652012" lon="17.955286665905">
        <ele>111.8</ele>
        <time>2016-04-08T07:48:14Z</time>
      </trkpt>
      <trkpt lat="59.281859383781" lon="17.956064170949">
        <ele>111.8</ele>
        <time>2016-04-08T07:48:21Z</time>
      </trkpt>
      <trkpt lat="59.282076894086" lon="17.956602959481">
        <ele>111.8</ele>
        <time>2016-04-08T07:48:26Z</time>
      </trkpt>
      <trkpt lat="59.282140931802" lon="17.956687532852">
        <ele>111.8</ele>
        <time>2016-04-08T07:48:27Z</time>
      </trkpt>
      <trkpt lat="59.282441842012" lon="17.956922980423">
        <ele>111.4</ele>
        <time>2016-04-08T07:48:31Z</time>
      </trkpt>
      <trkpt lat="59.282528929953" lon="17.956938906033">
        <ele>110.8</ele>
        <time>2016-04-08T07:48:32Z</time>
      </trkpt>
      <trkpt lat="59.282622136681" lon="17.956933793074">
        <ele>110.4</ele>
        <time>2016-04-08T07:48:33Z</time>
      </trkpt>
      <trkpt lat="59.282716852151" lon="17.956933122522">
        <ele>109.8</ele>
        <time>2016-04-08T07:48:34Z</time>
      </trkpt>
      <trkpt lat="59.282811483802" lon="17.956924740622">
        <ele>109.2</ele>
        <time>2016-04-08T07:48:35Z</time>
      </trkpt>
      <trkpt lat="59.282910222584" lon="17.956922980423">
        <ele>108.6</ele>
        <time>2016-04-08T07:48:36Z</time>
      </trkpt>
      <trkpt lat="59.283002004389" lon="17.95693999568">
        <ele>107.8</ele>
        <time>2016-04-08T07:48:37Z</time>
      </trkpt>
      <trkpt lat="59.283092361271" lon="17.956986599044">
        <ele>107.2</ele>
        <time>2016-04-08T07:48:38Z</time>
      </trkpt>
      <trkpt lat="59.283158494462" lon="17.957061784687">
        <ele>106.4</ele>
        <time>2016-04-08T07:48:39Z</time>
      </trkpt>
      <trkpt lat="59.283215994296" lon="17.95713697033">
        <ele>104.8</ele>
        <time>2016-04-08T07:48:40Z</time>
      </trkpt>
      <trkpt lat="59.283268213533" lon="17.957184495703">
        <ele>104</ele>
        <time>2016-04-08T07:48:41Z</time>
      </trkpt>
      <trkpt lat="59.283303082237" lon="17.957240570614">
        <ele>104</ele>
        <time>2016-04-08T07:48:42Z</time>
      </trkpt>
      <trkpt lat="59.283740198322" lon="17.957825375777">
        <ele>104</ele>
        <time>2016-04-08T07:49:04Z</time>
      </trkpt>
      <trkpt lat="59.283884283183" lon="17.958044394824">
        <ele>104</ele>
        <time>2016-04-08T07:49:07Z</time>
      </trkpt>
      <trkpt lat="59.283930215995" lon="17.958107091436">
        <ele>104</ele>
        <time>2016-04-08T07:49:08Z</time>
      </trkpt>
      <trkpt lat="59.283975813531" lon="17.958196610128">
        <ele>104</ele>
        <time>2016-04-08T07:49:09Z</time>
      </trkpt>
      <trkpt lat="59.284143116255" lon="17.958482600556">
        <ele>104</ele>
        <time>2016-04-08T07:49:13Z</time>
      </trkpt>
      <trkpt lat="59.284219726821" lon="17.958637749525">
        <ele>104.4</ele>
        <time>2016-04-08T07:49:15Z</time>
      </trkpt>
      <trkpt lat="59.284257193914" lon="17.958708492761">
        <ele>104.8</ele>
        <time>2016-04-08T07:49:16Z</time>
      </trkpt>
      <trkpt lat="59.284295583016" lon="17.958774709771">
        <ele>105.2</ele>
        <time>2016-04-08T07:49:17Z</time>
      </trkpt>
      <trkpt lat="59.284346461149" lon="17.958839250401">
        <ele>105.6</ele>
        <time>2016-04-08T07:49:18Z</time>
      </trkpt>
      <trkpt lat="59.284398009834" lon="17.958904796859">
        <ele>106</ele>
        <time>2016-04-08T07:49:19Z</time>
      </trkpt>
      <trkpt lat="59.284440422248" lon="17.958970762412">
        <ele>106.4</ele>
        <time>2016-04-08T07:49:20Z</time>
      </trkpt>
      <trkpt lat="59.284481828834" lon="17.959040164544">
        <ele>106.8</ele>
        <time>2016-04-08T07:49:21Z</time>
      </trkpt>
      <trkpt lat="59.284523570696" lon="17.959122307164">
        <ele>107.2</ele>
        <time>2016-04-08T07:49:22Z</time>
      </trkpt>
      <trkpt lat="59.284536562641" lon="17.959204868879">
        <ele>107.6</ele>
        <time>2016-04-08T07:49:23Z</time>
      </trkpt>
      <trkpt lat="59.284560786332" lon="17.959283239644">
        <ele>108</ele>
        <time>2016-04-08T07:49:24Z</time>
      </trkpt>
      <trkpt lat="59.28458190872" lon="17.95941014161">
        <ele>108</ele>
        <time>2016-04-08T07:49:25Z</time>
      </trkpt>
      <trkpt lat="59.284696405474" lon="17.960009112184">
        <ele>108.4</ele>
        <time>2016-04-08T07:49:30Z</time>
      </trkpt>
      <trkpt lat="59.284720545346" lon="17.960120423816">
        <ele>108.8</ele>
        <time>2016-04-08T07:49:31Z</time>
      </trkpt>
      <trkpt lat="59.284740829544" lon="17.960231232534">
        <ele>109.4</ele>
        <time>2016-04-08T07:49:32Z</time>
      </trkpt>
      <trkpt lat="59.284757677163" lon="17.960344472003">
        <ele>109.8</ele>
        <time>2016-04-08T07:49:33Z</time>
      </trkpt>
      <trkpt lat="59.284786007985" lon="17.960479085317">
        <ele>110.2</ele>
        <time>2016-04-08T07:49:34Z</time>
      </trkpt>
      <trkpt lat="59.284865971311" lon="17.960819725733">
        <ele>110.2</ele>
        <time>2016-04-08T07:49:37Z</time>
      </trkpt>
      <trkpt lat="59.284992957096" lon="17.961537048735">
        <ele>110.2</ele>
        <time>2016-04-08T07:49:43Z</time>
      </trkpt>
      <trkpt lat="59.285053306776" lon="17.962001489814">
        <ele>110.2</ele>
        <time>2016-04-08T07:49:47Z</time>
      </trkpt>
      <trkpt lat="59.285100832149" lon="17.962099809501">
        <ele>110.2</ele>
        <time>2016-04-08T07:49:48Z</time>
      </trkpt>
      <trkpt lat="59.285306272518" lon="17.962234758091">
        <ele>110.2</ele>
        <time>2016-04-08T07:49:51Z</time>
      </trkpt>
      <trkpt lat="59.285368801492" lon="17.962286474414">
        <ele>110.2</ele>
        <time>2016-04-08T07:49:52Z</time>
      </trkpt>
      <trkpt lat="59.285429234991" lon="17.962355876546">
        <ele>110.2</ele>
        <time>2016-04-08T07:49:53Z</time>
      </trkpt>
      <trkpt lat="59.285604249063" lon="17.962577158706">
        <ele>110.2</ele>
        <time>2016-04-08T07:49:56Z</time>
      </trkpt>
      <trkpt lat="59.285982272753" lon="17.963056854843">
        <ele>110.2</ele>
        <time>2016-04-08T07:50:02Z</time>
      </trkpt>
      <trkpt lat="59.286335653657" lon="17.96357007858">
        <ele>110.2</ele>
        <time>2016-04-08T07:50:08Z</time>
      </trkpt>
      <trkpt lat="59.28638820817" lon="17.96366563224">
        <ele>110.2</ele>
        <time>2016-04-08T07:50:09Z</time>
      </trkpt>
      <trkpt lat="59.286485605848" lon="17.96385087223">
        <ele>110.2</ele>
        <time>2016-04-08T07:50:11Z</time>
      </trkpt>
      <trkpt lat="59.286678892462" lon="17.9638952963">
        <ele>110.2</ele>
        <time>2016-04-08T07:50:13Z</time>
      </trkpt>
      <trkpt lat="59.286785426411" lon="17.963881382346">
        <ele>109.6</ele>
        <time>2016-04-08T07:50:14Z</time>
      </trkpt>
      <trkpt lat="59.286901431907" lon="17.963848692936">
        <ele>109.2</ele>
        <time>2016-04-08T07:50:15Z</time>
      </trkpt>
      <trkpt lat="59.287003104354" lon="17.963814327146">
        <ele>108.8</ele>
        <time>2016-04-08T07:50:16Z</time>
      </trkpt>
      <trkpt lat="59.287106117905" lon="17.963776692415">
        <ele>108.2</ele>
        <time>2016-04-08T07:50:17Z</time>
      </trkpt>
      <trkpt lat="59.287198402624" lon="17.963747942498">
        <ele>107.8</ele>
        <time>2016-04-08T07:50:18Z</time>
      </trkpt>
      <trkpt lat="59.28729764432" lon="17.963710391586">
        <ele>107.4</ele>
        <time>2016-04-08T07:50:19Z</time>
      </trkpt>
      <trkpt lat="59.287403926812" lon="17.963660938376">
        <ele>107</ele>
        <time>2016-04-08T07:50:20Z</time>
      </trkpt>
      <trkpt lat="59.287499061377" lon="17.963631685545">
        <ele>106.6</ele>
        <time>2016-04-08T07:50:21Z</time>
      </trkpt>
      <trkpt lat="59.287593357752" lon="17.963605114922">
        <ele>106.2</ele>
        <time>2016-04-08T07:50:22Z</time>
      </trkpt>
      <trkpt lat="59.287685307195" lon="17.963576951738">
        <ele>105.8</ele>
        <time>2016-04-08T07:50:23Z</time>
      </trkpt>
      <trkpt lat="59.287870714823" lon="17.963516182963">
        <ele>105.8</ele>
        <time>2016-04-08T07:50:25Z</time>
      </trkpt>
      <trkpt lat="59.288151424654" lon="17.963453234894">
        <ele>105.8</ele>
        <time>2016-04-08T07:50:28Z</time>
      </trkpt>
      <trkpt lat="59.288247229771" lon="17.963480224612">
        <ele>105.8</ele>
        <time>2016-04-08T07:50:29Z</time>
      </trkpt>
      <trkpt lat="59.28843339177" lon="17.963626656405">
        <ele>105.2</ele>
        <time>2016-04-08T07:50:31Z</time>
      </trkpt>
      <trkpt lat="59.28851218163" lon="17.963748948326">
        <ele>104.8</ele>
        <time>2016-04-08T07:50:32Z</time>
      </trkpt>
      <trkpt lat="59.28857420769" lon="17.963900744535">
        <ele>104.4</ele>
        <time>2016-04-08T07:50:33Z</time>
      </trkpt>
      <trkpt lat="59.288625924013" lon="17.964064107766">
        <ele>104</ele>
        <time>2016-04-08T07:50:34Z</time>
      </trkpt>
      <trkpt lat="59.288661798545" lon="17.964254795991">
        <ele>103.6</ele>
        <time>2016-04-08T07:50:35Z</time>
      </trkpt>
      <trkpt lat="59.288687782435" lon="17.964642375047">
        <ele>103.6</ele>
        <time>2016-04-08T07:50:37Z</time>
      </trkpt>
      <trkpt lat="59.288676550689" lon="17.965015872511">
        <ele>103.6</ele>
        <time>2016-04-08T07:50:39Z</time>
      </trkpt>
      <trkpt lat="59.288660373622" lon="17.965410492363">
        <ele>103</ele>
        <time>2016-04-08T07:50:41Z</time>
      </trkpt>
      <trkpt lat="59.288653751921" lon="17.965601599683">
        <ele>102.6</ele>
        <time>2016-04-08T07:50:42Z</time>
      </trkpt>
      <trkpt lat="59.288647046401" lon="17.965796227401">
        <ele>102.2</ele>
        <time>2016-04-08T07:50:43Z</time>
      </trkpt>
      <trkpt lat="59.288643861279" lon="17.965990855119">
        <ele>101.2</ele>
        <time>2016-04-08T07:50:44Z</time>
      </trkpt>
      <trkpt lat="59.288622738891" lon="17.967169434078">
        <ele>101.2</ele>
        <time>2016-04-08T07:50:50Z</time>
      </trkpt>
      <trkpt lat="59.288589211291" lon="17.96828070638">
        <ele>101.2</ele>
        <time>2016-04-08T07:50:56Z</time>
      </trkpt>
      <trkpt lat="59.288584852703" lon="17.968645402849">
        <ele>101.2</ele>
        <time>2016-04-08T07:50:58Z</time>
      </trkpt>
      <trkpt lat="59.288563730315" lon="17.969858347598">
        <ele>101.2</ele>
        <time>2016-04-08T07:51:05Z</time>
      </trkpt>
      <trkpt lat="59.288562808306" lon="17.970036295335">
        <ele>101.2</ele>
        <time>2016-04-08T07:51:06Z</time>
      </trkpt>
      <trkpt lat="59.288544787221" lon="17.971271033024">
        <ele>101.2</ele>
        <time>2016-04-08T07:51:13Z</time>
      </trkpt>
      <trkpt lat="59.288523664833" lon="17.972210057281">
        <ele>100.8</ele>
        <time>2016-04-08T07:51:18Z</time>
      </trkpt>
      <trkpt lat="59.288517881322" lon="17.972399907316">
        <ele>100.4</ele>
        <time>2016-04-08T07:51:19Z</time>
      </trkpt>
      <trkpt lat="59.288516624037" lon="17.972600570002">
        <ele>100</ele>
        <time>2016-04-08T07:51:20Z</time>
      </trkpt>
      <trkpt lat="59.2885146962" lon="17.972786396725">
        <ele>99.4</ele>
        <time>2016-04-08T07:51:21Z</time>
      </trkpt>
      <trkpt lat="59.288513522734" lon="17.972972307267">
        <ele>99</ele>
        <time>2016-04-08T07:51:22Z</time>
      </trkpt>
      <trkpt lat="59.288497010391" lon="17.974045190467">
        <ele>99</ele>
        <time>2016-04-08T07:51:28Z</time>
      </trkpt>
      <trkpt lat="59.288490053414" lon="17.974396392077">
        <ele>99</ele>
        <time>2016-04-08T07:51:30Z</time>
      </trkpt>
      <trkpt lat="59.288474295442" lon="17.975472879494">
        <ele>99</ele>
        <time>2016-04-08T07:51:36Z</time>
      </trkpt>
      <trkpt lat="59.288464237162" lon="17.976009824008">
        <ele>99</ele>
        <time>2016-04-08T07:51:39Z</time>
      </trkpt>
      <trkpt lat="59.288456944909" lon="17.976362366722">
        <ele>98.6</ele>
        <time>2016-04-08T07:51:41Z</time>
      </trkpt>
      <trkpt lat="59.288454514158" lon="17.976534950043">
        <ele>98.2</ele>
        <time>2016-04-08T07:51:42Z</time>
      </trkpt>
      <trkpt lat="59.288451748131" lon="17.976714909436">
        <ele>97.8</ele>
        <time>2016-04-08T07:51:43Z</time>
      </trkpt>
      <trkpt lat="59.28844847919" lon="17.976883217988">
        <ele>97.2</ele>
        <time>2016-04-08T07:51:44Z</time>
      </trkpt>
      <trkpt lat="59.288444036783" lon="17.977047251771">
        <ele>96.8</ele>
        <time>2016-04-08T07:51:45Z</time>
      </trkpt>
      <trkpt lat="59.288433307951" lon="17.977365344876">
        <ele>96.8</ele>
        <time>2016-04-08T07:51:47Z</time>
      </trkpt>
      <trkpt lat="59.28839818779" lon="17.977830121231">
        <ele>96.8</ele>
        <time>2016-04-08T07:51:50Z</time>
      </trkpt>
      <trkpt lat="59.288376311031" lon="17.977975631015">
        <ele>97.2</ele>
        <time>2016-04-08T07:51:51Z</time>
      </trkpt>
      <trkpt lat="59.288353176987" lon="17.978120051152">
        <ele>97.6</ele>
        <time>2016-04-08T07:51:52Z</time>
      </trkpt>
      <trkpt lat="59.288327863649" lon="17.978260112701">
        <ele>98</ele>
        <time>2016-04-08T07:51:53Z</time>
      </trkpt>
      <trkpt lat="59.288299532827" lon="17.97839430692">
        <ele>98.6</ele>
        <time>2016-04-08T07:51:54Z</time>
      </trkpt>
      <trkpt lat="59.288271453462" lon="17.978526908578">
        <ele>99</ele>
        <time>2016-04-08T07:51:55Z</time>
      </trkpt>
      <trkpt lat="59.288214959456" lon="17.978789597324">
        <ele>99</ele>
        <time>2016-04-08T07:51:57Z</time>
      </trkpt>
      <trkpt lat="59.288007423612" lon="17.979666008788">
        <ele>99.4</ele>
        <time>2016-04-08T07:52:04Z</time>
      </trkpt>
      <trkpt lat="59.287985714491" lon="17.979798861903">
        <ele>99.8</ele>
        <time>2016-04-08T07:52:05Z</time>
      </trkpt>
      <trkpt lat="59.287969537424" lon="17.979927188792">
        <ele>100.2</ele>
        <time>2016-04-08T07:52:06Z</time>
      </trkpt>
      <trkpt lat="59.287957048393" lon="17.980054677491">
        <ele>100.6</ele>
        <time>2016-04-08T07:52:07Z</time>
      </trkpt>
      <trkpt lat="59.287945397552" lon="17.980178059059">
        <ele>101</ele>
        <time>2016-04-08T07:52:08Z</time>
      </trkpt>
      <trkpt lat="59.287929974856" lon="17.980419290141">
        <ele>101</ele>
        <time>2016-04-08T07:52:10Z</time>
      </trkpt>
      <trkpt lat="59.287914133065" lon="17.980723720749">
        <ele>101.4</ele>
        <time>2016-04-08T07:52:13Z</time>
      </trkpt>
      <trkpt lat="59.287910445029" lon="17.980786082085">
        <ele>101.8</ele>
        <time>2016-04-08T07:52:14Z</time>
      </trkpt>
      <trkpt lat="59.287907343726" lon="17.980834780924">
        <ele>102.2</ele>
        <time>2016-04-08T07:52:15Z</time>
      </trkpt>
      <trkpt lat="59.288092332259" lon="17.981315063794">
        <ele>104.6</ele>
        <time>2016-04-08T07:52:37Z</time>
      </trkpt>
      <trkpt lat="59.288146227876" lon="17.981300563107">
        <ele>104.2</ele>
        <time>2016-04-08T07:52:38Z</time>
      </trkpt>
      <trkpt lat="59.288201464597" lon="17.981299557279">
        <ele>103.6</ele>
        <time>2016-04-08T07:52:39Z</time>
      </trkpt>
      <trkpt lat="59.288260389354" lon="17.981302910039">
        <ele>104</ele>
        <time>2016-04-08T07:52:40Z</time>
      </trkpt>
      <trkpt lat="59.288324846165" lon="17.981299138184">
        <ele>104.2</ele>
        <time>2016-04-08T07:52:41Z</time>
      </trkpt>
      <trkpt lat="59.288397265781" lon="17.981297880899">
        <ele>104.6</ele>
        <time>2016-04-08T07:52:42Z</time>
      </trkpt>
      <trkpt lat="59.288468931026" lon="17.981303329134">
        <ele>104.8</ele>
        <time>2016-04-08T07:52:43Z</time>
      </trkpt>
      <trkpt lat="59.288542691746" lon="17.981303580591">
        <ele>105.2</ele>
        <time>2016-04-08T07:52:44Z</time>
      </trkpt>
      <trkpt lat="59.288698511267" lon="17.981296455976">
        <ele>105.2</ele>
        <time>2016-04-08T07:52:46Z</time>
      </trkpt>
      <trkpt lat="59.288984836971" lon="17.981266867869">
        <ele>105.2</ele>
        <time>2016-04-08T07:52:50Z</time>
      </trkpt>
      <trkpt lat="59.289137806646" lon="17.981224790731">
        <ele>105.2</ele>
        <time>2016-04-08T07:52:52Z</time>
      </trkpt>
      <trkpt lat="59.289642313207" lon="17.981244320558">
        <ele>105.2</ele>
        <time>2016-04-08T07:52:58Z</time>
      </trkpt>
      <trkpt lat="59.289805844076" lon="17.981280446547">
        <ele>105.2</ele>
        <time>2016-04-08T07:53:00Z</time>
      </trkpt>
      <trkpt lat="59.289952946421" lon="17.981394691844">
        <ele>104.8</ele>
        <time>2016-04-08T07:53:02Z</time>
      </trkpt>
      <trkpt lat="59.290010697712" lon="17.981479013758">
        <ele>104.2</ele>
        <time>2016-04-08T07:53:03Z</time>
      </trkpt>
      <trkpt lat="59.290059061275" lon="17.98157104702">
        <ele>103.8</ele>
        <time>2016-04-08T07:53:04Z</time>
      </trkpt>
      <trkpt lat="59.29010641901" lon="17.981664169929">
        <ele>103.4</ele>
        <time>2016-04-08T07:53:05Z</time>
      </trkpt>
      <trkpt lat="59.290152268003" lon="17.981745893454">
        <ele>103</ele>
        <time>2016-04-08T07:53:06Z</time>
      </trkpt>
      <trkpt lat="59.290258299038" lon="17.981765004186">
        <ele>103</ele>
        <time>2016-04-08T07:53:08Z</time>
      </trkpt>
      <trkpt lat="59.290417471319" lon="17.98149393354">
        <ele>103</ele>
        <time>2016-04-08T07:53:11Z</time>
      </trkpt>
      <trkpt lat="59.29047773718" lon="17.981379688243">
        <ele>102</ele>
        <time>2016-04-08T07:53:12Z</time>
      </trkpt>
      <trkpt lat="59.290540098516" lon="17.981274914493">
        <ele>101.6</ele>
        <time>2016-04-08T07:53:13Z</time>
      </trkpt>
      <trkpt lat="59.290605309698" lon="17.981168799639">
        <ele>101.2</ele>
        <time>2016-04-08T07:53:14Z</time>
      </trkpt>
      <trkpt lat="59.290670939975" lon="17.981061511319">
        <ele>100.6</ele>
        <time>2016-04-08T07:53:15Z</time>
      </trkpt>
      <trkpt lat="59.290731541112" lon="17.980954390637">
        <ele>100.6</ele>
        <time>2016-04-08T07:53:16Z</time>
      </trkpt>
      <trkpt lat="59.291192210336" lon="17.980238995472">
        <ele>100.6</ele>
        <time>2016-04-08T07:53:23Z</time>
      </trkpt>
      <trkpt lat="59.291607449662" lon="17.97975888024">
        <ele>100.6</ele>
        <time>2016-04-08T07:53:29Z</time>
      </trkpt>
      <trkpt lat="59.292081529926" lon="17.979228054513">
        <ele>100.6</ele>
        <time>2016-04-08T07:53:36Z</time>
      </trkpt>
      <trkpt lat="59.29214824985" lon="17.979154880526">
        <ele>100.6</ele>
        <time>2016-04-08T07:53:37Z</time>
      </trkpt>
      <trkpt lat="59.292545132815" lon="17.978777611207">
        <ele>100.6</ele>
        <time>2016-04-08T07:53:43Z</time>
      </trkpt>
      <trkpt lat="59.293010412084" lon="17.97835826475">
        <ele>100.6</ele>
        <time>2016-04-08T07:53:50Z</time>
      </trkpt>
      <trkpt lat="59.293494131533" lon="17.977943276881">
        <ele>100.6</ele>
        <time>2016-04-08T07:53:57Z</time>
      </trkpt>
      <trkpt lat="59.293711809476" lon="17.977764490954">
        <ele>101</ele>
        <time>2016-04-08T07:54:00Z</time>
      </trkpt>
      <trkpt lat="59.293781127789" lon="17.977707494034">
        <ele>101.4</ele>
        <time>2016-04-08T07:54:01Z</time>
      </trkpt>
      <trkpt lat="59.293851871025" lon="17.97765167058">
        <ele>102.4</ele>
        <time>2016-04-08T07:54:02Z</time>
      </trkpt>
      <trkpt lat="59.293918255673" lon="17.97757958624">
        <ele>102.8</ele>
        <time>2016-04-08T07:54:03Z</time>
      </trkpt>
      <trkpt lat="59.2939880769" lon="17.97752258932">
        <ele>102.8</ele>
        <time>2016-04-08T07:54:04Z</time>
      </trkpt>
      <trkpt lat="59.294488811606" lon="17.977114223152">
        <ele>102.8</ele>
        <time>2016-04-08T07:54:11Z</time>
      </trkpt>
      <trkpt lat="59.294561566498" lon="17.977059237888">
        <ele>103.2</ele>
        <time>2016-04-08T07:54:12Z</time>
      </trkpt>
      <trkpt lat="59.294636081589" lon="17.976996038362">
        <ele>103.6</ele>
        <time>2016-04-08T07:54:13Z</time>
      </trkpt>
      <trkpt lat="59.294707327739" lon="17.976938454709">
        <ele>104.2</ele>
        <time>2016-04-08T07:54:14Z</time>
      </trkpt>
      <trkpt lat="59.294780334088" lon="17.97688472673">
        <ele>104.6</ele>
        <time>2016-04-08T07:54:15Z</time>
      </trkpt>
      <trkpt lat="59.294851664057" lon="17.976830076742">
        <ele>105.2</ele>
        <time>2016-04-08T07:54:16Z</time>
      </trkpt>
      <trkpt lat="59.294922407293" lon="17.976776516401">
        <ele>105.2</ele>
        <time>2016-04-08T07:54:17Z</time>
      </trkpt>
      <trkpt lat="59.295370503667" lon="17.976456076364">
        <ele>105.2</ele>
        <time>2016-04-08T07:54:23Z</time>
      </trkpt>
      <trkpt lat="59.29588741544" lon="17.97606162415">
        <ele>105.2</ele>
        <time>2016-04-08T07:54:30Z</time>
      </trkpt>
      <trkpt lat="59.296440285564" lon="17.975646887738">
        <ele>105.2</ele>
        <time>2016-04-08T07:54:37Z</time>
      </trkpt>
      <trkpt lat="59.296987455996" lon="17.975252184067">
        <ele>105.2</ele>
        <time>2016-04-08T07:54:44Z</time>
      </trkpt>
      <trkpt lat="59.29706591058" lon="17.975204491056">
        <ele>105.2</ele>
        <time>2016-04-08T07:54:45Z</time>
      </trkpt>
      <trkpt lat="59.29731150025" lon="17.975113044527">
        <ele>105.2</ele>
        <time>2016-04-08T07:54:48Z</time>
      </trkpt>
      <trkpt lat="59.297393894327" lon="17.97511195488">
        <ele>105.2</ele>
        <time>2016-04-08T07:54:49Z</time>
      </trkpt>
      <trkpt lat="59.297636382694" lon="17.975214465517">
        <ele>105.2</ele>
        <time>2016-04-08T07:54:52Z</time>
      </trkpt>
      <trkpt lat="59.297711400699" lon="17.975279676699">
        <ele>105.2</ele>
        <time>2016-04-08T07:54:53Z</time>
      </trkpt>
      <trkpt lat="59.298072157675" lon="17.975654347629">
        <ele>105.2</ele>
        <time>2016-04-08T07:54:58Z</time>
      </trkpt>
      <trkpt lat="59.298539364781" lon="17.97612616478">
        <ele>105.2</ele>
        <time>2016-04-08T07:55:04Z</time>
      </trkpt>
      <trkpt lat="59.299038087831" lon="17.976632180083">
        <ele>105.2</ele>
        <time>2016-04-08T07:55:10Z</time>
      </trkpt>
      <trkpt lat="59.299524908583" lon="17.977143895078">
        <ele>105.6</ele>
        <time>2016-04-08T07:55:16Z</time>
      </trkpt>
      <trkpt lat="59.299606213013" lon="17.977228133173">
        <ele>106</ele>
        <time>2016-04-08T07:55:17Z</time>
      </trkpt>
      <trkpt lat="59.29968525433" lon="17.977312790363">
        <ele>106.4</ele>
        <time>2016-04-08T07:55:18Z</time>
      </trkpt>
      <trkpt lat="59.299761781077" lon="17.977393591879">
        <ele>106.8</ele>
        <time>2016-04-08T07:55:19Z</time>
      </trkpt>
      <trkpt lat="59.299839313652" lon="17.977476237413">
        <ele>107.4</ele>
        <time>2016-04-08T07:55:20Z</time>
      </trkpt>
      <trkpt lat="59.300140559138" lon="17.977792235043">
        <ele>107.4</ele>
        <time>2016-04-08T07:55:24Z</time>
      </trkpt>
      <trkpt lat="59.300602737104" lon="17.978223735255">
        <ele>107.4</ele>
        <time>2016-04-08T07:55:30Z</time>
      </trkpt>
      <trkpt lat="59.300889817179" lon="17.978493883892">
        <ele>107.8</ele>
        <time>2016-04-08T07:55:34Z</time>
      </trkpt>
      <trkpt lat="59.300964919003" lon="17.978567309336">
        <ele>108.2</ele>
        <time>2016-04-08T07:55:35Z</time>
      </trkpt>
      <trkpt lat="59.301049408555" lon="17.978644590454">
        <ele>108.6</ele>
        <time>2016-04-08T07:55:36Z</time>
      </trkpt>
      <trkpt lat="59.301130461528" lon="17.978715920423">
        <ele>109</ele>
        <time>2016-04-08T07:55:37Z</time>
      </trkpt>
      <trkpt lat="59.301214783442" lon="17.978792363351">
        <ele>108.6</ele>
        <time>2016-04-08T07:55:38Z</time>
      </trkpt>
      <trkpt lat="59.301301200831" lon="17.978874422152">
        <ele>108.4</ele>
        <time>2016-04-08T07:55:39Z</time>
      </trkpt>
      <trkpt lat="59.301387785858" lon="17.978959163161">
        <ele>108</ele>
        <time>2016-04-08T07:55:40Z</time>
      </trkpt>
      <trkpt lat="59.301474035609" lon="17.97904474236">
        <ele>106.8</ele>
        <time>2016-04-08T07:55:41Z</time>
      </trkpt>
      <trkpt lat="59.301561710283" lon="17.979129064274">
        <ele>106.4</ele>
        <time>2016-04-08T07:55:42Z</time>
      </trkpt>
      <trkpt lat="59.301652234803" lon="17.979216990405">
        <ele>105.6</ele>
        <time>2016-04-08T07:55:43Z</time>
      </trkpt>
      <trkpt lat="59.301749883938" lon="17.979312879341">
        <ele>104.8</ele>
        <time>2016-04-08T07:55:44Z</time>
      </trkpt>
      <trkpt lat="59.301844767046" lon="17.979408349182">
        <ele>104.2</ele>
        <time>2016-04-08T07:55:45Z</time>
      </trkpt>
      <trkpt lat="59.301935207747" lon="17.979513961122">
        <ele>103.4</ele>
        <time>2016-04-08T07:55:46Z</time>
      </trkpt>
      <trkpt lat="59.302018523833" lon="17.979627871143">
        <ele>102.6</ele>
        <time>2016-04-08T07:55:47Z</time>
      </trkpt>
      <trkpt lat="59.302089602345" lon="17.979751420349">
        <ele>101.8</ele>
        <time>2016-04-08T07:55:48Z</time>
      </trkpt>
      <trkpt lat="59.302149868206" lon="17.979884860197">
        <ele>101</ele>
        <time>2016-04-08T07:55:49Z</time>
      </trkpt>
      <trkpt lat="59.302191861525" lon="17.980023077728">
        <ele>100.2</ele>
        <time>2016-04-08T07:55:50Z</time>
      </trkpt>
      <trkpt lat="59.302255563965" lon="17.980273277443">
        <ele>100.2</ele>
        <time>2016-04-08T07:55:52Z</time>
      </trkpt>
      <trkpt lat="59.30232220007" lon="17.980482573486">
        <ele>100.2</ele>
        <time>2016-04-08T07:55:54Z</time>
      </trkpt>
      <trkpt lat="59.302405013242" lon="17.980572259816">
        <ele>100.2</ele>
        <time>2016-04-08T07:55:56Z</time>
      </trkpt>
      <trkpt lat="59.302529735914" lon="17.980440244891">
        <ele>100.2</ele>
        <time>2016-04-08T07:55:59Z</time>
      </trkpt>
      <trkpt lat="59.302590001775" lon="17.980248886114">
        <ele>100.2</ele>
        <time>2016-04-08T07:56:01Z</time>
      </trkpt>
      <trkpt lat="59.302614057828" lon="17.980143693269">
        <ele>100.2</ele>
        <time>2016-04-08T07:56:02Z</time>
      </trkpt>
      <trkpt lat="59.302657978984" lon="17.979922997842">
        <ele>100.2</ele>
        <time>2016-04-08T07:56:04Z</time>
      </trkpt>
      <trkpt lat="59.302732829351" lon="17.979705990451">
        <ele>100.2</ele>
        <time>2016-04-08T07:56:06Z</time>
      </trkpt>
      <trkpt lat="59.302819162921" lon="17.979490827078">
        <ele>99.6</ele>
        <time>2016-04-08T07:56:08Z</time>
      </trkpt>
      <trkpt lat="59.302867694122" lon="17.979386304785">
        <ele>99.2</ele>
        <time>2016-04-08T07:56:09Z</time>
      </trkpt>
      <trkpt lat="59.302913710753" lon="17.979276334257">
        <ele>98.8</ele>
        <time>2016-04-08T07:56:10Z</time>
      </trkpt>
      <trkpt lat="59.30295587171" lon="17.979159155295">
        <ele>98.4</ele>
        <time>2016-04-08T07:56:11Z</time>
      </trkpt>
      <trkpt lat="59.303001469246" lon="17.979048178939">
        <ele>97.8</ele>
        <time>2016-04-08T07:56:12Z</time>
      </trkpt>
      <trkpt lat="59.30324253269" lon="17.978393804006">
        <ele>97.4</ele>
        <time>2016-04-08T07:56:17Z</time>
      </trkpt>
      <trkpt lat="59.303305229302" lon="17.978256424665">
        <ele>97</ele>
        <time>2016-04-08T07:56:18Z</time>
      </trkpt>
      <trkpt lat="59.303367590638" lon="17.978120637885">
        <ele>96.4</ele>
        <time>2016-04-08T07:56:19Z</time>
      </trkpt>
      <trkpt lat="59.303433556191" lon="17.977990131702">
        <ele>95.8</ele>
        <time>2016-04-08T07:56:20Z</time>
      </trkpt>
      <trkpt lat="59.303506143445" lon="17.977882927201">
        <ele>95</ele>
        <time>2016-04-08T07:56:21Z</time>
      </trkpt>
      <trkpt lat="59.303582083459" lon="17.977798940563">
        <ele>94.4</ele>
        <time>2016-04-08T07:56:22Z</time>
      </trkpt>
      <trkpt lat="59.303648971021" lon="17.977738087969">
        <ele>93.6</ele>
        <time>2016-04-08T07:56:23Z</time>
      </trkpt>
      <trkpt lat="59.303707225226" lon="17.977683857076">
        <ele>93</ele>
        <time>2016-04-08T07:56:24Z</time>
      </trkpt>
      <trkpt lat="59.303879640909" lon="17.977519152741">
        <ele>93</ele>
        <time>2016-04-08T07:56:27Z</time>
      </trkpt>
      <trkpt lat="59.303987013048" lon="17.977513620687">
        <ele>92.6</ele>
        <time>2016-04-08T07:56:29Z</time>
      </trkpt>
      <trkpt lat="59.304044429063" lon="17.977562654802">
        <ele>91.6</ele>
        <time>2016-04-08T07:56:30Z</time>
      </trkpt>
      <trkpt lat="59.304099414327" lon="17.977645300336">
        <ele>91.2</ele>
        <time>2016-04-08T07:56:31Z</time>
      </trkpt>
      <trkpt lat="59.304149202813" lon="17.977757701615">
        <ele>90.6</ele>
        <time>2016-04-08T07:56:32Z</time>
      </trkpt>
      <trkpt lat="59.304194045978" lon="17.977890973825">
        <ele>90</ele>
        <time>2016-04-08T07:56:33Z</time>
      </trkpt>
      <trkpt lat="59.304236290754" lon="17.978034974867">
        <ele>89.4</ele>
        <time>2016-04-08T07:56:34Z</time>
      </trkpt>
      <trkpt lat="59.304279960453" lon="17.978187693085">
        <ele>88.6</ele>
        <time>2016-04-08T07:56:35Z</time>
      </trkpt>
      <trkpt lat="59.304325055075" lon="17.978345188986">
        <ele>88</ele>
        <time>2016-04-08T07:56:36Z</time>
      </trkpt>
      <trkpt lat="59.304364282367" lon="17.978527411492">
        <ele>87.4</ele>
        <time>2016-04-08T07:56:37Z</time>
      </trkpt>
      <trkpt lat="59.304393451379" lon="17.978708376713">
        <ele>86.6</ele>
        <time>2016-04-08T07:56:38Z</time>
      </trkpt>
      <trkpt lat="59.304416250147" lon="17.978894538712">
        <ele>86</ele>
        <time>2016-04-08T07:56:39Z</time>
      </trkpt>
      <trkpt lat="59.304434941784" lon="17.979087657688">
        <ele>85.4</ele>
        <time>2016-04-08T07:56:40Z</time>
      </trkpt>
      <trkpt lat="59.304449358652" lon="17.979285219071">
        <ele>85</ele>
        <time>2016-04-08T07:56:41Z</time>
      </trkpt>
      <trkpt lat="59.304461763864" lon="17.979483534825">
        <ele>84.4</ele>
        <time>2016-04-08T07:56:42Z</time>
      </trkpt>
      <trkpt lat="59.304474839628" lon="17.979684784244">
        <ele>83.8</ele>
        <time>2016-04-08T07:56:43Z</time>
      </trkpt>
      <trkpt lat="59.304486993383" lon="17.979888548233">
        <ele>83.2</ele>
        <time>2016-04-08T07:56:44Z</time>
      </trkpt>
      <trkpt lat="59.304498057491" lon="17.980101280855">
        <ele>82.6</ele>
        <time>2016-04-08T07:56:45Z</time>
      </trkpt>
      <trkpt lat="59.304505098287" lon="17.980305463939">
        <ele>82</ele>
        <time>2016-04-08T07:56:46Z</time>
      </trkpt>
      <trkpt lat="59.304511636169" lon="17.980508138281">
        <ele>81.2</ele>
        <time>2016-04-08T07:56:47Z</time>
      </trkpt>
      <trkpt lat="59.30451825787" lon="17.98071274046">
        <ele>80.4</ele>
        <time>2016-04-08T07:56:48Z</time>
      </trkpt>
      <trkpt lat="59.304523873743" lon="17.980917091182">
        <ele>79.6</ele>
        <time>2016-04-08T07:56:49Z</time>
      </trkpt>
      <trkpt lat="59.304533512928" lon="17.981116328945">
        <ele>78.8</ele>
        <time>2016-04-08T07:56:50Z</time>
      </trkpt>
      <trkpt lat="59.304563101035" lon="17.981517486679">
        <ele>78.4</ele>
        <time>2016-04-08T07:56:52Z</time>
      </trkpt>
      <trkpt lat="59.304576428256" lon="17.981707588171">
        <ele>78</ele>
        <time>2016-04-08T07:56:53Z</time>
      </trkpt>
      <trkpt lat="59.304585648346" lon="17.98189626474">
        <ele>77.4</ele>
        <time>2016-04-08T07:56:54Z</time>
      </trkpt>
      <trkpt lat="59.304592437685" lon="17.982080917997">
        <ele>76.6</ele>
        <time>2016-04-08T07:56:55Z</time>
      </trkpt>
      <trkpt lat="59.304601741594" lon="17.98261543176">
        <ele>76.6</ele>
        <time>2016-04-08T07:56:58Z</time>
      </trkpt>
      <trkpt lat="59.304619259765" lon="17.983538530407">
        <ele>76</ele>
        <time>2016-04-08T07:57:03Z</time>
      </trkpt>
      <trkpt lat="59.304629653321" lon="17.983724692406">
        <ele>75.6</ele>
        <time>2016-04-08T07:57:04Z</time>
      </trkpt>
      <trkpt lat="59.304638370497" lon="17.983913620432">
        <ele>75.2</ele>
        <time>2016-04-08T07:57:05Z</time>
      </trkpt>
      <trkpt lat="59.304650775709" lon="17.984103386648">
        <ele>74.8</ele>
        <time>2016-04-08T07:57:06Z</time>
      </trkpt>
      <trkpt lat="59.304658906152" lon="17.984302372954">
        <ele>74.4</ele>
        <time>2016-04-08T07:57:07Z</time>
      </trkpt>
      <trkpt lat="59.304679274169" lon="17.984871084869">
        <ele>74.4</ele>
        <time>2016-04-08T07:57:10Z</time>
      </trkpt>
      <trkpt lat="59.304725542257" lon="17.985933993608">
        <ele>74.4</ele>
        <time>2016-04-08T07:57:16Z</time>
      </trkpt>
      <trkpt lat="59.304772816173" lon="17.986572275293">
        <ele>74.8</ele>
        <time>2016-04-08T07:57:20Z</time>
      </trkpt>
      <trkpt lat="59.304785137566" lon="17.98673010647">
        <ele>75.2</ele>
        <time>2016-04-08T07:57:21Z</time>
      </trkpt>
      <trkpt lat="59.304795279665" lon="17.986893804977">
        <ele>75.8</ele>
        <time>2016-04-08T07:57:22Z</time>
      </trkpt>
      <trkpt lat="59.304806343773" lon="17.987046523195">
        <ele>76.2</ele>
        <time>2016-04-08T07:57:23Z</time>
      </trkpt>
      <trkpt lat="59.304817324062" lon="17.987200833974">
        <ele>76.6</ele>
        <time>2016-04-08T07:57:24Z</time>
      </trkpt>
      <trkpt lat="59.304870800584" lon="17.988155616203">
        <ele>76.6</ele>
        <time>2016-04-08T07:57:30Z</time>
      </trkpt>
      <trkpt lat="59.304896449198" lon="17.988638748919">
        <ele>77.2</ele>
        <time>2016-04-08T07:57:33Z</time>
      </trkpt>
      <trkpt lat="59.304905669288" lon="17.98879875939">
        <ele>77.6</ele>
        <time>2016-04-08T07:57:34Z</time>
      </trkpt>
      <trkpt lat="59.304918158319" lon="17.988959188956">
        <ele>78</ele>
        <time>2016-04-08T07:57:35Z</time>
      </trkpt>
      <trkpt lat="59.304934419205" lon="17.989116684857">
        <ele>78.6</ele>
        <time>2016-04-08T07:57:36Z</time>
      </trkpt>
      <trkpt lat="59.30494992572" lon="17.989281808287">
        <ele>79</ele>
        <time>2016-04-08T07:57:37Z</time>
      </trkpt>
      <trkpt lat="59.305022932069" lon="17.990344717026">
        <ele>79</ele>
        <time>2016-04-08T07:57:44Z</time>
      </trkpt>
      <trkpt lat="59.305076995324" lon="17.991382144789">
        <ele>79.4</ele>
        <time>2016-04-08T07:57:51Z</time>
      </trkpt>
      <trkpt lat="59.30508487431" lon="17.991538299586">
        <ele>79.8</ele>
        <time>2016-04-08T07:57:52Z</time>
      </trkpt>
      <trkpt lat="59.305092082744" lon="17.991686994492">
        <ele>80.2</ele>
        <time>2016-04-08T07:57:53Z</time>
      </trkpt>
      <trkpt lat="59.30509660897" lon="17.991838287787">
        <ele>80.6</ele>
        <time>2016-04-08T07:57:54Z</time>
      </trkpt>
      <trkpt lat="59.305101051377" lon="17.991990670729">
        <ele>81</ele>
        <time>2016-04-08T07:57:55Z</time>
      </trkpt>
      <trkpt lat="59.305117228444" lon="17.992447903374">
        <ele>81</ele>
        <time>2016-04-08T07:57:58Z</time>
      </trkpt>
      <trkpt lat="59.305183529273" lon="17.993458173781">
        <ele>81</ele>
        <time>2016-04-08T07:58:05Z</time>
      </trkpt>
      <trkpt lat="59.305243040763" lon="17.99423274516">
        <ele>81.6</ele>
        <time>2016-04-08T07:58:11Z</time>
      </trkpt>
      <trkpt lat="59.305251255025" lon="17.994364843904">
        <ele>82</ele>
        <time>2016-04-08T07:58:12Z</time>
      </trkpt>
      <trkpt lat="59.305260978029" lon="17.994490572404">
        <ele>82.4</ele>
        <time>2016-04-08T07:58:13Z</time>
      </trkpt>
      <trkpt lat="59.305273299422" lon="17.994617558189">
        <ele>82.8</ele>
        <time>2016-04-08T07:58:14Z</time>
      </trkpt>
      <trkpt lat="59.305284279711" lon="17.994742951413">
        <ele>83.2</ele>
        <time>2016-04-08T07:58:15Z</time>
      </trkpt>
      <trkpt lat="59.305312442895" lon="17.995239998083">
        <ele>83.2</ele>
        <time>2016-04-08T07:58:19Z</time>
      </trkpt>
      <trkpt lat="59.305319651329" lon="17.995365894221">
        <ele>83.8</ele>
        <time>2016-04-08T07:58:20Z</time>
      </trkpt>
      <trkpt lat="59.30532627303" lon="17.995490197798">
        <ele>84.2</ele>
        <time>2016-04-08T07:58:21Z</time>
      </trkpt>
      <trkpt lat="59.305333062369" lon="17.99561575866">
        <ele>84.6</ele>
        <time>2016-04-08T07:58:22Z</time>
      </trkpt>
      <trkpt lat="59.305340438441" lon="17.995745594291">
        <ele>85.2</ele>
        <time>2016-04-08T07:58:23Z</time>
      </trkpt>
      <trkpt lat="59.305347730694" lon="17.995869814049">
        <ele>85.6</ele>
        <time>2016-04-08T07:58:24Z</time>
      </trkpt>
      <trkpt lat="59.305374971869" lon="17.996237444183">
        <ele>85.6</ele>
        <time>2016-04-08T07:58:27Z</time>
      </trkpt>
      <trkpt lat="59.3053958428" lon="17.996613372398">
        <ele>86</ele>
        <time>2016-04-08T07:58:30Z</time>
      </trkpt>
      <trkpt lat="59.305403302691" lon="17.996726528048">
        <ele>86.6</ele>
        <time>2016-04-08T07:58:31Z</time>
      </trkpt>
      <trkpt lat="59.305411936048" lon="17.996842365906">
        <ele>87.4</ele>
        <time>2016-04-08T07:58:32Z</time>
      </trkpt>
      <trkpt lat="59.305417468102" lon="17.996960550696">
        <ele>87.8</ele>
        <time>2016-04-08T07:58:33Z</time>
      </trkpt>
      <trkpt lat="59.305424592717" lon="17.997196920276">
        <ele>87.8</ele>
        <time>2016-04-08T07:58:35Z</time>
      </trkpt>
      <trkpt lat="59.305435573006" lon="17.997794382108">
        <ele>87.8</ele>
        <time>2016-04-08T07:58:40Z</time>
      </trkpt>
      <trkpt lat="59.305425850002" lon="17.997911141975">
        <ele>87.8</ele>
        <time>2016-04-08T07:58:41Z</time>
      </trkpt>
      <trkpt lat="59.305427945477" lon="17.998029159127">
        <ele>87.8</ele>
        <time>2016-04-08T07:58:42Z</time>
      </trkpt>
      <trkpt lat="59.305461975991" lon="17.998258655549">
        <ele>87.8</ele>
        <time>2016-04-08T07:58:44Z</time>
      </trkpt>
      <trkpt lat="59.305472788642" lon="17.998386311886">
        <ele>87.8</ele>
        <time>2016-04-08T07:58:45Z</time>
      </trkpt>
      <trkpt lat="59.305492486107" lon="17.998761821006">
        <ele>87.8</ele>
        <time>2016-04-08T07:58:48Z</time>
      </trkpt>
      <trkpt lat="59.305503466396" lon="17.999012188359">
        <ele>88.2</ele>
        <time>2016-04-08T07:58:50Z</time>
      </trkpt>
      <trkpt lat="59.305506148604" lon="17.999139928515">
        <ele>88.6</ele>
        <time>2016-04-08T07:58:51Z</time>
      </trkpt>
      <trkpt lat="59.305508495536" lon="17.999269177413">
        <ele>89.2</ele>
        <time>2016-04-08T07:58:52Z</time>
      </trkpt>
      <trkpt lat="59.305510758649" lon="17.999407311125">
        <ele>89.6</ele>
        <time>2016-04-08T07:58:53Z</time>
      </trkpt>
      <trkpt lat="59.305515201056" lon="17.999539493688">
        <ele>90</ele>
        <time>2016-04-08T07:58:54Z</time>
      </trkpt>
      <trkpt lat="59.305520984567" lon="17.999672514441">
        <ele>90</ele>
        <time>2016-04-08T07:58:55Z</time>
      </trkpt>
      <trkpt lat="59.305551829959" lon="18.000602653884">
        <ele>90</ele>
        <time>2016-04-08T07:59:02Z</time>
      </trkpt>
      <trkpt lat="59.305561217687" lon="18.001423996265">
        <ele>90</ele>
        <time>2016-04-08T07:59:08Z</time>
      </trkpt>
      <trkpt lat="59.305554428348" lon="18.001563722538">
        <ele>90</ele>
        <time>2016-04-08T07:59:09Z</time>
      </trkpt>
      <trkpt lat="59.305545459715" lon="18.002154981764">
        <ele>90</ele>
        <time>2016-04-08T07:59:13Z</time>
      </trkpt>
      <trkpt lat="59.305553087244" lon="18.002293199295">
        <ele>90</ele>
        <time>2016-04-08T07:59:14Z</time>
      </trkpt>
      <trkpt lat="59.305578065306" lon="18.003245550773">
        <ele>90</ele>
        <time>2016-04-08T07:59:21Z</time>
      </trkpt>
      <trkpt lat="59.305596086391" lon="18.004111401043">
        <ele>90</ele>
        <time>2016-04-08T07:59:28Z</time>
      </trkpt>
      <trkpt lat="59.305592314536" lon="18.004359672921">
        <ele>90.4</ele>
        <time>2016-04-08T07:59:30Z</time>
      </trkpt>
      <trkpt lat="59.305591476346" lon="18.004490430561">
        <ele>90.8</ele>
        <time>2016-04-08T07:59:31Z</time>
      </trkpt>
      <trkpt lat="59.305592565993" lon="18.004623535133">
        <ele>91.2</ele>
        <time>2016-04-08T07:59:32Z</time>
      </trkpt>
      <trkpt lat="59.305593152726" lon="18.004761920302">
        <ele>91.8</ele>
        <time>2016-04-08T07:59:33Z</time>
      </trkpt>
      <trkpt lat="59.305586698663" lon="18.004902149489">
        <ele>92.2</ele>
        <time>2016-04-08T07:59:34Z</time>
      </trkpt>
      <trkpt lat="59.305584938464" lon="18.005659370335">
        <ele>92.2</ele>
        <time>2016-04-08T07:59:39Z</time>
      </trkpt>
      <trkpt lat="59.305600612617" lon="18.006761925461">
        <ele>92.2</ele>
        <time>2016-04-08T07:59:46Z</time>
      </trkpt>
      <trkpt lat="59.30559868478" lon="18.006922355027">
        <ele>92.2</ele>
        <time>2016-04-08T07:59:47Z</time>
      </trkpt>
      <trkpt lat="59.305592230717" lon="18.00748033811">
        <ele>92.6</ele>
        <time>2016-04-08T07:59:51Z</time>
      </trkpt>
      <trkpt lat="59.305594912925" lon="18.007612017759">
        <ele>93</ele>
        <time>2016-04-08T07:59:52Z</time>
      </trkpt>
      <trkpt lat="59.305598433323" lon="18.007743026856">
        <ele>93.4</ele>
        <time>2016-04-08T07:59:53Z</time>
      </trkpt>
      <trkpt lat="59.30560287573" lon="18.007871018469">
        <ele>94</ele>
        <time>2016-04-08T07:59:54Z</time>
      </trkpt>
      <trkpt lat="59.30560455211" lon="18.007985850499">
        <ele>94.4</ele>
        <time>2016-04-08T07:59:55Z</time>
      </trkpt>
      <trkpt lat="59.305612012001" lon="18.008195481818">
        <ele>94.4</ele>
        <time>2016-04-08T07:59:57Z</time>
      </trkpt>
      <trkpt lat="59.305639169357" lon="18.008811300011">
        <ele>94.4</ele>
        <time>2016-04-08T08:00:02Z</time>
      </trkpt>
      <trkpt lat="59.305660962297" lon="18.009486713513">
        <ele>94.4</ele>
        <time>2016-04-08T08:00:08Z</time>
      </trkpt>
      <trkpt lat="59.305623998118" lon="18.009719814152">
        <ele>94.4</ele>
        <time>2016-04-08T08:00:12Z</time>
      </trkpt>
      <trkpt lat="59.305646796886" lon="18.010015108489">
        <ele>94.4</ele>
        <time>2016-04-08T08:00:15Z</time>
      </trkpt>
      <trkpt lat="59.305671523491" lon="18.010137735686">
        <ele>93.8</ele>
        <time>2016-04-08T08:00:16Z</time>
      </trkpt>
      <trkpt lat="59.30569423844" lon="18.01027821633">
        <ele>93.4</ele>
        <time>2016-04-08T08:00:17Z</time>
      </trkpt>
      <trkpt lat="59.305717037208" lon="18.010431186005">
        <ele>93</ele>
        <time>2016-04-08T08:00:18Z</time>
      </trkpt>
      <trkpt lat="59.305735645026" lon="18.010602428222">
        <ele>92.4</ele>
        <time>2016-04-08T08:00:19Z</time>
      </trkpt>
      <trkpt lat="59.305753666111" lon="18.01077107205">
        <ele>92</ele>
        <time>2016-04-08T08:00:20Z</time>
      </trkpt>
      <trkpt lat="59.305773447395" lon="18.010936866032">
        <ele>91.6</ele>
        <time>2016-04-08T08:00:21Z</time>
      </trkpt>
      <trkpt lat="59.305791300842" lon="18.011106683326">
        <ele>91</ele>
        <time>2016-04-08T08:00:22Z</time>
      </trkpt>
      <trkpt lat="59.305809154289" lon="18.011285972167">
        <ele>90.6</ele>
        <time>2016-04-08T08:00:23Z</time>
      </trkpt>
      <trkpt lat="59.305825247537" lon="18.011455454185">
        <ele>90</ele>
        <time>2016-04-08T08:00:24Z</time>
      </trkpt>
      <trkpt lat="59.305842095156" lon="18.011629294791">
        <ele>89.6</ele>
        <time>2016-04-08T08:00:25Z</time>
      </trkpt>
      <trkpt lat="59.305921807025" lon="18.012521631865">
        <ele>89.2</ele>
        <time>2016-04-08T08:00:30Z</time>
      </trkpt>
      <trkpt lat="59.30593647535" lon="18.012696897394">
        <ele>88.8</ele>
        <time>2016-04-08T08:00:31Z</time>
      </trkpt>
      <trkpt lat="59.305952652417" lon="18.012872917294">
        <ele>88.2</ele>
        <time>2016-04-08T08:00:32Z</time>
      </trkpt>
      <trkpt lat="59.305969583855" lon="18.013040303837">
        <ele>87.8</ele>
        <time>2016-04-08T08:00:33Z</time>
      </trkpt>
      <trkpt lat="59.30598928132" lon="18.013225795284">
        <ele>87.4</ele>
        <time>2016-04-08T08:00:34Z</time>
      </trkpt>
      <trkpt lat="59.306045356231" lon="18.013759973771">
        <ele>87.4</ele>
        <time>2016-04-08T08:00:37Z</time>
      </trkpt>
      <trkpt lat="59.306152141637" lon="18.014636217597">
        <ele>87.4</ele>
        <time>2016-04-08T08:00:42Z</time>
      </trkpt>
      <trkpt lat="59.306172425835" lon="18.014827744012">
        <ele>87</ele>
        <time>2016-04-08T08:00:43Z</time>
      </trkpt>
      <trkpt lat="59.306188938178" lon="18.015015582391">
        <ele>86.6</ele>
        <time>2016-04-08T08:00:44Z</time>
      </trkpt>
      <trkpt lat="59.306202265399" lon="18.015209204281">
        <ele>86.2</ele>
        <time>2016-04-08T08:00:45Z</time>
      </trkpt>
      <trkpt lat="59.306215424982" lon="18.015393522262">
        <ele>85.6</ele>
        <time>2016-04-08T08:00:46Z</time>
      </trkpt>
      <trkpt lat="59.306229422755" lon="18.015570212714">
        <ele>85.2</ele>
        <time>2016-04-08T08:00:47Z</time>
      </trkpt>
      <trkpt lat="59.306243336709" lon="18.015750507383">
        <ele>85.2</ele>
        <time>2016-04-08T08:00:48Z</time>
      </trkpt>
      <trkpt lat="59.306336124342" lon="18.016828587361">
        <ele>85.2</ele>
        <time>2016-04-08T08:00:54Z</time>
      </trkpt>
      <trkpt lat="59.306385158457" lon="18.01734918717">
        <ele>85.2</ele>
        <time>2016-04-08T08:00:57Z</time>
      </trkpt>
      <trkpt lat="59.306476604986" lon="18.018437828342">
        <ele>84.8</ele>
        <time>2016-04-08T08:01:03Z</time>
      </trkpt>
      <trkpt lat="59.306497727374" lon="18.018630360585">
        <ele>84.4</ele>
        <time>2016-04-08T08:01:04Z</time>
      </trkpt>
      <trkpt lat="59.306516167554" lon="18.018820964991">
        <ele>84</ele>
        <time>2016-04-08T08:01:05Z</time>
      </trkpt>
      <trkpt lat="59.306529410956" lon="18.01901383251">
        <ele>83.4</ele>
        <time>2016-04-08T08:01:06Z</time>
      </trkpt>
      <trkpt lat="59.306539804512" lon="18.019209466056">
        <ele>83</ele>
        <time>2016-04-08T08:01:07Z</time>
      </trkpt>
      <trkpt lat="59.306547264403" lon="18.019412727131">
        <ele>82.4</ele>
        <time>2016-04-08T08:01:08Z</time>
      </trkpt>
      <trkpt lat="59.306555478665" lon="18.019617664586">
        <ele>82</ele>
        <time>2016-04-08T08:01:09Z</time>
      </trkpt>
      <trkpt lat="59.306562351823" lon="18.019818830186">
        <ele>81.6</ele>
        <time>2016-04-08T08:01:10Z</time>
      </trkpt>
      <trkpt lat="59.306562435642" lon="18.020020079605">
        <ele>81</ele>
        <time>2016-04-08T08:01:11Z</time>
      </trkpt>
      <trkpt lat="59.306553299371" lon="18.02021579697">
        <ele>81</ele>
        <time>2016-04-08T08:01:12Z</time>
      </trkpt>
      <trkpt lat="59.306546929127" lon="18.020422494624">
        <ele>81</ele>
        <time>2016-04-08T08:01:13Z</time>
      </trkpt>
      <trkpt lat="59.306540726521" lon="18.020630198106">
        <ele>80.6</ele>
        <time>2016-04-08T08:01:14Z</time>
      </trkpt>
      <trkpt lat="59.306540894159" lon="18.0208586887">
        <ele>80</ele>
        <time>2016-04-08T08:01:15Z</time>
      </trkpt>
      <trkpt lat="59.306543073453" lon="18.021079467946">
        <ele>79.6</ele>
        <time>2016-04-08T08:01:16Z</time>
      </trkpt>
      <trkpt lat="59.306545504204" lon="18.021303180857">
        <ele>78.8</ele>
        <time>2016-04-08T08:01:17Z</time>
      </trkpt>
      <trkpt lat="59.306548270231" lon="18.021517673678">
        <ele>78.2</ele>
        <time>2016-04-08T08:01:18Z</time>
      </trkpt>
      <trkpt lat="59.306551203896" lon="18.02174130277">
        <ele>77.4</ele>
        <time>2016-04-08T08:01:19Z</time>
      </trkpt>
      <trkpt lat="59.306561010719" lon="18.021967027337">
        <ele>76.6</ele>
        <time>2016-04-08T08:01:20Z</time>
      </trkpt>
      <trkpt lat="59.306572242465" lon="18.022195434112">
        <ele>76</ele>
        <time>2016-04-08T08:01:21Z</time>
      </trkpt>
      <trkpt lat="59.306582300745" lon="18.022421158679">
        <ele>75.4</ele>
        <time>2016-04-08T08:01:22Z</time>
      </trkpt>
      <trkpt lat="59.306594789776" lon="18.022652499119">
        <ele>74.6</ele>
        <time>2016-04-08T08:01:23Z</time>
      </trkpt>
      <trkpt lat="59.30662546753" lon="18.022846959199">
        <ele>73.4</ele>
        <time>2016-04-08T08:01:24Z</time>
      </trkpt>
      <trkpt lat="59.306794949548" lon="18.023282985637">
        <ele>73.4</ele>
        <time>2016-04-08T08:01:27Z</time>
      </trkpt>
      <trkpt lat="59.307050932774" lon="18.023592613023">
        <ele>73.4</ele>
        <time>2016-04-08T08:01:30Z</time>
      </trkpt>
      <trkpt lat="59.307131901928" lon="18.023700236619">
        <ele>73.4</ele>
        <time>2016-04-08T08:01:31Z</time>
      </trkpt>
      <trkpt lat="59.307643784561" lon="18.024341032874">
        <ele>73.4</ele>
        <time>2016-04-08T08:01:37Z</time>
      </trkpt>
      <trkpt lat="59.308044942295" lon="18.024892310437">
        <ele>73.4</ele>
        <time>2016-04-08T08:01:42Z</time>
      </trkpt>
      <trkpt lat="59.308174945564" lon="18.025163883997">
        <ele>73.4</ele>
        <time>2016-04-08T08:01:44Z</time>
      </trkpt>
      <trkpt lat="59.308298159494" lon="18.025468230786">
        <ele>73.4</ele>
        <time>2016-04-08T08:01:46Z</time>
      </trkpt>
      <trkpt lat="59.308369992377" lon="18.025601586815">
        <ele>73.4</ele>
        <time>2016-04-08T08:01:47Z</time>
      </trkpt>
      <trkpt lat="59.308548526847" lon="18.02577215848">
        <ele>73.4</ele>
        <time>2016-04-08T08:01:49Z</time>
      </trkpt>
      <trkpt lat="59.308978015403" lon="18.02625830868">
        <ele>73</ele>
        <time>2016-04-08T08:01:54Z</time>
      </trkpt>
      <trkpt lat="59.309055631797" lon="18.026355287263">
        <ele>72.6</ele>
        <time>2016-04-08T08:01:55Z</time>
      </trkpt>
      <trkpt lat="59.309134421657" lon="18.026458049357">
        <ele>72.2</ele>
        <time>2016-04-08T08:01:56Z</time>
      </trkpt>
      <trkpt lat="59.309213714431" lon="18.026559470347">
        <ele>71.8</ele>
        <time>2016-04-08T08:01:57Z</time>
      </trkpt>
      <trkpt lat="59.309293510119" lon="18.026666591029">
        <ele>71.4</ele>
        <time>2016-04-08T08:01:58Z</time>
      </trkpt>
      <trkpt lat="59.309372719074" lon="18.026782009792">
        <ele>71.4</ele>
        <time>2016-04-08T08:01:59Z</time>
      </trkpt>
      <trkpt lat="59.309612860509" lon="18.027108568616">
        <ele>70.8</ele>
        <time>2016-04-08T08:02:02Z</time>
      </trkpt>
      <trkpt lat="59.309667929592" lon="18.027187274657">
        <ele>70.4</ele>
        <time>2016-04-08T08:02:03Z</time>
      </trkpt>
      <trkpt lat="59.309713024214" lon="18.027257934074">
        <ele>70</ele>
        <time>2016-04-08T08:02:04Z</time>
      </trkpt>
      <trkpt lat="59.309749150203" lon="18.027310572406">
        <ele>69.6</ele>
        <time>2016-04-08T08:02:05Z</time>
      </trkpt>
      <trkpt lat="59.309778654491" lon="18.027382908203">
        <ele>69.2</ele>
        <time>2016-04-08T08:02:06Z</time>
      </trkpt>
      <trkpt lat="59.309938497324" lon="18.027592874798">
        <ele>69.2</ele>
        <time>2016-04-08T08:02:10Z</time>
      </trkpt>
      <trkpt lat="59.309984849231" lon="18.027646602777">
        <ele>69.2</ele>
        <time>2016-04-08T08:02:11Z</time>
      </trkpt>
      <trkpt lat="59.310200431699" lon="18.027927480246">
        <ele>69.6</ele>
        <time>2016-04-08T08:02:15Z</time>
      </trkpt>
      <trkpt lat="59.3102573448" lon="18.027998977853">
        <ele>70</ele>
        <time>2016-04-08T08:02:16Z</time>
      </trkpt>
      <trkpt lat="59.310314844634" lon="18.028070140184">
        <ele>70.4</ele>
        <time>2016-04-08T08:02:17Z</time>
      </trkpt>
      <trkpt lat="59.310376032504" lon="18.028135938099">
        <ele>70.8</ele>
        <time>2016-04-08T08:02:18Z</time>
      </trkpt>
      <trkpt lat="59.310440405496" lon="18.028189079345">
        <ele>71.2</ele>
        <time>2016-04-08T08:02:19Z</time>
      </trkpt>
      <trkpt lat="59.310579125941" lon="18.028307180316">
        <ele>71.2</ele>
        <time>2016-04-08T08:02:21Z</time>
      </trkpt>
      <trkpt lat="59.310651629376" lon="18.028361997942">
        <ele>71.2</ele>
        <time>2016-04-08T08:02:22Z</time>
      </trkpt>
      <trkpt lat="59.310869894052" lon="18.028595601495">
        <ele>71.2</ele>
        <time>2016-04-08T08:02:25Z</time>
      </trkpt>
      <trkpt lat="59.310945917885" lon="18.02868905968">
        <ele>71.8</ele>
        <time>2016-04-08T08:02:26Z</time>
      </trkpt>
      <trkpt lat="59.311020600614" lon="18.028778494553">
        <ele>72.2</ele>
        <time>2016-04-08T08:02:27Z</time>
      </trkpt>
      <trkpt lat="59.31110224032" lon="18.028857619689">
        <ele>72.8</ele>
        <time>2016-04-08T08:02:28Z</time>
      </trkpt>
      <trkpt lat="59.311180024352" lon="18.028933140608">
        <ele>73.2</ele>
        <time>2016-04-08T08:02:29Z</time>
      </trkpt>
      <trkpt lat="59.311256802556" lon="18.029005811681">
        <ele>73.6</ele>
        <time>2016-04-08T08:02:30Z</time>
      </trkpt>
      <trkpt lat="59.311337101158" lon="18.029051493036">
        <ele>73.6</ele>
        <time>2016-04-08T08:02:31Z</time>
      </trkpt>
      <trkpt lat="59.311413627905" lon="18.029073285976">
        <ele>73.6</ele>
        <time>2016-04-08T08:02:32Z</time>
      </trkpt>
      <trkpt lat="59.311604148492" lon="18.029267913694">
        <ele>73.6</ele>
        <time>2016-04-08T08:02:35Z</time>
      </trkpt>
      <trkpt lat="59.311656870643" lon="18.029348128477">
        <ele>73.6</ele>
        <time>2016-04-08T08:02:36Z</time>
      </trkpt>
      <trkpt lat="59.311863819754" lon="18.029688349798">
        <ele>73.6</ele>
        <time>2016-04-08T08:02:40Z</time>
      </trkpt>
      <trkpt lat="59.312019555456" lon="18.02997149038">
        <ele>74.2</ele>
        <time>2016-04-08T08:02:43Z</time>
      </trkpt>
      <trkpt lat="59.312074708358" lon="18.030066708764">
        <ele>74.6</ele>
        <time>2016-04-08T08:02:44Z</time>
      </trkpt>
      <trkpt lat="59.312129274527" lon="18.030162430062">
        <ele>75</ele>
        <time>2016-04-08T08:02:45Z</time>
      </trkpt>
      <trkpt lat="59.312184595067" lon="18.030267622907">
        <ele>75.4</ele>
        <time>2016-04-08T08:02:46Z</time>
      </trkpt>
      <trkpt lat="59.312237484856" lon="18.030363930938">
        <ele>75.8</ele>
        <time>2016-04-08T08:02:47Z</time>
      </trkpt>
      <trkpt lat="59.31234276152" lon="18.030567275832">
        <ele>75.8</ele>
        <time>2016-04-08T08:02:49Z</time>
      </trkpt>
      <trkpt lat="59.312395064576" lon="18.030654699049">
        <ele>76.2</ele>
        <time>2016-04-08T08:02:50Z</time>
      </trkpt>
      <trkpt lat="59.312441165026" lon="18.030741200257">
        <ele>76.8</ele>
        <time>2016-04-08T08:02:51Z</time>
      </trkpt>
      <trkpt lat="59.312487936028" lon="18.030824013429">
        <ele>77.2</ele>
        <time>2016-04-08T08:02:52Z</time>
      </trkpt>
      <trkpt lat="59.312534371754" lon="18.030911269008">
        <ele>77.6</ele>
        <time>2016-04-08T08:02:53Z</time>
      </trkpt>
      <trkpt lat="59.312576197435" lon="18.03099492037">
        <ele>78</ele>
        <time>2016-04-08T08:02:54Z</time>
      </trkpt>
      <trkpt lat="59.312620956781" lon="18.031072704402">
        <ele>78</ele>
        <time>2016-04-08T08:02:55Z</time>
      </trkpt>
      <trkpt lat="59.312663536833" lon="18.031151075167">
        <ele>78.4</ele>
        <time>2016-04-08T08:02:56Z</time>
      </trkpt>
      <trkpt lat="59.31270737417" lon="18.031229781208">
        <ele>79</ele>
        <time>2016-04-08T08:02:57Z</time>
      </trkpt>
      <trkpt lat="59.312750373317" lon="18.031307816697">
        <ele>79.4</ele>
        <time>2016-04-08T08:02:58Z</time>
      </trkpt>
      <trkpt lat="59.312791863722" lon="18.031386690376">
        <ele>79.8</ele>
        <time>2016-04-08T08:02:59Z</time>
      </trkpt>
      <trkpt lat="59.312830839557" lon="18.031464642046">
        <ele>80.2</ele>
        <time>2016-04-08T08:03:00Z</time>
      </trkpt>
      <trkpt lat="59.31295128746" lon="18.031677374668">
        <ele>80.2</ele>
        <time>2016-04-08T08:03:03Z</time>
      </trkpt>
      <trkpt lat="59.312989928019" lon="18.031746190067">
        <ele>81</ele>
        <time>2016-04-08T08:03:04Z</time>
      </trkpt>
      <trkpt lat="59.313027227474" lon="18.031818693502">
        <ele>81.4</ele>
        <time>2016-04-08T08:03:05Z</time>
      </trkpt>
      <trkpt lat="59.313066873861" lon="18.031894801154">
        <ele>81.8</ele>
        <time>2016-04-08T08:03:06Z</time>
      </trkpt>
      <trkpt lat="59.313108783361" lon="18.031970070616">
        <ele>82.4</ele>
        <time>2016-04-08T08:03:07Z</time>
      </trkpt>
      <trkpt lat="59.313233925128" lon="18.032196717192">
        <ele>82.4</ele>
        <time>2016-04-08T08:03:10Z</time>
      </trkpt>
      <trkpt lat="59.313359150714" lon="18.032403331027">
        <ele>82.8</ele>
        <time>2016-04-08T08:03:13Z</time>
      </trkpt>
      <trkpt lat="59.313395947255" lon="18.032479690136">
        <ele>83.2</ele>
        <time>2016-04-08T08:03:14Z</time>
      </trkpt>
      <trkpt lat="59.313433581986" lon="18.032557390349">
        <ele>83.6</ele>
        <time>2016-04-08T08:03:15Z</time>
      </trkpt>
      <trkpt lat="59.313473815106" lon="18.032632156897">
        <ele>84</ele>
        <time>2016-04-08T08:03:16Z</time>
      </trkpt>
      <trkpt lat="59.313513461493" lon="18.0327023134">
        <ele>84.4</ele>
        <time>2016-04-08T08:03:17Z</time>
      </trkpt>
      <trkpt lat="59.313728205771" lon="18.033109506102">
        <ele>84.4</ele>
        <time>2016-04-08T08:03:22Z</time>
      </trkpt>
      <trkpt lat="59.31393029338" lon="18.033482835928">
        <ele>84</ele>
        <time>2016-04-08T08:03:26Z</time>
      </trkpt>
      <trkpt lat="59.313982177341" lon="18.033578641045">
        <ele>83.4</ele>
        <time>2016-04-08T08:03:27Z</time>
      </trkpt>
      <trkpt lat="59.314035318587" lon="18.033680145854">
        <ele>82.4</ele>
        <time>2016-04-08T08:03:28Z</time>
      </trkpt>
      <trkpt lat="59.314092147869" lon="18.033780896292">
        <ele>82</ele>
        <time>2016-04-08T08:03:29Z</time>
      </trkpt>
      <trkpt lat="59.314149815341" lon="18.03388751406">
        <ele>81.6</ele>
        <time>2016-04-08T08:03:30Z</time>
      </trkpt>
      <trkpt lat="59.31421024884" lon="18.03400486066">
        <ele>81</ele>
        <time>2016-04-08T08:03:31Z</time>
      </trkpt>
      <trkpt lat="59.31426976033" lon="18.034120447061">
        <ele>80.6</ele>
        <time>2016-04-08T08:03:32Z</time>
      </trkpt>
      <trkpt lat="59.314330780562" lon="18.034235027634">
        <ele>80</ele>
        <time>2016-04-08T08:03:33Z</time>
      </trkpt>
      <trkpt lat="59.314392555165" lon="18.034343824696">
        <ele>79.6</ele>
        <time>2016-04-08T08:03:34Z</time>
      </trkpt>
      <trkpt lat="59.314509231213" lon="18.034534345283">
        <ele>79.6</ele>
        <time>2016-04-08T08:03:36Z</time>
      </trkpt>
      <trkpt lat="59.314640491767" lon="18.034624199251">
        <ele>79.6</ele>
        <time>2016-04-08T08:03:38Z</time>
      </trkpt>
      <trkpt lat="59.314714084849" lon="18.034630401857">
        <ele>79.2</ele>
        <time>2016-04-08T08:03:39Z</time>
      </trkpt>
      <trkpt lat="59.314788013207" lon="18.034627216735">
        <ele>78.6</ele>
        <time>2016-04-08T08:03:40Z</time>
      </trkpt>
      <trkpt lat="59.314858756443" lon="18.034622774328">
        <ele>78.2</ele>
        <time>2016-04-08T08:03:41Z</time>
      </trkpt>
      <trkpt lat="59.314911646232" lon="18.034613973333">
        <ele>77.8</ele>
        <time>2016-04-08T08:03:42Z</time>
      </trkpt>
      <trkpt lat="59.31496126708" lon="18.034610536754">
        <ele>77.4</ele>
        <time>2016-04-08T08:03:43Z</time>
      </trkpt>
      <trkpt lat="59.314996554879" lon="18.034579272267">
        <ele>77.4</ele>
        <time>2016-04-08T08:03:44Z</time>
      </trkpt>
      <trkpt lat="59.315310373215" lon="18.034390847155">
        <ele>77.4</ele>
        <time>2016-04-08T08:04:38Z</time>
      </trkpt>
      <trkpt lat="59.31535186362" lon="18.034318678996">
        <ele>77.4</ele>
        <time>2016-04-08T08:04:39Z</time>
      </trkpt>
      <trkpt lat="59.315399388993" lon="18.034239721498">
        <ele>77.4</ele>
        <time>2016-04-08T08:04:40Z</time>
      </trkpt>
      <trkpt lat="59.315449512755" lon="18.034167804796">
        <ele>77</ele>
        <time>2016-04-08T08:04:41Z</time>
      </trkpt>
      <trkpt lat="59.3155127961" lon="18.034120195604">
        <ele>76.6</ele>
        <time>2016-04-08T08:04:42Z</time>
      </trkpt>
      <trkpt lat="59.315583874612" lon="18.034084321072">
        <ele>75.8</ele>
        <time>2016-04-08T08:04:43Z</time>
      </trkpt>
      <trkpt lat="59.315657635332" lon="18.034054816784">
        <ele>75.4</ele>
        <time>2016-04-08T08:04:44Z</time>
      </trkpt>
      <trkpt lat="59.315950079823" lon="18.033818950118">
        <ele>75.4</ele>
        <time>2016-04-08T08:04:48Z</time>
      </trkpt>
      <trkpt lat="59.316332126825" lon="18.033544359074">
        <ele>75.4</ele>
        <time>2016-04-08T08:04:53Z</time>
      </trkpt>
      <trkpt lat="59.316815846274" lon="18.033227607073">
        <ele>75.4</ele>
        <time>2016-04-08T08:04:59Z</time>
      </trkpt>
      <trkpt lat="59.317252543264" lon="18.032996266633">
        <ele>75.4</ele>
        <time>2016-04-08T08:05:04Z</time>
      </trkpt>
      <trkpt lat="59.317597290811" lon="18.032810523729">
        <ele>75.8</ele>
        <time>2016-04-08T08:05:08Z</time>
      </trkpt>
      <trkpt lat="59.317687396236" lon="18.032761321976">
        <ele>76.2</ele>
        <time>2016-04-08T08:05:09Z</time>
      </trkpt>
      <trkpt lat="59.317771550512" lon="18.032717819915">
        <ele>76.6</ele>
        <time>2016-04-08T08:05:10Z</time>
      </trkpt>
      <trkpt lat="59.31785302258" lon="18.032666187411">
        <ele>77</ele>
        <time>2016-04-08T08:05:11Z</time>
      </trkpt>
      <trkpt lat="59.317932315354" lon="18.032619500228">
        <ele>77.4</ele>
        <time>2016-04-08T08:05:12Z</time>
      </trkpt>
      <trkpt lat="59.318175306635" lon="18.032474744815">
        <ele>77.4</ele>
        <time>2016-04-08T08:05:15Z</time>
      </trkpt>
      <trkpt lat="59.318332886355" lon="18.032382711553">
        <ele>77</ele>
        <time>2016-04-08T08:05:17Z</time>
      </trkpt>
      <trkpt lat="59.31841041893" lon="18.032349016315">
        <ele>76.6</ele>
        <time>2016-04-08T08:05:18Z</time>
      </trkpt>
      <trkpt lat="59.318483425279" lon="18.032305178978">
        <ele>76</ele>
        <time>2016-04-08T08:05:19Z</time>
      </trkpt>
      <trkpt lat="59.318551905402" lon="18.032263185659">
        <ele>76.4</ele>
        <time>2016-04-08T08:05:20Z</time>
      </trkpt>
      <trkpt lat="59.318622061905" lon="18.032228987507">
        <ele>76.6</ele>
        <time>2016-04-08T08:05:21Z</time>
      </trkpt>
      <trkpt lat="59.318689117105" lon="18.032209876775">
        <ele>77</ele>
        <time>2016-04-08T08:05:22Z</time>
      </trkpt>
      <trkpt lat="59.318757597228" lon="18.032199315581">
        <ele>77.2</ele>
        <time>2016-04-08T08:05:23Z</time>
      </trkpt>
      <trkpt lat="59.318827502274" lon="18.032186407455">
        <ele>77.6</ele>
        <time>2016-04-08T08:05:24Z</time>
      </trkpt>
      <trkpt lat="59.318901933546" lon="18.032224712738">
        <ele>78.2</ele>
        <time>2016-04-08T08:05:25Z</time>
      </trkpt>
      <trkpt lat="59.318964211063" lon="18.032317835647">
        <ele>78.6</ele>
        <time>2016-04-08T08:05:26Z</time>
      </trkpt>
      <trkpt lat="59.319010227694" lon="18.032429985469">
        <ele>79</ele>
        <time>2016-04-08T08:05:27Z</time>
      </trkpt>
      <trkpt lat="59.319040318715" lon="18.032555881607">
        <ele>79.6</ele>
        <time>2016-04-08T08:05:28Z</time>
      </trkpt>
      <trkpt lat="59.319060351456" lon="18.032703905961">
        <ele>79</ele>
        <time>2016-04-08T08:05:29Z</time>
      </trkpt>
      <trkpt lat="59.319082312034" lon="18.032837345809">
        <ele>78.6</ele>
        <time>2016-04-08T08:05:30Z</time>
      </trkpt>
      <trkpt lat="59.319104021155" lon="18.032967349078">
        <ele>78.2</ele>
        <time>2016-04-08T08:05:31Z</time>
      </trkpt>
      <trkpt lat="59.319123467163" lon="18.033081426737">
        <ele>77.2</ele>
        <time>2016-04-08T08:05:32Z</time>
      </trkpt>
      <trkpt lat="59.319228324732" lon="18.033269432754">
        <ele>76.8</ele>
        <time>2016-04-08T08:05:34Z</time>
      </trkpt>
      <trkpt lat="59.319343827314" lon="18.033295500463">
        <ele>76.2</ele>
        <time>2016-04-08T08:05:35Z</time>
      </trkpt>
      <trkpt lat="59.319440302983" lon="18.033322741638">
        <ele>75.8</ele>
        <time>2016-04-08T08:05:36Z</time>
      </trkpt>
      <trkpt lat="59.319523619069" lon="18.033372530124">
        <ele>75.4</ele>
        <time>2016-04-08T08:05:37Z</time>
      </trkpt>
      <trkpt lat="59.319593356477" lon="18.033444865921">
        <ele>74.8</ele>
        <time>2016-04-08T08:05:38Z</time>
      </trkpt>
      <trkpt lat="59.319643815515" lon="18.033574450095">
        <ele>74.8</ele>
        <time>2016-04-08T08:05:39Z</time>
      </trkpt>
      <trkpt lat="59.319675415278" lon="18.033726665399">
        <ele>74.4</ele>
        <time>2016-04-08T08:05:40Z</time>
      </trkpt>
      <trkpt lat="59.319735681139" lon="18.033975440191">
        <ele>73.2</ele>
        <time>2016-04-08T08:05:42Z</time>
      </trkpt>
      <trkpt lat="59.319762000305" lon="18.034060851752">
        <ele>72.8</ele>
        <time>2016-04-08T08:05:43Z</time>
      </trkpt>
      <trkpt lat="59.319790247308" lon="18.034147604417">
        <ele>72.2</ele>
        <time>2016-04-08T08:05:44Z</time>
      </trkpt>
      <trkpt lat="59.319821763252" lon="18.034236117281">
        <ele>71.8</ele>
        <time>2016-04-08T08:05:45Z</time>
      </trkpt>
      <trkpt lat="59.319863672752" lon="18.034348099465">
        <ele>71.4</ele>
        <time>2016-04-08T08:05:46Z</time>
      </trkpt>
      <trkpt lat="59.319895356334" lon="18.034481371675">
        <ele>71</ele>
        <time>2016-04-08T08:05:47Z</time>
      </trkpt>
      <trkpt lat="59.319920753491" lon="18.03462093031">
        <ele>70.4</ele>
        <time>2016-04-08T08:05:48Z</time>
      </trkpt>
      <trkpt lat="59.319939109852" lon="18.034773397071">
        <ele>69.8</ele>
        <time>2016-04-08T08:05:49Z</time>
      </trkpt>
      <trkpt lat="59.319950676874" lon="18.034932653171">
        <ele>69.2</ele>
        <time>2016-04-08T08:05:50Z</time>
      </trkpt>
      <trkpt lat="59.319961238068" lon="18.035088305054">
        <ele>68.6</ele>
        <time>2016-04-08T08:05:51Z</time>
      </trkpt>
      <trkpt lat="59.319970122882" lon="18.035250662457">
        <ele>68</ele>
        <time>2016-04-08T08:05:52Z</time>
      </trkpt>
      <trkpt lat="59.320023264128" lon="18.035989610761">
        <ele>68</ele>
        <time>2016-04-08T08:05:56Z</time>
      </trkpt>
      <trkpt lat="59.320027706535" lon="18.036180550443">
        <ele>67</ele>
        <time>2016-04-08T08:05:57Z</time>
      </trkpt>
      <trkpt lat="59.320038519186" lon="18.036374088514">
        <ele>66.6</ele>
        <time>2016-04-08T08:05:58Z</time>
      </trkpt>
      <trkpt lat="59.320056037357" lon="18.036566034024">
        <ele>66</ele>
        <time>2016-04-08T08:05:59Z</time>
      </trkpt>
      <trkpt lat="59.320074142261" lon="18.036754207679">
        <ele>65.6</ele>
        <time>2016-04-08T08:06:00Z</time>
      </trkpt>
      <trkpt lat="59.320093420631" lon="18.03695109851">
        <ele>65.6</ele>
        <time>2016-04-08T08:06:01Z</time>
      </trkpt>
      <trkpt lat="59.320188303739" lon="18.037834383132">
        <ele>65.6</ele>
        <time>2016-04-08T08:06:06Z</time>
      </trkpt>
      <trkpt lat="59.320211521602" lon="18.038004535702">
        <ele>65.6</ele>
        <time>2016-04-08T08:06:07Z</time>
      </trkpt>
      <trkpt lat="59.320222501891" lon="18.038196984126">
        <ele>65.6</ele>
        <time>2016-04-08T08:06:08Z</time>
      </trkpt>
      <trkpt lat="59.320235074741" lon="18.038565200993">
        <ele>65.6</ele>
        <time>2016-04-08T08:06:10Z</time>
      </trkpt>
      <trkpt lat="59.320257035319" lon="18.03872387036">
        <ele>65.6</ele>
        <time>2016-04-08T08:06:11Z</time>
      </trkpt>
      <trkpt lat="59.320310092746" lon="18.03903651523">
        <ele>65.6</ele>
        <time>2016-04-08T08:06:13Z</time>
      </trkpt>
      <trkpt lat="59.320376477394" lon="18.040027088172">
        <ele>65.6</ele>
        <time>2016-04-08T08:06:19Z</time>
      </trkpt>
      <trkpt lat="59.320460296394" lon="18.041030317783">
        <ele>65.6</ele>
        <time>2016-04-08T08:06:25Z</time>
      </trkpt>
      <trkpt lat="59.320518550599" lon="18.042020890725">
        <ele>65.6</ele>
        <time>2016-04-08T08:06:31Z</time>
      </trkpt>
      <trkpt lat="59.320566914162" lon="18.043185639549">
        <ele>65.6</ele>
        <time>2016-04-08T08:06:38Z</time>
      </trkpt>
      <trkpt lat="59.320630616602" lon="18.043673801405">
        <ele>65.6</ele>
        <time>2016-04-08T08:06:41Z</time>
      </trkpt>
      <trkpt lat="59.320656097578" lon="18.043834147152">
        <ele>65.6</ele>
        <time>2016-04-08T08:06:42Z</time>
      </trkpt>
      <trkpt lat="59.320735641809" lon="18.04464903547">
        <ele>65.6</ele>
        <time>2016-04-08T08:06:47Z</time>
      </trkpt>
      <trkpt lat="59.320762212432" lon="18.045134515118">
        <ele>65.6</ele>
        <time>2016-04-08T08:06:50Z</time>
      </trkpt>
      <trkpt lat="59.320754920179" lon="18.045443304314">
        <ele>65.6</ele>
        <time>2016-04-08T08:06:52Z</time>
      </trkpt>
      <trkpt lat="59.320785346476" lon="18.04624997837">
        <ele>65.6</ele>
        <time>2016-04-08T08:06:57Z</time>
      </trkpt>
      <trkpt lat="59.32085625735" lon="18.047386899286">
        <ele>65.6</ele>
        <time>2016-04-08T08:07:04Z</time>
      </trkpt>
      <trkpt lat="59.320891042235" lon="18.047872965667">
        <ele>65.6</ele>
        <time>2016-04-08T08:07:07Z</time>
      </trkpt>
      <trkpt lat="59.32095181101" lon="18.048682238112">
        <ele>65.6</ele>
        <time>2016-04-08T08:07:12Z</time>
      </trkpt>
      <trkpt lat="59.320966730792" lon="18.048843170592">
        <ele>65.6</ele>
        <time>2016-04-08T08:07:13Z</time>
      </trkpt>
      <trkpt lat="59.32103982096" lon="18.049310629155">
        <ele>65.6</ele>
        <time>2016-04-08T08:07:16Z</time>
      </trkpt>
      <trkpt lat="59.321137721552" lon="18.049922172579">
        <ele>65.6</ele>
        <time>2016-04-08T08:07:20Z</time>
      </trkpt>
      <trkpt lat="59.321157670474" lon="18.050237583476">
        <ele>65.6</ele>
        <time>2016-04-08T08:07:22Z</time>
      </trkpt>
      <trkpt lat="59.321188348228" lon="18.051377689514">
        <ele>65.6</ele>
        <time>2016-04-08T08:07:29Z</time>
      </trkpt>
      <trkpt lat="59.321193545006" lon="18.051553877052">
        <ele>65.6</ele>
        <time>2016-04-08T08:07:30Z</time>
      </trkpt>
      <trkpt lat="59.321198909422" lon="18.052568422228">
        <ele>65.6</ele>
        <time>2016-04-08T08:07:36Z</time>
      </trkpt>
      <trkpt lat="59.321190192246" lon="18.053397727414">
        <ele>65.6</ele>
        <time>2016-04-08T08:07:41Z</time>
      </trkpt>
      <trkpt lat="59.321201340173" lon="18.054547640275">
        <ele>65.6</ele>
        <time>2016-04-08T08:07:48Z</time>
      </trkpt>
      <trkpt lat="59.321218439249" lon="18.054703208339">
        <ele>65.6</ele>
        <time>2016-04-08T08:07:49Z</time>
      </trkpt>
      <trkpt lat="59.321235203049" lon="18.055492112767">
        <ele>65.6</ele>
        <time>2016-04-08T08:07:54Z</time>
      </trkpt>
      <trkpt lat="59.321220618543" lon="18.056264504852">
        <ele>65.6</ele>
        <time>2016-04-08T08:07:59Z</time>
      </trkpt>
      <trkpt lat="59.321212823376" lon="18.057078471161">
        <ele>65.6</ele>
        <time>2016-04-08T08:08:04Z</time>
      </trkpt>
      <trkpt lat="59.321225982959" lon="18.057977681393">
        <ele>65.6</ele>
        <time>2016-04-08T08:08:10Z</time>
      </trkpt>
      <trkpt lat="59.321248697908" lon="18.058918549668">
        <ele>65.6</ele>
        <time>2016-04-08T08:08:16Z</time>
      </trkpt>
      <trkpt lat="59.321258337093" lon="18.060043316829">
        <ele>65.6</ele>
        <time>2016-04-08T08:08:23Z</time>
      </trkpt>
      <trkpt lat="59.321257163627" lon="18.060197292332">
        <ele>65.6</ele>
        <time>2016-04-08T08:08:24Z</time>
      </trkpt>
      <trkpt lat="59.321267389545" lon="18.061309821919">
        <ele>65.6</ele>
        <time>2016-04-08T08:08:31Z</time>
      </trkpt>
      <trkpt lat="59.32126864683" lon="18.061464216517">
        <ele>65.6</ele>
        <time>2016-04-08T08:08:32Z</time>
      </trkpt>
      <trkpt lat="59.321245764243" lon="18.062536764441">
        <ele>65.6</ele>
        <time>2016-04-08T08:08:39Z</time>
      </trkpt>
      <trkpt lat="59.321231431194" lon="18.062825017982">
        <ele>65.6</ele>
        <time>2016-04-08T08:08:41Z</time>
      </trkpt>
      <trkpt lat="59.321209554435" lon="18.063268923406">
        <ele>65.6</ele>
        <time>2016-04-08T08:08:44Z</time>
      </trkpt>
      <trkpt lat="59.321176278292" lon="18.064150866924">
        <ele>65.6</ele>
        <time>2016-04-08T08:08:50Z</time>
      </trkpt>
      <trkpt lat="59.321135626077" lon="18.064923091371">
        <ele>65.6</ele>
        <time>2016-04-08T08:08:55Z</time>
      </trkpt>
      <trkpt lat="59.321066559221" lon="18.066010894353">
        <ele>65.6</ele>
        <time>2016-04-08T08:09:02Z</time>
      </trkpt>
      <trkpt lat="59.321046442661" lon="18.066306272509">
        <ele>65.6</ele>
        <time>2016-04-08T08:09:04Z</time>
      </trkpt>
      <trkpt lat="59.320987098809" lon="18.067331462698">
        <ele>65.6</ele>
        <time>2016-04-08T08:09:11Z</time>
      </trkpt>
      <trkpt lat="59.320969748276" lon="18.068135286908">
        <ele>65.6</ele>
        <time>2016-04-08T08:09:17Z</time>
      </trkpt>
      <trkpt lat="59.321001180401" lon="18.068673656345">
        <ele>65.6</ele>
        <time>2016-04-08T08:09:21Z</time>
      </trkpt>
      <trkpt lat="59.321100589735" lon="18.069268687426">
        <ele>65.6</ele>
        <time>2016-04-08T08:09:25Z</time>
      </trkpt>
      <trkpt lat="59.321127076539" lon="18.069407156414">
        <ele>65.6</ele>
        <time>2016-04-08T08:09:26Z</time>
      </trkpt>
      <trkpt lat="59.321189773151" lon="18.069859527557">
        <ele>65.6</ele>
        <time>2016-04-08T08:09:30Z</time>
      </trkpt>
      <trkpt lat="59.321183905821" lon="18.069945861127">
        <ele>65.6</ele>
        <time>2016-04-08T08:09:31Z</time>
      </trkpt>
      <trkpt lat="59.321187677676" lon="18.070052562714">
        <ele>65.6</ele>
        <time>2016-04-08T08:09:32Z</time>
      </trkpt>
      <trkpt lat="59.321185833658" lon="18.070323465722">
        <ele>65.6</ele>
        <time>2016-04-08T08:09:34Z</time>
      </trkpt>
      <trkpt lat="59.321187761495" lon="18.070864182091">
        <ele>66</ele>
        <time>2016-04-08T08:09:38Z</time>
      </trkpt>
      <trkpt lat="59.321182983812" lon="18.070992592799">
        <ele>66.8</ele>
        <time>2016-04-08T08:09:39Z</time>
      </trkpt>
      <trkpt lat="59.321181894165" lon="18.071109268847">
        <ele>67.4</ele>
        <time>2016-04-08T08:09:40Z</time>
      </trkpt>
      <trkpt lat="59.321176781206" lon="18.071228459465">
        <ele>67.8</ele>
        <time>2016-04-08T08:09:41Z</time>
      </trkpt>
      <trkpt lat="59.321179295776" lon="18.071581672731">
        <ele>67.8</ele>
        <time>2016-04-08T08:09:44Z</time>
      </trkpt>
      <trkpt lat="59.32120075344" lon="18.071682506988">
        <ele>67.8</ele>
        <time>2016-04-08T08:09:45Z</time>
      </trkpt>
      <trkpt lat="59.321231598832" lon="18.071774959345">
        <ele>68.2</ele>
        <time>2016-04-08T08:09:46Z</time>
      </trkpt>
      <trkpt lat="59.321262108948" lon="18.071838913242">
        <ele>68.6</ele>
        <time>2016-04-08T08:09:47Z</time>
      </trkpt>
      <trkpt lat="59.32129546891" lon="18.071878140534">
        <ele>69</ele>
        <time>2016-04-08T08:09:48Z</time>
      </trkpt>
      <trkpt lat="59.321342575188" lon="18.071911332858">
        <ele>69.4</ele>
        <time>2016-04-08T08:09:49Z</time>
      </trkpt>
      <trkpt lat="59.321384568507" lon="18.07194888377">
        <ele>69.8</ele>
        <time>2016-04-08T08:09:50Z</time>
      </trkpt>
      <trkpt lat="59.321477272321" lon="18.072018956454">
        <ele>69.8</ele>
        <time>2016-04-08T08:09:52Z</time>
      </trkpt>
      <trkpt lat="59.321529575377" lon="18.07205701028">
        <ele>70.2</ele>
        <time>2016-04-08T08:09:53Z</time>
      </trkpt>
      <trkpt lat="59.321574921456" lon="18.072112666096">
        <ele>70.8</ele>
        <time>2016-04-08T08:09:54Z</time>
      </trkpt>
      <trkpt lat="59.321616160404" lon="18.072175949441">
        <ele>71.2</ele>
        <time>2016-04-08T08:09:55Z</time>
      </trkpt>
      <trkpt lat="59.321664523967" lon="18.072239400424">
        <ele>71.6</ele>
        <time>2016-04-08T08:09:56Z</time>
      </trkpt>
      <trkpt lat="59.321722694353" lon="18.072284327408">
        <ele>72</ele>
        <time>2016-04-08T08:09:57Z</time>
      </trkpt>
      <trkpt lat="59.321848339034" lon="18.07231684918">
        <ele>72</ele>
        <time>2016-04-08T08:09:59Z</time>
      </trkpt>
      <trkpt lat="59.321987646212" lon="18.072237891682">
        <ele>71.4</ele>
        <time>2016-04-08T08:10:01Z</time>
      </trkpt>
      <trkpt lat="59.322050594281" lon="18.07215340213">
        <ele>71</ele>
        <time>2016-04-08T08:10:02Z</time>
      </trkpt>
      <trkpt lat="59.32211354235" lon="18.072048879837">
        <ele>70</ele>
        <time>2016-04-08T08:10:03Z</time>
      </trkpt>
      <trkpt lat="59.322170120175" lon="18.071937484386">
        <ele>69.2</ele>
        <time>2016-04-08T08:10:04Z</time>
      </trkpt>
      <trkpt lat="59.322224351068" lon="18.071818796682">
        <ele>68.6</ele>
        <time>2016-04-08T08:10:05Z</time>
      </trkpt>
      <trkpt lat="59.322268942776" lon="18.071689966879">
        <ele>68</ele>
        <time>2016-04-08T08:10:06Z</time>
      </trkpt>
      <trkpt lat="59.3223021351" lon="18.071556275574">
        <ele>67.2</ele>
        <time>2016-04-08T08:10:07Z</time>
      </trkpt>
      <trkpt lat="59.3223272808" lon="18.071416297844">
        <ele>66.6</ele>
        <time>2016-04-08T08:10:08Z</time>
      </trkpt>
      <trkpt lat="59.322340608021" lon="18.071272045345">
        <ele>66.6</ele>
        <time>2016-04-08T08:10:09Z</time>
      </trkpt>
      <trkpt lat="59.322385786462" lon="18.070996532292">
        <ele>66.2</ele>
        <time>2016-04-08T08:10:11Z</time>
      </trkpt>
      <trkpt lat="59.322406657393" lon="18.070861499883">
        <ele>65.8</ele>
        <time>2016-04-08T08:10:12Z</time>
      </trkpt>
      <trkpt lat="59.322417218587" lon="18.07072596456">
        <ele>65.4</ele>
        <time>2016-04-08T08:10:13Z</time>
      </trkpt>
      <trkpt lat="59.322421325718" lon="18.070594284911">
        <ele>65</ele>
        <time>2016-04-08T08:10:14Z</time>
      </trkpt>
      <trkpt lat="59.322411686533" lon="18.070463527271">
        <ele>64.6</ele>
        <time>2016-04-08T08:10:15Z</time>
      </trkpt>
      <trkpt lat="59.32239182143" lon="18.070166975649">
        <ele>64.6</ele>
        <time>2016-04-08T08:10:17Z</time>
      </trkpt>
      <trkpt lat="59.3223691903" lon="18.069566161057">
        <ele>64.6</ele>
        <time>2016-04-08T08:10:21Z</time>
      </trkpt>
      <trkpt lat="59.322388971584" lon="18.069420399816">
        <ele>64.6</ele>
        <time>2016-04-08T08:10:22Z</time>
      </trkpt>
      <trkpt lat="59.32255778305" lon="18.068888316804">
        <ele>64.6</ele>
        <time>2016-04-08T08:10:26Z</time>
      </trkpt>
      <trkpt lat="59.322609164097" lon="18.068768204177">
        <ele>64.6</ele>
        <time>2016-04-08T08:10:27Z</time>
      </trkpt>
      <trkpt lat="59.322845366039" lon="18.068157079848">
        <ele>64.6</ele>
        <time>2016-04-08T08:10:32Z</time>
      </trkpt>
      <trkpt lat="59.323033623513" lon="18.067719544668">
        <ele>64.6</ele>
        <time>2016-04-08T08:10:36Z</time>
      </trkpt>
      <trkpt lat="59.323095733392" lon="18.06764393993">
        <ele>64.6</ele>
        <time>2016-04-08T08:10:37Z</time>
      </trkpt>
      <trkpt lat="59.323385830951" lon="18.067271532113">
        <ele>64.6</ele>
        <time>2016-04-08T08:10:42Z</time>
      </trkpt>
      <trkpt lat="59.323447018821" lon="18.067208500225">
        <ele>64.6</ele>
        <time>2016-04-08T08:10:43Z</time>
      </trkpt>
      <trkpt lat="59.323746504108" lon="18.066890993853">
        <ele>65</ele>
        <time>2016-04-08T08:10:48Z</time>
      </trkpt>
      <trkpt lat="59.323804003942" lon="18.066831147087">
        <ele>65.4</ele>
        <time>2016-04-08T08:10:49Z</time>
      </trkpt>
      <trkpt lat="59.323852702781" lon="18.066773982529">
        <ele>65.8</ele>
        <time>2016-04-08T08:10:50Z</time>
      </trkpt>
      <trkpt lat="59.323911208443" lon="18.066722350025">
        <ele>66.2</ele>
        <time>2016-04-08T08:10:51Z</time>
      </trkpt>
      <trkpt lat="59.323966864259" lon="18.066670130788">
        <ele>66.6</ele>
        <time>2016-04-08T08:10:52Z</time>
      </trkpt>
      <trkpt lat="59.32402629193" lon="18.066633334247">
        <ele>66.6</ele>
        <time>2016-04-08T08:10:53Z</time>
      </trkpt>
      <trkpt lat="59.324151349878" lon="18.066585054503">
        <ele>66.6</ele>
        <time>2016-04-08T08:10:55Z</time>
      </trkpt>
      <trkpt lat="59.324283280984" lon="18.066570889092">
        <ele>66.6</ele>
        <time>2016-04-08T08:10:57Z</time>
      </trkpt>
      <trkpt lat="59.324356622609" lon="18.066570134721">
        <ele>66.6</ele>
        <time>2016-04-08T08:10:58Z</time>
      </trkpt>
      <trkpt lat="59.324755349592" lon="18.066477933821">
        <ele>66.6</ele>
        <time>2016-04-08T08:11:04Z</time>
      </trkpt>
      <trkpt lat="59.325098588397" lon="18.066195044696">
        <ele>66.6</ele>
        <time>2016-04-08T08:11:09Z</time>
      </trkpt>
      <trkpt lat="59.325161536466" lon="18.066114494637">
        <ele>66.6</ele>
        <time>2016-04-08T08:11:10Z</time>
      </trkpt>
      <trkpt lat="59.325282235826" lon="18.065950963768">
        <ele>66.6</ele>
        <time>2016-04-08T08:11:12Z</time>
      </trkpt>
      <trkpt lat="59.325390781431" lon="18.065790115107">
        <ele>66.6</ele>
        <time>2016-04-08T08:11:14Z</time>
      </trkpt>
      <trkpt lat="59.3255040209" lon="18.065627003333">
        <ele>66.6</ele>
        <time>2016-04-08T08:11:16Z</time>
      </trkpt>
      <trkpt lat="59.32561969112" lon="18.065451151071">
        <ele>66.6</ele>
        <time>2016-04-08T08:11:18Z</time>
      </trkpt>
      <trkpt lat="59.325943316279" lon="18.064956116057">
        <ele>66.6</ele>
        <time>2016-04-08T08:11:23Z</time>
      </trkpt>
      <trkpt lat="59.326149008105" lon="18.064580104023">
        <ele>66.6</ele>
        <time>2016-04-08T08:11:27Z</time>
      </trkpt>
      <trkpt lat="59.326211369441" lon="18.064548755717">
        <ele>66.6</ele>
        <time>2016-04-08T08:11:28Z</time>
      </trkpt>
      <trkpt lat="59.32630197778" lon="18.064733325155">
        <ele>66.6</ele>
        <time>2016-04-08T08:11:30Z</time>
      </trkpt>
      <trkpt lat="59.326341121253" lon="18.064830219919">
        <ele>66.6</ele>
        <time>2016-04-08T08:11:31Z</time>
      </trkpt>
      <trkpt lat="59.326504568303" lon="18.06522157083">
        <ele>66.6</ele>
        <time>2016-04-08T08:11:35Z</time>
      </trkpt>
      <trkpt lat="59.326547232174" lon="18.065298600491">
        <ele>66.6</ele>
        <time>2016-04-08T08:11:36Z</time>
      </trkpt>
      <trkpt lat="59.326661477471" lon="18.065260295208">
        <ele>66.6</ele>
        <time>2016-04-08T08:11:38Z</time>
      </trkpt>
      <trkpt lat="59.326807741626" lon="18.065002384145">
        <ele>67</ele>
        <time>2016-04-08T08:11:41Z</time>
      </trkpt>
      <trkpt lat="59.326862894528" lon="18.064914960928">
        <ele>68</ele>
        <time>2016-04-08T08:11:42Z</time>
      </trkpt>
      <trkpt lat="59.326917628335" lon="18.064816473603">
        <ele>68.4</ele>
        <time>2016-04-08T08:11:43Z</time>
      </trkpt>
      <trkpt lat="59.326969596115" lon="18.064729972395">
        <ele>68.8</ele>
        <time>2016-04-08T08:11:44Z</time>
      </trkpt>
      <trkpt lat="59.327006560294" lon="18.064667694878">
        <ele>68.8</ele>
        <time>2016-04-08T08:11:45Z</time>
      </trkpt>
      <trkpt lat="59.327174617389" lon="18.064401318096">
        <ele>68.8</ele>
        <time>2016-04-08T08:11:49Z</time>
      </trkpt>
      <trkpt lat="59.327379638663" lon="18.064060510042">
        <ele>68.8</ele>
        <time>2016-04-08T08:11:54Z</time>
      </trkpt>
      <trkpt lat="59.327717848328" lon="18.06352591246">
        <ele>68.8</ele>
        <time>2016-04-08T08:12:01Z</time>
      </trkpt>
      <trkpt lat="59.328066786825" lon="18.062953596328">
        <ele>68.8</ele>
        <time>2016-04-08T08:12:08Z</time>
      </trkpt>
      <trkpt lat="59.328150522006" lon="18.062628294789">
        <ele>68.8</ele>
        <time>2016-04-08T08:12:11Z</time>
      </trkpt>
      <trkpt lat="59.328180529208" lon="18.062524694505">
        <ele>68.8</ele>
        <time>2016-04-08T08:12:12Z</time>
      </trkpt>
      <trkpt lat="59.328203327976" lon="18.062410449208">
        <ele>68.8</ele>
        <time>2016-04-08T08:12:13Z</time>
      </trkpt>
      <trkpt lat="59.328250853349" lon="18.062047764395">
        <ele>68.4</ele>
        <time>2016-04-08T08:12:16Z</time>
      </trkpt>
      <trkpt lat="59.328258145602" lon="18.061922203533">
        <ele>68</ele>
        <time>2016-04-08T08:12:17Z</time>
      </trkpt>
      <trkpt lat="59.328258899973" lon="18.061789937151">
        <ele>67.6</ele>
        <time>2016-04-08T08:12:18Z</time>
      </trkpt>
      <trkpt lat="59.328250266616" lon="18.061655994389">
        <ele>67</ele>
        <time>2016-04-08T08:12:19Z</time>
      </trkpt>
      <trkpt lat="59.328247081494" lon="18.061518028315">
        <ele>66.6</ele>
        <time>2016-04-08T08:12:20Z</time>
      </trkpt>
      <trkpt lat="59.328264096751" lon="18.061379978422">
        <ele>66.6</ele>
        <time>2016-04-08T08:12:21Z</time>
      </trkpt>
      <trkpt lat="59.328327966829" lon="18.061245951841">
        <ele>66.6</ele>
        <time>2016-04-08T08:12:23Z</time>
      </trkpt>
      <trkpt lat="59.328439194642" lon="18.06100212237">
        <ele>66.6</ele>
        <time>2016-04-08T08:12:27Z</time>
      </trkpt>
      <trkpt lat="59.328583782417" lon="18.061052916684">
        <ele>66.6</ele>
        <time>2016-04-08T08:12:36Z</time>
      </trkpt>
      <trkpt lat="59.328622590614" lon="18.061091976338">
        <ele>66.6</ele>
        <time>2016-04-08T08:12:37Z</time>
      </trkpt>
      <trkpt lat="59.32875116896" lon="18.061040595291">
        <ele>66.6</ele>
        <time>2016-04-08T08:12:40Z</time>
      </trkpt>
      <trkpt lat="59.328800538351" lon="18.061009079347">
        <ele>66.6</ele>
        <time>2016-04-08T08:12:41Z</time>
      </trkpt>
      <trkpt lat="59.329039422501" lon="18.060830041963">
        <ele>66.6</ele>
        <time>2016-04-08T08:12:45Z</time>
      </trkpt>
      <trkpt lat="59.329380733469" lon="18.060528042106">
        <ele>66.6</ele>
        <time>2016-04-08T08:12:50Z</time>
      </trkpt>
      <trkpt lat="59.329698575117" lon="18.060262587333">
        <ele>66.6</ele>
        <time>2016-04-08T08:12:55Z</time>
      </trkpt>
      <trkpt lat="59.329953720153" lon="18.060027894133">
        <ele>66.6</ele>
        <time>2016-04-08T08:13:03Z</time>
      </trkpt>
      <trkpt lat="59.330135691202" lon="18.059901746538">
        <ele>66.6</ele>
        <time>2016-04-08T08:13:06Z</time>
      </trkpt>
      <trkpt lat="59.330476666894" lon="18.059633106643">
        <ele>66.6</ele>
        <time>2016-04-08T08:13:12Z</time>
      </trkpt>
      <trkpt lat="59.330535004918" lon="18.059559681199">
        <ele>66.6</ele>
        <time>2016-04-08T08:13:13Z</time>
      </trkpt>
      <trkpt lat="59.330646987102" lon="18.059447363739">
        <ele>67</ele>
        <time>2016-04-08T08:13:15Z</time>
      </trkpt>
      <trkpt lat="59.330700631262" lon="18.059388355163">
        <ele>67.6</ele>
        <time>2016-04-08T08:13:16Z</time>
      </trkpt>
      <trkpt lat="59.330753940146" lon="18.059321802877">
        <ele>68</ele>
        <time>2016-04-08T08:13:17Z</time>
      </trkpt>
      <trkpt lat="59.330805656469" lon="18.059251478736">
        <ele>68.4</ele>
        <time>2016-04-08T08:13:18Z</time>
      </trkpt>
      <trkpt lat="59.33086508414" lon="18.059192721617">
        <ele>68.8</ele>
        <time>2016-04-08T08:13:19Z</time>
      </trkpt>
      <trkpt lat="59.331037248366" lon="18.059053582077">
        <ele>68.8</ele>
        <time>2016-04-08T08:13:22Z</time>
      </trkpt>
      <trkpt lat="59.331350144693" lon="18.058883932421">
        <ele>68.8</ele>
        <time>2016-04-08T08:13:27Z</time>
      </trkpt>
      <trkpt lat="59.331477717211" lon="18.058756108446">
        <ele>68.8</ele>
        <time>2016-04-08T08:13:29Z</time>
      </trkpt>
      <trkpt lat="59.331600931141" lon="18.058601462391">
        <ele>68.8</ele>
        <time>2016-04-08T08:13:31Z</time>
      </trkpt>
      <trkpt lat="59.331717355732" lon="18.058462574308">
        <ele>68.8</ele>
        <time>2016-04-08T08:13:33Z</time>
      </trkpt>
      <trkpt lat="59.331883820266" lon="18.058299965448">
        <ele>68.8</ele>
        <time>2016-04-08T08:13:36Z</time>
      </trkpt>
      <trkpt lat="59.332280116498" lon="18.057997881772">
        <ele>68.8</ele>
        <time>2016-04-08T08:13:43Z</time>
      </trkpt>
      <trkpt lat="59.332312470632" lon="18.057908027804">
        <ele>68.8</ele>
        <time>2016-04-08T08:13:44Z</time>
      </trkpt>
      <trkpt lat="59.332339879445" lon="18.057823622071">
        <ele>68.8</ele>
        <time>2016-04-08T08:13:45Z</time>
      </trkpt>
    </trkseg>
  </trk>
</gpx>